<?xml version="1.0" encoding="UTF-8" standalone="no" ?>
<gpx xmlns="http://www.topografix.com/GPX/1/1" xmlns:xsi="http://www.w3.org/2001/XMLSchema-instance" xsi:schemaLocation="http://www.topografix.com/GPX/1/1 http://www.topografix.com/GPX/1/1/gpx.xsd" version="1.1" creator="VisuGPX - https://www.visugpx.com">
  <metadata>
    <name>Rando Organisée : Cogolin 11ème randonnée du Coq</name>
    <desc><![CDATA[43 km à la place des 50 annoncés... Heureusement parcequ\'on a eu mal au pattes (1550 D )!!
Les montées sont assez longues et la dernière très raide !!
Des singles très sympas et bien techniques dans des sous-bois magnifiques.
Attention : passage par des domaines privés =>des demandes d\'autorisation ont été faites par les organisateurs.]]></desc>
  </metadata>
  <trk>
    <name><![CDATA[11emeRandoDuCoq-MNT]]></name>
    <trkseg>
      <trkpt lat="43.25111" lon="6.52833">
        <ele>24.08375</ele>
        <time>2011-10-02T07:39:26Z</time>
      </trkpt>
      <trkpt lat="43.25113" lon="6.52823">
        <ele>24.2925</ele>
        <time>2011-10-02T07:39:30Z</time>
      </trkpt>
      <trkpt lat="43.2511" lon="6.5281">
        <ele>24.41375</ele>
        <time>2011-10-02T07:39:34Z</time>
      </trkpt>
      <trkpt lat="43.2506" lon="6.52759">
        <ele>24.307501</ele>
        <time>2011-10-02T07:39:51Z</time>
      </trkpt>
      <trkpt lat="43.25022" lon="6.52715">
        <ele>25.491249</ele>
        <time>2011-10-02T07:40:06Z</time>
      </trkpt>
      <trkpt lat="43.25019" lon="6.52704">
        <ele>25.6745</ele>
        <time>2011-10-02T07:40:10Z</time>
      </trkpt>
      <trkpt lat="43.25023" lon="6.52688">
        <ele>25.412201</ele>
        <time>2011-10-02T07:40:16Z</time>
      </trkpt>
      <trkpt lat="43.25035" lon="6.52667">
        <ele>25.063835</ele>
        <time>2011-10-02T07:40:22Z</time>
      </trkpt>
      <trkpt lat="43.25054" lon="6.52609">
        <ele>26.18125</ele>
        <time>2011-10-02T07:40:35Z</time>
      </trkpt>
      <trkpt lat="43.25042" lon="6.5255">
        <ele>27.512501</ele>
        <time>2011-10-02T07:40:48Z</time>
      </trkpt>
      <trkpt lat="43.25028" lon="6.5247">
        <ele>31.381874</ele>
        <time>2011-10-02T07:41:05Z</time>
      </trkpt>
      <trkpt lat="43.25013" lon="6.52398">
        <ele>34.457298</ele>
        <time>2011-10-02T07:41:20Z</time>
      </trkpt>
      <trkpt lat="43.25022" lon="6.52346">
        <ele>35.433727</ele>
        <time>2011-10-02T07:41:32Z</time>
      </trkpt>
      <trkpt lat="43.25049" lon="6.52294">
        <ele>35.852577</ele>
        <time>2011-10-02T07:41:46Z</time>
      </trkpt>
      <trkpt lat="43.25086" lon="6.5221">
        <ele>37.759075</ele>
        <time>2011-10-02T07:42:07Z</time>
      </trkpt>
      <trkpt lat="43.25106" lon="6.52151">
        <ele>39.953186</ele>
        <time>2011-10-02T07:42:21Z</time>
      </trkpt>
      <trkpt lat="43.25136" lon="6.52087">
        <ele>43.48</ele>
        <time>2011-10-02T07:42:37Z</time>
      </trkpt>
      <trkpt lat="43.25163" lon="6.52024">
        <ele>46.603363</ele>
        <time>2011-10-02T07:42:53Z</time>
      </trkpt>
      <trkpt lat="43.25189" lon="6.51967">
        <ele>48.195</ele>
        <time>2011-10-02T07:43:09Z</time>
      </trkpt>
      <trkpt lat="43.25207" lon="6.51934">
        <ele>48.902435</ele>
        <time>2011-10-02T07:43:18Z</time>
      </trkpt>
      <trkpt lat="43.25214" lon="6.51888">
        <ele>48.807499</ele>
        <time>2011-10-02T07:43:26Z</time>
      </trkpt>
      <trkpt lat="43.25217" lon="6.51862">
        <ele>48.736252</ele>
        <time>2011-10-02T07:43:30Z</time>
      </trkpt>
      <trkpt lat="43.25248" lon="6.51773">
        <ele>49.339817</ele>
        <time>2011-10-02T07:43:46Z</time>
      </trkpt>
      <trkpt lat="43.25279" lon="6.51714">
        <ele>48.209148</ele>
        <time>2011-10-02T07:43:57Z</time>
      </trkpt>
      <trkpt lat="43.253" lon="6.51617">
        <ele>47.769001</ele>
        <time>2011-10-02T07:44:09Z</time>
      </trkpt>
      <trkpt lat="43.25313" lon="6.51516">
        <ele>44.413349</ele>
        <time>2011-10-02T07:44:18Z</time>
      </trkpt>
      <trkpt lat="43.25304" lon="6.51431">
        <ele>38.495964</ele>
        <time>2011-10-02T07:44:25Z</time>
      </trkpt>
      <trkpt lat="43.25304" lon="6.51385">
        <ele>36.215015</ele>
        <time>2011-10-02T07:44:29Z</time>
      </trkpt>
      <trkpt lat="43.25309" lon="6.51351">
        <ele>34.508511</ele>
        <time>2011-10-02T07:44:32Z</time>
      </trkpt>
      <trkpt lat="43.25307" lon="6.51308">
        <ele>32.620289</ele>
        <time>2011-10-02T07:44:36Z</time>
      </trkpt>
      <trkpt lat="43.25302" lon="6.51285">
        <ele>31.814625</ele>
        <time>2011-10-02T07:44:38Z</time>
      </trkpt>
      <trkpt lat="43.25298" lon="6.51177">
        <ele>27.4219</ele>
        <time>2011-10-02T07:44:46Z</time>
      </trkpt>
      <trkpt lat="43.25278" lon="6.51081">
        <ele>25.05625</ele>
        <time>2011-10-02T07:44:53Z</time>
      </trkpt>
      <trkpt lat="43.25274" lon="6.51003">
        <ele>24.075001</ele>
        <time>2011-10-02T07:44:59Z</time>
      </trkpt>
      <trkpt lat="43.25271" lon="6.50981">
        <ele>24.24</ele>
        <time>2011-10-02T07:45:01Z</time>
      </trkpt>
      <trkpt lat="43.25228" lon="6.50863">
        <ele>24.936119</ele>
        <time>2011-10-02T07:45:14Z</time>
      </trkpt>
      <trkpt lat="43.25208" lon="6.50826">
        <ele>25.377125</ele>
        <time>2011-10-02T07:45:19Z</time>
      </trkpt>
      <trkpt lat="43.25177" lon="6.50783">
        <ele>25.672501</ele>
        <time>2011-10-02T07:45:26Z</time>
      </trkpt>
      <trkpt lat="43.25158" lon="6.50755">
        <ele>25.725</ele>
        <time>2011-10-02T07:45:31Z</time>
      </trkpt>
      <trkpt lat="43.25162" lon="6.50715">
        <ele>24.40745</ele>
        <time>2011-10-02T07:45:38Z</time>
      </trkpt>
      <trkpt lat="43.25194" lon="6.50677">
        <ele>23.070126</ele>
        <time>2011-10-02T07:45:46Z</time>
      </trkpt>
      <trkpt lat="43.25202" lon="6.50666">
        <ele>22.942499</ele>
        <time>2011-10-02T07:45:48Z</time>
      </trkpt>
      <trkpt lat="43.25209" lon="6.5064">
        <ele>22.807501</ele>
        <time>2011-10-02T07:45:52Z</time>
      </trkpt>
      <trkpt lat="43.2521" lon="6.50571">
        <ele>23.0425</ele>
        <time>2011-10-02T07:46:01Z</time>
      </trkpt>
      <trkpt lat="43.25223" lon="6.50529">
        <ele>23.7325</ele>
        <time>2011-10-02T07:46:07Z</time>
      </trkpt>
      <trkpt lat="43.25238" lon="6.50471">
        <ele>24.69125</ele>
        <time>2011-10-02T07:46:16Z</time>
      </trkpt>
      <trkpt lat="43.25248" lon="6.50443">
        <ele>25.018005</ele>
        <time>2011-10-02T07:46:21Z</time>
      </trkpt>
      <trkpt lat="43.25251" lon="6.50419">
        <ele>25.030251</ele>
        <time>2011-10-02T07:46:25Z</time>
      </trkpt>
      <trkpt lat="43.25264" lon="6.50322">
        <ele>26</ele>
        <time>2011-10-02T07:46:40Z</time>
      </trkpt>
      <trkpt lat="43.25285" lon="6.50225">
        <ele>26.754999</ele>
        <time>2011-10-02T07:46:55Z</time>
      </trkpt>
      <trkpt lat="43.25287" lon="6.50211">
        <ele>26.969999</ele>
        <time>2011-10-02T07:46:57Z</time>
      </trkpt>
      <trkpt lat="43.25289" lon="6.50199">
        <ele>27.108</ele>
        <time>2011-10-02T07:46:59Z</time>
      </trkpt>
      <trkpt lat="43.25295" lon="6.50154">
        <ele>27.636234</ele>
        <time>2011-10-02T07:47:06Z</time>
      </trkpt>
      <trkpt lat="43.25298" lon="6.5013">
        <ele>27.823412</ele>
        <time>2011-10-02T07:47:10Z</time>
      </trkpt>
      <trkpt lat="43.25313" lon="6.50068">
        <ele>28.362976</ele>
        <time>2011-10-02T07:47:22Z</time>
      </trkpt>
      <trkpt lat="43.25322" lon="6.50037">
        <ele>29.195391</ele>
        <time>2011-10-02T07:47:28Z</time>
      </trkpt>
      <trkpt lat="43.25332" lon="6.50007">
        <ele>30.108749</ele>
        <time>2011-10-02T07:47:34Z</time>
      </trkpt>
      <trkpt lat="43.25374" lon="6.4994">
        <ele>32.817501</ele>
        <time>2011-10-02T07:47:51Z</time>
      </trkpt>
      <trkpt lat="43.25396" lon="6.49965">
        <ele>34.310001</ele>
        <time>2011-10-02T07:47:59Z</time>
      </trkpt>
      <trkpt lat="43.25408" lon="6.4997">
        <ele>35.209999</ele>
        <time>2011-10-02T07:48:04Z</time>
      </trkpt>
      <trkpt lat="43.25445" lon="6.49982">
        <ele>38.397499</ele>
        <time>2011-10-02T07:48:20Z</time>
      </trkpt>
      <trkpt lat="43.25477" lon="6.49978">
        <ele>41.355</ele>
        <time>2011-10-02T07:48:35Z</time>
      </trkpt>
      <trkpt lat="43.25494" lon="6.49975">
        <ele>42.865364</ele>
        <time>2011-10-02T07:48:42Z</time>
      </trkpt>
      <trkpt lat="43.255" lon="6.49968">
        <ele>43.675846</ele>
        <time>2011-10-02T07:48:46Z</time>
      </trkpt>
      <trkpt lat="43.2552" lon="6.49909">
        <ele>46.054676</ele>
        <time>2011-10-02T07:49:05Z</time>
      </trkpt>
      <trkpt lat="43.25542" lon="6.49866">
        <ele>46.850853</ele>
        <time>2011-10-02T07:49:19Z</time>
      </trkpt>
      <trkpt lat="43.25554" lon="6.49854">
        <ele>48.1175</ele>
        <time>2011-10-02T07:49:25Z</time>
      </trkpt>
      <trkpt lat="43.25582" lon="6.49856">
        <ele>52.584999</ele>
        <time>2011-10-02T07:49:40Z</time>
      </trkpt>
      <trkpt lat="43.25602" lon="6.49859">
        <ele>56.057499</ele>
        <time>2011-10-02T07:49:53Z</time>
      </trkpt>
      <trkpt lat="43.25614" lon="6.49872">
        <ele>58.289875</ele>
        <time>2011-10-02T07:50:03Z</time>
      </trkpt>
      <trkpt lat="43.25616" lon="6.49874">
        <ele>58.711094</ele>
        <time>2011-10-02T07:50:05Z</time>
      </trkpt>
      <trkpt lat="43.25629" lon="6.49883">
        <ele>60.765812</ele>
        <time>2011-10-02T07:50:14Z</time>
      </trkpt>
      <trkpt lat="43.25651" lon="6.49893">
        <ele>63.576824</ele>
        <time>2011-10-02T07:50:29Z</time>
      </trkpt>
      <trkpt lat="43.25657" lon="6.49895">
        <ele>64.105232</ele>
        <time>2011-10-02T07:50:32Z</time>
      </trkpt>
      <trkpt lat="43.25662" lon="6.49899">
        <ele>64.624573</ele>
        <time>2011-10-02T07:50:36Z</time>
      </trkpt>
      <trkpt lat="43.25678" lon="6.49913">
        <ele>65.856049</ele>
        <time>2011-10-02T07:50:49Z</time>
      </trkpt>
      <trkpt lat="43.25686" lon="6.49918">
        <ele>65.619446</ele>
        <time>2011-10-02T07:50:55Z</time>
      </trkpt>
      <trkpt lat="43.25699" lon="6.49909">
        <ele>66.340446</ele>
        <time>2011-10-02T07:51:05Z</time>
      </trkpt>
      <trkpt lat="43.25711" lon="6.49885">
        <ele>68.835876</ele>
        <time>2011-10-02T07:51:19Z</time>
      </trkpt>
      <trkpt lat="43.25722" lon="6.49854">
        <ele>71.035027</ele>
        <time>2011-10-02T07:51:36Z</time>
      </trkpt>
      <trkpt lat="43.25734" lon="6.49823">
        <ele>71.655624</ele>
        <time>2011-10-02T07:51:50Z</time>
      </trkpt>
      <trkpt lat="43.25742" lon="6.49804">
        <ele>72.078583</ele>
        <time>2011-10-02T07:51:58Z</time>
      </trkpt>
      <trkpt lat="43.25749" lon="6.49792">
        <ele>72.294403</ele>
        <time>2011-10-02T07:52:04Z</time>
      </trkpt>
      <trkpt lat="43.25775" lon="6.49766">
        <ele>73.564247</ele>
        <time>2011-10-02T07:52:18Z</time>
      </trkpt>
      <trkpt lat="43.25787" lon="6.49751">
        <ele>74.02066</ele>
        <time>2011-10-02T07:52:22Z</time>
      </trkpt>
      <trkpt lat="43.25838" lon="6.4971">
        <ele>75.569603</ele>
        <time>2011-10-02T07:52:31Z</time>
      </trkpt>
      <trkpt lat="43.25878" lon="6.49694">
        <ele>76.744751</ele>
        <time>2011-10-02T07:52:39Z</time>
      </trkpt>
      <trkpt lat="43.25887" lon="6.49687">
        <ele>76.703583</ele>
        <time>2011-10-02T07:52:41Z</time>
      </trkpt>
      <trkpt lat="43.25903" lon="6.49671">
        <ele>77.239128</ele>
        <time>2011-10-02T07:52:45Z</time>
      </trkpt>
      <trkpt lat="43.2592" lon="6.49661">
        <ele>77.409119</ele>
        <time>2011-10-02T07:52:49Z</time>
      </trkpt>
      <trkpt lat="43.25937" lon="6.4965">
        <ele>76.936874</ele>
        <time>2011-10-02T07:52:53Z</time>
      </trkpt>
      <trkpt lat="43.25965" lon="6.49634">
        <ele>75.6129</ele>
        <time>2011-10-02T07:52:59Z</time>
      </trkpt>
      <trkpt lat="43.26008" lon="6.49623">
        <ele>74.512505</ele>
        <time>2011-10-02T07:53:08Z</time>
      </trkpt>
      <trkpt lat="43.26033" lon="6.49607">
        <ele>75.512604</ele>
        <time>2011-10-02T07:53:14Z</time>
      </trkpt>
      <trkpt lat="43.2605" lon="6.49607">
        <ele>75.993477</ele>
        <time>2011-10-02T07:53:18Z</time>
      </trkpt>
      <trkpt lat="43.26062" lon="6.49613">
        <ele>76.927185</ele>
        <time>2011-10-02T07:53:21Z</time>
      </trkpt>
      <trkpt lat="43.26073" lon="6.49621">
        <ele>77.82975</ele>
        <time>2011-10-02T07:53:24Z</time>
      </trkpt>
      <trkpt lat="43.26087" lon="6.4962">
        <ele>78.8797</ele>
        <time>2011-10-02T07:53:29Z</time>
      </trkpt>
      <trkpt lat="43.26097" lon="6.49613">
        <ele>79.494621</ele>
        <time>2011-10-02T07:53:33Z</time>
      </trkpt>
      <trkpt lat="43.26106" lon="6.49622">
        <ele>80.221947</ele>
        <time>2011-10-02T07:53:38Z</time>
      </trkpt>
      <trkpt lat="43.26113" lon="6.49645">
        <ele>81.447983</ele>
        <time>2011-10-02T07:53:48Z</time>
      </trkpt>
      <trkpt lat="43.26134" lon="6.49668">
        <ele>83.863823</ele>
        <time>2011-10-02T07:53:58Z</time>
      </trkpt>
      <trkpt lat="43.26138" lon="6.4967">
        <ele>84.261803</ele>
        <time>2011-10-02T07:54:00Z</time>
      </trkpt>
      <trkpt lat="43.26149" lon="6.49673">
        <ele>84.660896</ele>
        <time>2011-10-02T07:54:05Z</time>
      </trkpt>
      <trkpt lat="43.26179" lon="6.49683">
        <ele>86.047966</ele>
        <time>2011-10-02T07:54:16Z</time>
      </trkpt>
      <trkpt lat="43.26182" lon="6.49684">
        <ele>86.219322</ele>
        <time>2011-10-02T07:54:17Z</time>
      </trkpt>
      <trkpt lat="43.26211" lon="6.49724">
        <ele>89.396065</ele>
        <time>2011-10-02T07:54:28Z</time>
      </trkpt>
      <trkpt lat="43.26213" lon="6.49728">
        <ele>89.607407</ele>
        <time>2011-10-02T07:54:29Z</time>
      </trkpt>
      <trkpt lat="43.26223" lon="6.49775">
        <ele>91.666168</ele>
        <time>2011-10-02T07:54:40Z</time>
      </trkpt>
      <trkpt lat="43.2624" lon="6.49839">
        <ele>91.930901</ele>
        <time>2011-10-02T07:54:54Z</time>
      </trkpt>
      <trkpt lat="43.26264" lon="6.49842">
        <ele>92.924797</ele>
        <time>2011-10-02T07:55:02Z</time>
      </trkpt>
      <trkpt lat="43.26274" lon="6.49837">
        <ele>93.391273</ele>
        <time>2011-10-02T07:55:05Z</time>
      </trkpt>
      <trkpt lat="43.26312" lon="6.49806">
        <ele>92.920998</ele>
        <time>2011-10-02T07:55:17Z</time>
      </trkpt>
      <trkpt lat="43.26337" lon="6.49791">
        <ele>91.247742</ele>
        <time>2011-10-02T07:55:23Z</time>
      </trkpt>
      <trkpt lat="43.26347" lon="6.49784">
        <ele>90.332291</ele>
        <time>2011-10-02T07:55:25Z</time>
      </trkpt>
      <trkpt lat="43.26369" lon="6.49779">
        <ele>88.62011</ele>
        <time>2011-10-02T07:55:31Z</time>
      </trkpt>
      <trkpt lat="43.2639" lon="6.49788">
        <ele>87.85614</ele>
        <time>2011-10-02T07:55:38Z</time>
      </trkpt>
      <trkpt lat="43.26419" lon="6.49798">
        <ele>87.409241</ele>
        <time>2011-10-02T07:55:46Z</time>
      </trkpt>
      <trkpt lat="43.26425" lon="6.49811">
        <ele>88.543976</ele>
        <time>2011-10-02T07:55:52Z</time>
      </trkpt>
      <trkpt lat="43.26429" lon="6.49825">
        <ele>89.737053</ele>
        <time>2011-10-02T07:55:57Z</time>
      </trkpt>
      <trkpt lat="43.26437" lon="6.49838">
        <ele>90.497543</ele>
        <time>2011-10-02T07:56:04Z</time>
      </trkpt>
      <trkpt lat="43.26441" lon="6.49839">
        <ele>90.356499</ele>
        <time>2011-10-02T07:56:06Z</time>
      </trkpt>
      <trkpt lat="43.26458" lon="6.49848">
        <ele>90.613998</ele>
        <time>2011-10-02T07:56:15Z</time>
      </trkpt>
      <trkpt lat="43.26469" lon="6.49856">
        <ele>91.281746</ele>
        <time>2011-10-02T07:56:23Z</time>
      </trkpt>
      <trkpt lat="43.26481" lon="6.49867">
        <ele>92.325706</ele>
        <time>2011-10-02T07:56:32Z</time>
      </trkpt>
      <trkpt lat="43.26489" lon="6.49872">
        <ele>92.998962</ele>
        <time>2011-10-02T07:56:38Z</time>
      </trkpt>
      <trkpt lat="43.26493" lon="6.4988">
        <ele>94.66375</ele>
        <time>2011-10-02T07:56:43Z</time>
      </trkpt>
      <trkpt lat="43.26498" lon="6.49886">
        <ele>95.887497</ele>
        <time>2011-10-02T07:56:46Z</time>
      </trkpt>
      <trkpt lat="43.26504" lon="6.49893">
        <ele>97.287498</ele>
        <time>2011-10-02T07:56:50Z</time>
      </trkpt>
      <trkpt lat="43.26521" lon="6.49896">
        <ele>98.459999</ele>
        <time>2011-10-02T07:56:59Z</time>
      </trkpt>
      <trkpt lat="43.26526" lon="6.49898">
        <ele>98.828751</ele>
        <time>2011-10-02T07:57:01Z</time>
      </trkpt>
      <trkpt lat="43.26552" lon="6.49901">
        <ele>100.497803</ele>
        <time>2011-10-02T07:57:14Z</time>
      </trkpt>
      <trkpt lat="43.26559" lon="6.49901">
        <ele>100.846779</ele>
        <time>2011-10-02T07:57:17Z</time>
      </trkpt>
      <trkpt lat="43.26578" lon="6.49902">
        <ele>101.831139</ele>
        <time>2011-10-02T07:57:23Z</time>
      </trkpt>
      <trkpt lat="43.26601" lon="6.49911">
        <ele>104.004997</ele>
        <time>2011-10-02T07:57:30Z</time>
      </trkpt>
      <trkpt lat="43.2661" lon="6.49903">
        <ele>102.962502</ele>
        <time>2011-10-02T07:57:34Z</time>
      </trkpt>
      <trkpt lat="43.26627" lon="6.49905">
        <ele>103.709312</ele>
        <time>2011-10-02T07:57:44Z</time>
      </trkpt>
      <trkpt lat="43.26649" lon="6.49908">
        <ele>103.43644</ele>
        <time>2011-10-02T07:57:54Z</time>
      </trkpt>
      <trkpt lat="43.26678" lon="6.49917">
        <ele>103.791626</ele>
        <time>2011-10-02T07:58:02Z</time>
      </trkpt>
      <trkpt lat="43.26699" lon="6.49916">
        <ele>101.986946</ele>
        <time>2011-10-02T07:58:06Z</time>
      </trkpt>
      <trkpt lat="43.26721" lon="6.49907">
        <ele>98.393761</ele>
        <time>2011-10-02T07:58:10Z</time>
      </trkpt>
      <trkpt lat="43.2672" lon="6.49872">
        <ele>92.132523</ele>
        <time>2011-10-02T07:58:19Z</time>
      </trkpt>
      <trkpt lat="43.26737" lon="6.49856">
        <ele>87.437378</ele>
        <time>2011-10-02T07:58:26Z</time>
      </trkpt>
      <trkpt lat="43.26732" lon="6.49829">
        <ele>81.547768</ele>
        <time>2011-10-02T07:58:33Z</time>
      </trkpt>
      <trkpt lat="43.26741" lon="6.49821">
        <ele>79.59375</ele>
        <time>2011-10-02T07:58:36Z</time>
      </trkpt>
      <trkpt lat="43.26752" lon="6.49802">
        <ele>75.563751</ele>
        <time>2011-10-02T07:58:46Z</time>
      </trkpt>
      <trkpt lat="43.26753" lon="6.49798">
        <ele>74.653748</ele>
        <time>2011-10-02T07:58:52Z</time>
      </trkpt>
      <trkpt lat="43.26757" lon="6.4978">
        <ele>70.786247</ele>
        <time>2011-10-02T07:59:00Z</time>
      </trkpt>
      <trkpt lat="43.26755" lon="6.49774">
        <ele>69.518753</ele>
        <time>2011-10-02T07:59:02Z</time>
      </trkpt>
      <trkpt lat="43.26754" lon="6.49733">
        <ele>61.389999</ele>
        <time>2011-10-02T07:59:10Z</time>
      </trkpt>
      <trkpt lat="43.26753" lon="6.49721">
        <ele>59.035</ele>
        <time>2011-10-02T07:59:12Z</time>
      </trkpt>
      <trkpt lat="43.26761" lon="6.49701">
        <ele>55</ele>
        <time>2011-10-02T07:59:16Z</time>
      </trkpt>
      <trkpt lat="43.26743" lon="6.49676">
        <ele>50.543953</ele>
        <time>2011-10-02T07:59:23Z</time>
      </trkpt>
      <trkpt lat="43.26731" lon="6.49678">
        <ele>51.247162</ele>
        <time>2011-10-02T07:59:26Z</time>
      </trkpt>
      <trkpt lat="43.26705" lon="6.49682">
        <ele>52.031376</ele>
        <time>2011-10-02T07:59:33Z</time>
      </trkpt>
      <trkpt lat="43.26687" lon="6.49673">
        <ele>50.510468</ele>
        <time>2011-10-02T07:59:36Z</time>
      </trkpt>
      <trkpt lat="43.26647" lon="6.49663">
        <ele>49.825237</ele>
        <time>2011-10-02T07:59:43Z</time>
      </trkpt>
      <trkpt lat="43.26646" lon="6.49643">
        <ele>47.147999</ele>
        <time>2011-10-02T07:59:49Z</time>
      </trkpt>
      <trkpt lat="43.26654" lon="6.49636">
        <ele>45.756374</ele>
        <time>2011-10-02T07:59:58Z</time>
      </trkpt>
      <trkpt lat="43.26659" lon="6.49641">
        <ele>46.196724</ele>
        <time>2011-10-02T08:00:15Z</time>
      </trkpt>
      <trkpt lat="43.26659" lon="6.49641">
        <ele>46.131001</ele>
        <time>2011-10-02T08:00:18Z</time>
      </trkpt>
      <trkpt lat="43.26657" lon="6.49638">
        <ele>45.918152</ele>
        <time>2011-10-02T08:00:38Z</time>
      </trkpt>
      <trkpt lat="43.26657" lon="6.49641">
        <ele>46.243912</ele>
        <time>2011-10-02T08:01:05Z</time>
      </trkpt>
      <trkpt lat="43.26656" lon="6.49641">
        <ele>46.292175</ele>
        <time>2011-10-02T08:03:02Z</time>
      </trkpt>
      <trkpt lat="43.26673" lon="6.49631">
        <ele>44.497749</ele>
        <time>2011-10-02T08:03:08Z</time>
      </trkpt>
      <trkpt lat="43.26686" lon="6.49626">
        <ele>44.584099</ele>
        <time>2011-10-02T08:03:11Z</time>
      </trkpt>
      <trkpt lat="43.26722" lon="6.496">
        <ele>43.074074</ele>
        <time>2011-10-02T08:03:18Z</time>
      </trkpt>
      <trkpt lat="43.2674" lon="6.49589">
        <ele>41.282772</ele>
        <time>2011-10-02T08:03:21Z</time>
      </trkpt>
      <trkpt lat="43.26762" lon="6.49572">
        <ele>39.694248</ele>
        <time>2011-10-02T08:03:25Z</time>
      </trkpt>
      <trkpt lat="43.26779" lon="6.49563">
        <ele>40.020607</ele>
        <time>2011-10-02T08:03:28Z</time>
      </trkpt>
      <trkpt lat="43.26805" lon="6.49555">
        <ele>40.062473</ele>
        <time>2011-10-02T08:03:33Z</time>
      </trkpt>
      <trkpt lat="43.26819" lon="6.49553">
        <ele>39.726265</ele>
        <time>2011-10-02T08:03:36Z</time>
      </trkpt>
      <trkpt lat="43.26846" lon="6.49537">
        <ele>40.209686</ele>
        <time>2011-10-02T08:03:42Z</time>
      </trkpt>
      <trkpt lat="43.26869" lon="6.49516">
        <ele>41.112499</ele>
        <time>2011-10-02T08:03:48Z</time>
      </trkpt>
      <trkpt lat="43.26893" lon="6.49512">
        <ele>39.53125</ele>
        <time>2011-10-02T08:03:53Z</time>
      </trkpt>
      <trkpt lat="43.2693" lon="6.49516">
        <ele>36.862175</ele>
        <time>2011-10-02T08:04:02Z</time>
      </trkpt>
      <trkpt lat="43.26944" lon="6.49507">
        <ele>36.692001</ele>
        <time>2011-10-02T08:04:06Z</time>
      </trkpt>
      <trkpt lat="43.26952" lon="6.49469">
        <ele>38.25462</ele>
        <time>2011-10-02T08:04:14Z</time>
      </trkpt>
      <trkpt lat="43.26954" lon="6.49459">
        <ele>38.013599</ele>
        <time>2011-10-02T08:04:16Z</time>
      </trkpt>
      <trkpt lat="43.26965" lon="6.49433">
        <ele>36.759064</ele>
        <time>2011-10-02T08:04:21Z</time>
      </trkpt>
      <trkpt lat="43.26969" lon="6.49421">
        <ele>36.345127</ele>
        <time>2011-10-02T08:04:23Z</time>
      </trkpt>
      <trkpt lat="43.26968" lon="6.4937">
        <ele>36.415001</ele>
        <time>2011-10-02T08:04:31Z</time>
      </trkpt>
      <trkpt lat="43.26967" lon="6.49334">
        <ele>36.779999</ele>
        <time>2011-10-02T08:04:37Z</time>
      </trkpt>
      <trkpt lat="43.26971" lon="6.4931">
        <ele>36.958748</ele>
        <time>2011-10-02T08:04:41Z</time>
      </trkpt>
      <trkpt lat="43.26991" lon="6.49285">
        <ele>36.137657</ele>
        <time>2011-10-02T08:04:47Z</time>
      </trkpt>
      <trkpt lat="43.27011" lon="6.49274">
        <ele>34.98</ele>
        <time>2011-10-02T08:04:52Z</time>
      </trkpt>
      <trkpt lat="43.27027" lon="6.49256">
        <ele>34.30875</ele>
        <time>2011-10-02T08:04:56Z</time>
      </trkpt>
      <trkpt lat="43.27051" lon="6.49213">
        <ele>33.573807</ele>
        <time>2011-10-02T08:05:04Z</time>
      </trkpt>
      <trkpt lat="43.27109" lon="6.49161">
        <ele>30.5275</ele>
        <time>2011-10-02T08:05:15Z</time>
      </trkpt>
      <trkpt lat="43.27145" lon="6.49131">
        <ele>28.225</ele>
        <time>2011-10-02T08:05:21Z</time>
      </trkpt>
      <trkpt lat="43.27176" lon="6.49107">
        <ele>27.536249</ele>
        <time>2011-10-02T08:05:29Z</time>
      </trkpt>
      <trkpt lat="43.27177" lon="6.49086">
        <ele>27.870001</ele>
        <time>2011-10-02T08:05:33Z</time>
      </trkpt>
      <trkpt lat="43.27182" lon="6.49046">
        <ele>28.506712</ele>
        <time>2011-10-02T08:05:40Z</time>
      </trkpt>
      <trkpt lat="43.27182" lon="6.49027">
        <ele>28.928165</ele>
        <time>2011-10-02T08:05:43Z</time>
      </trkpt>
      <trkpt lat="43.27185" lon="6.48991">
        <ele>29.650713</ele>
        <time>2011-10-02T08:05:49Z</time>
      </trkpt>
      <trkpt lat="43.27221" lon="6.48895">
        <ele>29.509375</ele>
        <time>2011-10-02T08:06:05Z</time>
      </trkpt>
      <trkpt lat="43.27257" lon="6.48819">
        <ele>27.842501</ele>
        <time>2011-10-02T08:06:17Z</time>
      </trkpt>
      <trkpt lat="43.27263" lon="6.48785">
        <ele>27.74</ele>
        <time>2011-10-02T08:06:22Z</time>
      </trkpt>
      <trkpt lat="43.27246" lon="6.48663">
        <ele>27.888844</ele>
        <time>2011-10-02T08:06:38Z</time>
      </trkpt>
      <trkpt lat="43.27245" lon="6.48648">
        <ele>27.785074</ele>
        <time>2011-10-02T08:06:40Z</time>
      </trkpt>
      <trkpt lat="43.27243" lon="6.48597">
        <ele>28.178751</ele>
        <time>2011-10-02T08:06:47Z</time>
      </trkpt>
      <trkpt lat="43.27248" lon="6.48583">
        <ele>28.2225</ele>
        <time>2011-10-02T08:06:49Z</time>
      </trkpt>
      <trkpt lat="43.27251" lon="6.48525">
        <ele>29.193155</ele>
        <time>2011-10-02T08:07:00Z</time>
      </trkpt>
      <trkpt lat="43.27251" lon="6.48514">
        <ele>29.557812</ele>
        <time>2011-10-02T08:07:10Z</time>
      </trkpt>
      <trkpt lat="43.27252" lon="6.48513">
        <ele>29.482187</ele>
        <time>2011-10-02T08:07:12Z</time>
      </trkpt>
      <trkpt lat="43.27253" lon="6.48509">
        <ele>29.33625</ele>
        <time>2011-10-02T08:07:14Z</time>
      </trkpt>
      <trkpt lat="43.27256" lon="6.48475">
        <ele>29.904369</ele>
        <time>2011-10-02T08:07:24Z</time>
      </trkpt>
      <trkpt lat="43.27255" lon="6.4847">
        <ele>30.238638</ele>
        <time>2011-10-02T08:07:25Z</time>
      </trkpt>
      <trkpt lat="43.27257" lon="6.48449">
        <ele>30.491125</ele>
        <time>2011-10-02T08:07:29Z</time>
      </trkpt>
      <trkpt lat="43.27256" lon="6.48432">
        <ele>30.890078</ele>
        <time>2011-10-02T08:07:32Z</time>
      </trkpt>
      <trkpt lat="43.27257" lon="6.48396">
        <ele>30.151663</ele>
        <time>2011-10-02T08:07:39Z</time>
      </trkpt>
      <trkpt lat="43.27258" lon="6.48393">
        <ele>29.8783</ele>
        <time>2011-10-02T08:07:40Z</time>
      </trkpt>
      <trkpt lat="43.27261" lon="6.48384">
        <ele>29.212318</ele>
        <time>2011-10-02T08:07:49Z</time>
      </trkpt>
      <trkpt lat="43.27272" lon="6.48373">
        <ele>28.2815</ele>
        <time>2011-10-02T08:08:02Z</time>
      </trkpt>
      <trkpt lat="43.27278" lon="6.48354">
        <ele>28.815596</ele>
        <time>2011-10-02T08:08:12Z</time>
      </trkpt>
      <trkpt lat="43.27275" lon="6.48351">
        <ele>28.765705</ele>
        <time>2011-10-02T08:08:14Z</time>
      </trkpt>
      <trkpt lat="43.2727" lon="6.48341">
        <ele>28.749485</ele>
        <time>2011-10-02T08:08:18Z</time>
      </trkpt>
      <trkpt lat="43.27252" lon="6.4829">
        <ele>29.499769</ele>
        <time>2011-10-02T08:08:32Z</time>
      </trkpt>
      <trkpt lat="43.2724" lon="6.48244">
        <ele>29.351618</ele>
        <time>2011-10-02T08:08:42Z</time>
      </trkpt>
      <trkpt lat="43.2722" lon="6.48201">
        <ele>28.83952</ele>
        <time>2011-10-02T08:08:51Z</time>
      </trkpt>
      <trkpt lat="43.27226" lon="6.48184">
        <ele>29.292582</ele>
        <time>2011-10-02T08:08:56Z</time>
      </trkpt>
      <trkpt lat="43.27287" lon="6.48167">
        <ele>32.187813</ele>
        <time>2011-10-02T08:09:14Z</time>
      </trkpt>
      <trkpt lat="43.27322" lon="6.48159">
        <ele>34.497749</ele>
        <time>2011-10-02T08:09:26Z</time>
      </trkpt>
      <trkpt lat="43.2735" lon="6.48161">
        <ele>35.896011</ele>
        <time>2011-10-02T08:09:37Z</time>
      </trkpt>
      <trkpt lat="43.27382" lon="6.48179">
        <ele>37.206249</ele>
        <time>2011-10-02T08:09:49Z</time>
      </trkpt>
      <trkpt lat="43.27421" lon="6.48174">
        <ele>39.05875</ele>
        <time>2011-10-02T08:10:03Z</time>
      </trkpt>
      <trkpt lat="43.27466" lon="6.48168">
        <ele>41.204998</ele>
        <time>2011-10-02T08:10:19Z</time>
      </trkpt>
      <trkpt lat="43.27475" lon="6.48167">
        <ele>41.654999</ele>
        <time>2011-10-02T08:10:23Z</time>
      </trkpt>
      <trkpt lat="43.27483" lon="6.48158">
        <ele>42.1525</ele>
        <time>2011-10-02T08:10:27Z</time>
      </trkpt>
      <trkpt lat="43.27528" lon="6.48088">
        <ele>43.110001</ele>
        <time>2011-10-02T08:10:46Z</time>
      </trkpt>
      <trkpt lat="43.27576" lon="6.48002">
        <ele>44.846691</ele>
        <time>2011-10-02T08:11:06Z</time>
      </trkpt>
      <trkpt lat="43.27581" lon="6.47993">
        <ele>45.032963</ele>
        <time>2011-10-02T08:11:08Z</time>
      </trkpt>
      <trkpt lat="43.27595" lon="6.47974">
        <ele>45.856094</ele>
        <time>2011-10-02T08:11:13Z</time>
      </trkpt>
      <trkpt lat="43.27635" lon="6.47962">
        <ele>49.394501</ele>
        <time>2011-10-02T08:11:26Z</time>
      </trkpt>
      <trkpt lat="43.2767" lon="6.47963">
        <ele>52.155445</ele>
        <time>2011-10-02T08:11:39Z</time>
      </trkpt>
      <trkpt lat="43.27682" lon="6.47955">
        <ele>53.338951</ele>
        <time>2011-10-02T08:11:44Z</time>
      </trkpt>
      <trkpt lat="43.27686" lon="6.47929">
        <ele>54.370625</ele>
        <time>2011-10-02T08:11:51Z</time>
      </trkpt>
      <trkpt lat="43.27679" lon="6.47874">
        <ele>56.108238</ele>
        <time>2011-10-02T08:12:06Z</time>
      </trkpt>
      <trkpt lat="43.27672" lon="6.47825">
        <ele>58.768749</ele>
        <time>2011-10-02T08:12:20Z</time>
      </trkpt>
      <trkpt lat="43.27671" lon="6.47823">
        <ele>58.884998</ele>
        <time>2011-10-02T08:12:21Z</time>
      </trkpt>
      <trkpt lat="43.27665" lon="6.47792">
        <ele>60.535324</ele>
        <time>2011-10-02T08:12:31Z</time>
      </trkpt>
      <trkpt lat="43.27664" lon="6.4778">
        <ele>61.024765</ele>
        <time>2011-10-02T08:12:35Z</time>
      </trkpt>
      <trkpt lat="43.27659" lon="6.47714">
        <ele>62.981625</ele>
        <time>2011-10-02T08:12:50Z</time>
      </trkpt>
      <trkpt lat="43.27649" lon="6.4764">
        <ele>65.16494</ele>
        <time>2011-10-02T08:13:05Z</time>
      </trkpt>
      <trkpt lat="43.27633" lon="6.47573">
        <ele>65.51004</ele>
        <time>2011-10-02T08:13:18Z</time>
      </trkpt>
      <trkpt lat="43.27629" lon="6.4751">
        <ele>66.790382</ele>
        <time>2011-10-02T08:13:31Z</time>
      </trkpt>
      <trkpt lat="43.27631" lon="6.47485">
        <ele>67.848373</ele>
        <time>2011-10-02T08:13:36Z</time>
      </trkpt>
      <trkpt lat="43.27634" lon="6.47473">
        <ele>67.840271</ele>
        <time>2011-10-02T08:13:38Z</time>
      </trkpt>
      <trkpt lat="43.27677" lon="6.47388">
        <ele>65.384132</ele>
        <time>2011-10-02T08:13:52Z</time>
      </trkpt>
      <trkpt lat="43.27705" lon="6.47341">
        <ele>63.228588</ele>
        <time>2011-10-02T08:13:58Z</time>
      </trkpt>
      <trkpt lat="43.27745" lon="6.47252">
        <ele>57.289299</ele>
        <time>2011-10-02T08:14:08Z</time>
      </trkpt>
      <trkpt lat="43.27752" lon="6.47237">
        <ele>56.989174</ele>
        <time>2011-10-02T08:14:10Z</time>
      </trkpt>
      <trkpt lat="43.27763" lon="6.47204">
        <ele>56.557499</ele>
        <time>2011-10-02T08:14:14Z</time>
      </trkpt>
      <trkpt lat="43.27782" lon="6.47169">
        <ele>59.081562</ele>
        <time>2011-10-02T08:14:20Z</time>
      </trkpt>
      <trkpt lat="43.27804" lon="6.47136">
        <ele>60.912376</ele>
        <time>2011-10-02T08:14:30Z</time>
      </trkpt>
      <trkpt lat="43.27822" lon="6.47093">
        <ele>65.040367</ele>
        <time>2011-10-02T08:14:43Z</time>
      </trkpt>
      <trkpt lat="43.2785" lon="6.47057">
        <ele>67.801422</ele>
        <time>2011-10-02T08:14:55Z</time>
      </trkpt>
      <trkpt lat="43.2787" lon="6.47028">
        <ele>67.804688</ele>
        <time>2011-10-02T08:15:08Z</time>
      </trkpt>
      <trkpt lat="43.27883" lon="6.46994">
        <ele>68.598282</ele>
        <time>2011-10-02T08:15:23Z</time>
      </trkpt>
      <trkpt lat="43.27894" lon="6.46964">
        <ele>71.6343</ele>
        <time>2011-10-02T08:15:35Z</time>
      </trkpt>
      <trkpt lat="43.27897" lon="6.46932">
        <ele>75.065903</ele>
        <time>2011-10-02T08:15:46Z</time>
      </trkpt>
      <trkpt lat="43.27897" lon="6.46929">
        <ele>75.375198</ele>
        <time>2011-10-02T08:15:47Z</time>
      </trkpt>
      <trkpt lat="43.27893" lon="6.46909">
        <ele>76.976509</ele>
        <time>2011-10-02T08:15:54Z</time>
      </trkpt>
      <trkpt lat="43.27898" lon="6.46873">
        <ele>80.357498</ele>
        <time>2011-10-02T08:16:07Z</time>
      </trkpt>
      <trkpt lat="43.27899" lon="6.46858">
        <ele>81.025002</ele>
        <time>2011-10-02T08:16:13Z</time>
      </trkpt>
      <trkpt lat="43.27904" lon="6.46843">
        <ele>82.197502</ele>
        <time>2011-10-02T08:16:20Z</time>
      </trkpt>
      <trkpt lat="43.27917" lon="6.46806">
        <ele>84.392502</ele>
        <time>2011-10-02T08:16:33Z</time>
      </trkpt>
      <trkpt lat="43.27914" lon="6.4679">
        <ele>83.558746</ele>
        <time>2011-10-02T08:16:37Z</time>
      </trkpt>
      <trkpt lat="43.27933" lon="6.46777">
        <ele>86.157501</ele>
        <time>2011-10-02T08:16:47Z</time>
      </trkpt>
      <trkpt lat="43.27953" lon="6.46765">
        <ele>88.78228</ele>
        <time>2011-10-02T08:16:56Z</time>
      </trkpt>
      <trkpt lat="43.27959" lon="6.4675">
        <ele>89.159279</ele>
        <time>2011-10-02T08:17:01Z</time>
      </trkpt>
      <trkpt lat="43.2797" lon="6.46704">
        <ele>90.255058</ele>
        <time>2011-10-02T08:17:15Z</time>
      </trkpt>
      <trkpt lat="43.27973" lon="6.4668">
        <ele>92.176003</ele>
        <time>2011-10-02T08:17:24Z</time>
      </trkpt>
      <trkpt lat="43.27973" lon="6.46667">
        <ele>92.738937</ele>
        <time>2011-10-02T08:17:29Z</time>
      </trkpt>
      <trkpt lat="43.27973" lon="6.46638">
        <ele>94.139023</ele>
        <time>2011-10-02T08:17:39Z</time>
      </trkpt>
      <trkpt lat="43.27977" lon="6.46602">
        <ele>97.331253</ele>
        <time>2011-10-02T08:17:51Z</time>
      </trkpt>
      <trkpt lat="43.2798" lon="6.4658">
        <ele>99.50676</ele>
        <time>2011-10-02T08:17:59Z</time>
      </trkpt>
      <trkpt lat="43.27984" lon="6.46553">
        <ele>101.58226</ele>
        <time>2011-10-02T08:18:09Z</time>
      </trkpt>
      <trkpt lat="43.27992" lon="6.46518">
        <ele>105.065376</ele>
        <time>2011-10-02T08:18:23Z</time>
      </trkpt>
      <trkpt lat="43.28003" lon="6.46483">
        <ele>107.479347</ele>
        <time>2011-10-02T08:18:37Z</time>
      </trkpt>
      <trkpt lat="43.27997" lon="6.46438">
        <ele>107.650002</ele>
        <time>2011-10-02T08:18:48Z</time>
      </trkpt>
      <trkpt lat="43.27982" lon="6.464">
        <ele>106.718239</ele>
        <time>2011-10-02T08:18:59Z</time>
      </trkpt>
      <trkpt lat="43.27977" lon="6.46381">
        <ele>107.443375</ele>
        <time>2011-10-02T08:19:04Z</time>
      </trkpt>
      <trkpt lat="43.27964" lon="6.46324">
        <ele>108.967957</ele>
        <time>2011-10-02T08:19:17Z</time>
      </trkpt>
      <trkpt lat="43.2796" lon="6.46309">
        <ele>109.177597</ele>
        <time>2011-10-02T08:19:20Z</time>
      </trkpt>
      <trkpt lat="43.27945" lon="6.46233">
        <ele>111.230782</ele>
        <time>2011-10-02T08:19:34Z</time>
      </trkpt>
      <trkpt lat="43.27939" lon="6.46219">
        <ele>110.254387</ele>
        <time>2011-10-02T08:19:37Z</time>
      </trkpt>
      <trkpt lat="43.27923" lon="6.46196">
        <ele>106.894608</ele>
        <time>2011-10-02T08:19:42Z</time>
      </trkpt>
      <trkpt lat="43.27901" lon="6.46149">
        <ele>103.1063</ele>
        <time>2011-10-02T08:19:49Z</time>
      </trkpt>
      <trkpt lat="43.27892" lon="6.46115">
        <ele>102.392906</ele>
        <time>2011-10-02T08:19:53Z</time>
      </trkpt>
      <trkpt lat="43.27878" lon="6.4603">
        <ele>104.884148</ele>
        <time>2011-10-02T08:20:02Z</time>
      </trkpt>
      <trkpt lat="43.2787" lon="6.45991">
        <ele>102.394096</ele>
        <time>2011-10-02T08:20:07Z</time>
      </trkpt>
      <trkpt lat="43.27856" lon="6.45948">
        <ele>96.182388</ele>
        <time>2011-10-02T08:20:13Z</time>
      </trkpt>
      <trkpt lat="43.27852" lon="6.45926">
        <ele>99.949547</ele>
        <time>2011-10-02T08:20:16Z</time>
      </trkpt>
      <trkpt lat="43.27833" lon="6.45912">
        <ele>105.838326</ele>
        <time>2011-10-02T08:20:22Z</time>
      </trkpt>
      <trkpt lat="43.27832" lon="6.45921">
        <ele>105.931938</ele>
        <time>2011-10-02T08:20:24Z</time>
      </trkpt>
      <trkpt lat="43.27832" lon="6.45981">
        <ele>104.766525</ele>
        <time>2011-10-02T08:20:39Z</time>
      </trkpt>
      <trkpt lat="43.2783" lon="6.46024">
        <ele>107.089554</ele>
        <time>2011-10-02T08:20:52Z</time>
      </trkpt>
      <trkpt lat="43.27829" lon="6.46062">
        <ele>111.192497</ele>
        <time>2011-10-02T08:21:04Z</time>
      </trkpt>
      <trkpt lat="43.2783" lon="6.46107">
        <ele>112.051247</ele>
        <time>2011-10-02T08:21:18Z</time>
      </trkpt>
      <trkpt lat="43.27823" lon="6.46144">
        <ele>115.313759</ele>
        <time>2011-10-02T08:21:30Z</time>
      </trkpt>
      <trkpt lat="43.2782" lon="6.46181">
        <ele>117.119492</ele>
        <time>2011-10-02T08:21:42Z</time>
      </trkpt>
      <trkpt lat="43.27821" lon="6.46228">
        <ele>119.515312</ele>
        <time>2011-10-02T08:21:56Z</time>
      </trkpt>
      <trkpt lat="43.27831" lon="6.46272">
        <ele>120.252258</ele>
        <time>2011-10-02T08:22:12Z</time>
      </trkpt>
      <trkpt lat="43.2783" lon="6.46305">
        <ele>120.741844</ele>
        <time>2011-10-02T08:22:25Z</time>
      </trkpt>
      <trkpt lat="43.27817" lon="6.46334">
        <ele>126.52697</ele>
        <time>2011-10-02T08:22:38Z</time>
      </trkpt>
      <trkpt lat="43.27809" lon="6.46344">
        <ele>129.44278</ele>
        <time>2011-10-02T08:22:43Z</time>
      </trkpt>
      <trkpt lat="43.27803" lon="6.46375">
        <ele>130.089493</ele>
        <time>2011-10-02T08:22:54Z</time>
      </trkpt>
      <trkpt lat="43.27794" lon="6.46413">
        <ele>131.610001</ele>
        <time>2011-10-02T08:23:09Z</time>
      </trkpt>
      <trkpt lat="43.27782" lon="6.46447">
        <ele>134.183746</ele>
        <time>2011-10-02T08:23:23Z</time>
      </trkpt>
      <trkpt lat="43.27762" lon="6.46479">
        <ele>137.821793</ele>
        <time>2011-10-02T08:23:38Z</time>
      </trkpt>
      <trkpt lat="43.27743" lon="6.46501">
        <ele>140.875458</ele>
        <time>2011-10-02T08:23:51Z</time>
      </trkpt>
      <trkpt lat="43.27718" lon="6.46521">
        <ele>144.621521</ele>
        <time>2011-10-02T08:24:05Z</time>
      </trkpt>
      <trkpt lat="43.27691" lon="6.46549">
        <ele>144.990204</ele>
        <time>2011-10-02T08:24:20Z</time>
      </trkpt>
      <trkpt lat="43.27657" lon="6.46573">
        <ele>147.621429</ele>
        <time>2011-10-02T08:24:37Z</time>
      </trkpt>
      <trkpt lat="43.27629" lon="6.46584">
        <ele>150.887207</ele>
        <time>2011-10-02T08:24:51Z</time>
      </trkpt>
      <trkpt lat="43.27598" lon="6.46597">
        <ele>152.916336</ele>
        <time>2011-10-02T08:25:06Z</time>
      </trkpt>
      <trkpt lat="43.27567" lon="6.46607">
        <ele>151.952194</ele>
        <time>2011-10-02T08:25:21Z</time>
      </trkpt>
      <trkpt lat="43.27563" lon="6.46608">
        <ele>151.994751</ele>
        <time>2011-10-02T08:25:23Z</time>
      </trkpt>
      <trkpt lat="43.27554" lon="6.46608">
        <ele>152.720001</ele>
        <time>2011-10-02T08:25:27Z</time>
      </trkpt>
      <trkpt lat="43.27527" lon="6.46597">
        <ele>160.827499</ele>
        <time>2011-10-02T08:25:42Z</time>
      </trkpt>
      <trkpt lat="43.27496" lon="6.46603">
        <ele>164.629379</ele>
        <time>2011-10-02T08:25:57Z</time>
      </trkpt>
      <trkpt lat="43.27465" lon="6.46636">
        <ele>163.174622</ele>
        <time>2011-10-02T08:26:15Z</time>
      </trkpt>
      <trkpt lat="43.27437" lon="6.46652">
        <ele>161.624359</ele>
        <time>2011-10-02T08:26:30Z</time>
      </trkpt>
      <trkpt lat="43.27413" lon="6.46629">
        <ele>164.991638</ele>
        <time>2011-10-02T08:26:44Z</time>
      </trkpt>
      <trkpt lat="43.27403" lon="6.46596">
        <ele>166.980255</ele>
        <time>2011-10-02T08:26:58Z</time>
      </trkpt>
      <trkpt lat="43.27404" lon="6.4656">
        <ele>170.070862</ele>
        <time>2011-10-02T08:27:13Z</time>
      </trkpt>
      <trkpt lat="43.2741" lon="6.46532">
        <ele>172.159256</ele>
        <time>2011-10-02T08:27:25Z</time>
      </trkpt>
      <trkpt lat="43.2742" lon="6.46505">
        <ele>173.160828</ele>
        <time>2011-10-02T08:27:37Z</time>
      </trkpt>
      <trkpt lat="43.27434" lon="6.46495">
        <ele>176.779175</ele>
        <time>2011-10-02T08:27:46Z</time>
      </trkpt>
      <trkpt lat="43.27441" lon="6.46492">
        <ele>178.480652</ele>
        <time>2011-10-02T08:27:50Z</time>
      </trkpt>
      <trkpt lat="43.27466" lon="6.46473">
        <ele>183.249832</ele>
        <time>2011-10-02T08:28:06Z</time>
      </trkpt>
      <trkpt lat="43.27485" lon="6.46454">
        <ele>187.016006</ele>
        <time>2011-10-02T08:28:19Z</time>
      </trkpt>
      <trkpt lat="43.27495" lon="6.46424">
        <ele>188.010834</ele>
        <time>2011-10-02T08:28:32Z</time>
      </trkpt>
      <trkpt lat="43.27504" lon="6.46396">
        <ele>187.540619</ele>
        <time>2011-10-02T08:28:44Z</time>
      </trkpt>
      <trkpt lat="43.27521" lon="6.46367">
        <ele>189.920502</ele>
        <time>2011-10-02T08:28:59Z</time>
      </trkpt>
      <trkpt lat="43.27547" lon="6.46357">
        <ele>193.917923</ele>
        <time>2011-10-02T08:29:13Z</time>
      </trkpt>
      <trkpt lat="43.27574" lon="6.46346">
        <ele>198.434158</ele>
        <time>2011-10-02T08:29:26Z</time>
      </trkpt>
      <trkpt lat="43.27587" lon="6.46321">
        <ele>197.216843</ele>
        <time>2011-10-02T08:29:37Z</time>
      </trkpt>
      <trkpt lat="43.27604" lon="6.46285">
        <ele>198.503372</ele>
        <time>2011-10-02T08:29:53Z</time>
      </trkpt>
      <trkpt lat="43.27615" lon="6.4625">
        <ele>201.852264</ele>
        <time>2011-10-02T08:30:07Z</time>
      </trkpt>
      <trkpt lat="43.27615" lon="6.46205">
        <ele>202.494293</ele>
        <time>2011-10-02T08:30:20Z</time>
      </trkpt>
      <trkpt lat="43.27613" lon="6.46157">
        <ele>202.865799</ele>
        <time>2011-10-02T08:30:32Z</time>
      </trkpt>
      <trkpt lat="43.27614" lon="6.46081">
        <ele>201.311676</ele>
        <time>2011-10-02T08:30:48Z</time>
      </trkpt>
      <trkpt lat="43.27609" lon="6.46009">
        <ele>200.500626</ele>
        <time>2011-10-02T08:31:03Z</time>
      </trkpt>
      <trkpt lat="43.27602" lon="6.45968">
        <ele>203.507401</ele>
        <time>2011-10-02T08:31:15Z</time>
      </trkpt>
      <trkpt lat="43.27595" lon="6.45932">
        <ele>207.624985</ele>
        <time>2011-10-02T08:31:28Z</time>
      </trkpt>
      <trkpt lat="43.27584" lon="6.45902">
        <ele>211.890091</ele>
        <time>2011-10-02T08:31:41Z</time>
      </trkpt>
      <trkpt lat="43.27577" lon="6.45866">
        <ele>214.509995</ele>
        <time>2011-10-02T08:31:55Z</time>
      </trkpt>
      <trkpt lat="43.27577" lon="6.45857">
        <ele>215.271317</ele>
        <time>2011-10-02T08:31:59Z</time>
      </trkpt>
      <trkpt lat="43.27576" lon="6.45838">
        <ele>216.811859</ele>
        <time>2011-10-02T08:32:07Z</time>
      </trkpt>
      <trkpt lat="43.27574" lon="6.45824">
        <ele>218.275406</ele>
        <time>2011-10-02T08:32:13Z</time>
      </trkpt>
      <trkpt lat="43.27569" lon="6.45778">
        <ele>221.111496</ele>
        <time>2011-10-02T08:32:30Z</time>
      </trkpt>
      <trkpt lat="43.27565" lon="6.45734">
        <ele>224.114029</ele>
        <time>2011-10-02T08:32:46Z</time>
      </trkpt>
      <trkpt lat="43.27565" lon="6.45701">
        <ele>226.406921</ele>
        <time>2011-10-02T08:32:58Z</time>
      </trkpt>
      <trkpt lat="43.27572" lon="6.45671">
        <ele>229.498001</ele>
        <time>2011-10-02T08:33:11Z</time>
      </trkpt>
      <trkpt lat="43.27581" lon="6.45644">
        <ele>232.738098</ele>
        <time>2011-10-02T08:33:23Z</time>
      </trkpt>
      <trkpt lat="43.27587" lon="6.45611">
        <ele>236.563004</ele>
        <time>2011-10-02T08:33:37Z</time>
      </trkpt>
      <trkpt lat="43.2759" lon="6.45573">
        <ele>240.962494</ele>
        <time>2011-10-02T08:33:51Z</time>
      </trkpt>
      <trkpt lat="43.27591" lon="6.45556">
        <ele>241.440002</ele>
        <time>2011-10-02T08:33:57Z</time>
      </trkpt>
      <trkpt lat="43.27588" lon="6.45527">
        <ele>242.707504</ele>
        <time>2011-10-02T08:34:08Z</time>
      </trkpt>
      <trkpt lat="43.27581" lon="6.45496">
        <ele>244.840515</ele>
        <time>2011-10-02T08:34:22Z</time>
      </trkpt>
      <trkpt lat="43.27584" lon="6.45461">
        <ele>246.528046</ele>
        <time>2011-10-02T08:34:37Z</time>
      </trkpt>
      <trkpt lat="43.27585" lon="6.45459">
        <ele>246.561737</ele>
        <time>2011-10-02T08:34:38Z</time>
      </trkpt>
      <trkpt lat="43.27591" lon="6.4543">
        <ele>249.958755</ele>
        <time>2011-10-02T08:34:52Z</time>
      </trkpt>
      <trkpt lat="43.276" lon="6.45398">
        <ele>254.622498</ele>
        <time>2011-10-02T08:35:07Z</time>
      </trkpt>
      <trkpt lat="43.27616" lon="6.4538">
        <ele>254.681458</ele>
        <time>2011-10-02T08:35:19Z</time>
      </trkpt>
      <trkpt lat="43.27625" lon="6.45356">
        <ele>256.897125</ele>
        <time>2011-10-02T08:35:30Z</time>
      </trkpt>
      <trkpt lat="43.27629" lon="6.4534">
        <ele>259.434082</ele>
        <time>2011-10-02T08:35:37Z</time>
      </trkpt>
      <trkpt lat="43.27636" lon="6.45309">
        <ele>263.409363</ele>
        <time>2011-10-02T08:35:51Z</time>
      </trkpt>
      <trkpt lat="43.27644" lon="6.45274">
        <ele>267.70813</ele>
        <time>2011-10-02T08:36:06Z</time>
      </trkpt>
      <trkpt lat="43.27647" lon="6.45256">
        <ele>270.349792</ele>
        <time>2011-10-02T08:36:14Z</time>
      </trkpt>
      <trkpt lat="43.27651" lon="6.45226">
        <ele>274.910187</ele>
        <time>2011-10-02T08:36:27Z</time>
      </trkpt>
      <trkpt lat="43.27655" lon="6.45213">
        <ele>275.926392</ele>
        <time>2011-10-02T08:36:32Z</time>
      </trkpt>
      <trkpt lat="43.27661" lon="6.45196">
        <ele>277.549286</ele>
        <time>2011-10-02T08:36:40Z</time>
      </trkpt>
      <trkpt lat="43.27669" lon="6.45173">
        <ele>279.791504</ele>
        <time>2011-10-02T08:36:51Z</time>
      </trkpt>
      <trkpt lat="43.27683" lon="6.45149">
        <ele>280.016235</ele>
        <time>2011-10-02T08:37:04Z</time>
      </trkpt>
      <trkpt lat="43.2769" lon="6.45137">
        <ele>280.413757</ele>
        <time>2011-10-02T08:37:10Z</time>
      </trkpt>
      <trkpt lat="43.27695" lon="6.45128">
        <ele>280.832489</ele>
        <time>2011-10-02T08:37:14Z</time>
      </trkpt>
      <trkpt lat="43.27701" lon="6.45116">
        <ele>281.945007</ele>
        <time>2011-10-02T08:37:20Z</time>
      </trkpt>
      <trkpt lat="43.27721" lon="6.45085">
        <ele>284.350494</ele>
        <time>2011-10-02T08:37:36Z</time>
      </trkpt>
      <trkpt lat="43.27734" lon="6.45078">
        <ele>283.048737</ele>
        <time>2011-10-02T08:37:43Z</time>
      </trkpt>
      <trkpt lat="43.27743" lon="6.45071">
        <ele>282.813629</ele>
        <time>2011-10-02T08:37:48Z</time>
      </trkpt>
      <trkpt lat="43.27758" lon="6.45046">
        <ele>285.11499</ele>
        <time>2011-10-02T08:38:01Z</time>
      </trkpt>
      <trkpt lat="43.27762" lon="6.45015">
        <ele>291.957489</ele>
        <time>2011-10-02T08:38:13Z</time>
      </trkpt>
      <trkpt lat="43.27769" lon="6.45">
        <ele>293.415009</ele>
        <time>2011-10-02T08:38:20Z</time>
      </trkpt>
      <trkpt lat="43.27773" lon="6.44996">
        <ele>292.89502</ele>
        <time>2011-10-02T08:38:23Z</time>
      </trkpt>
      <trkpt lat="43.27778" lon="6.44988">
        <ele>293.207489</ele>
        <time>2011-10-02T08:38:27Z</time>
      </trkpt>
      <trkpt lat="43.27792" lon="6.44963">
        <ele>296.038208</ele>
        <time>2011-10-02T08:38:40Z</time>
      </trkpt>
      <trkpt lat="43.27811" lon="6.44954">
        <ele>295.161621</ele>
        <time>2011-10-02T08:38:51Z</time>
      </trkpt>
      <trkpt lat="43.27821" lon="6.4495">
        <ele>294.921936</ele>
        <time>2011-10-02T08:38:57Z</time>
      </trkpt>
      <trkpt lat="43.27842" lon="6.44936">
        <ele>296.752563</ele>
        <time>2011-10-02T08:39:11Z</time>
      </trkpt>
      <trkpt lat="43.27849" lon="6.44927">
        <ele>298.503448</ele>
        <time>2011-10-02T08:39:17Z</time>
      </trkpt>
      <trkpt lat="43.27863" lon="6.44897">
        <ele>303.280121</ele>
        <time>2011-10-02T08:39:29Z</time>
      </trkpt>
      <trkpt lat="43.27865" lon="6.44887">
        <ele>305.279327</ele>
        <time>2011-10-02T08:39:33Z</time>
      </trkpt>
      <trkpt lat="43.27872" lon="6.44868">
        <ele>308.456604</ele>
        <time>2011-10-02T08:39:41Z</time>
      </trkpt>
      <trkpt lat="43.27878" lon="6.44851">
        <ele>310.880737</ele>
        <time>2011-10-02T08:39:49Z</time>
      </trkpt>
      <trkpt lat="43.27886" lon="6.44818">
        <ele>313.823486</ele>
        <time>2011-10-02T08:40:04Z</time>
      </trkpt>
      <trkpt lat="43.27892" lon="6.4479">
        <ele>316.136414</ele>
        <time>2011-10-02T08:40:17Z</time>
      </trkpt>
      <trkpt lat="43.27908" lon="6.44763">
        <ele>316.094604</ele>
        <time>2011-10-02T08:40:29Z</time>
      </trkpt>
      <trkpt lat="43.27919" lon="6.44745">
        <ele>316.379272</ele>
        <time>2011-10-02T08:40:37Z</time>
      </trkpt>
      <trkpt lat="43.27927" lon="6.44732">
        <ele>316.776245</ele>
        <time>2011-10-02T08:40:45Z</time>
      </trkpt>
      <trkpt lat="43.27929" lon="6.44727">
        <ele>317.328735</ele>
        <time>2011-10-02T08:40:47Z</time>
      </trkpt>
      <trkpt lat="43.27936" lon="6.44705">
        <ele>320.140015</ele>
        <time>2011-10-02T08:40:58Z</time>
      </trkpt>
      <trkpt lat="43.27946" lon="6.44684">
        <ele>322.1875</ele>
        <time>2011-10-02T08:41:08Z</time>
      </trkpt>
      <trkpt lat="43.27958" lon="6.44663">
        <ele>324.101288</ele>
        <time>2011-10-02T08:41:17Z</time>
      </trkpt>
      <trkpt lat="43.27972" lon="6.44649">
        <ele>324.497284</ele>
        <time>2011-10-02T08:41:28Z</time>
      </trkpt>
      <trkpt lat="43.27983" lon="6.44638">
        <ele>324.585114</ele>
        <time>2011-10-02T08:41:37Z</time>
      </trkpt>
      <trkpt lat="43.27988" lon="6.44632">
        <ele>324.863159</ele>
        <time>2011-10-02T08:41:41Z</time>
      </trkpt>
      <trkpt lat="43.27996" lon="6.44614">
        <ele>326.679779</ele>
        <time>2011-10-02T08:41:50Z</time>
      </trkpt>
      <trkpt lat="43.28003" lon="6.44596">
        <ele>327.920013</ele>
        <time>2011-10-02T08:41:59Z</time>
      </trkpt>
      <trkpt lat="43.28009" lon="6.44585">
        <ele>328.470001</ele>
        <time>2011-10-02T08:42:15Z</time>
      </trkpt>
      <trkpt lat="43.28011" lon="6.44583">
        <ele>328.320007</ele>
        <time>2011-10-02T08:42:49Z</time>
      </trkpt>
      <trkpt lat="43.28012" lon="6.44577">
        <ele>329.029999</ele>
        <time>2011-10-02T08:47:33Z</time>
      </trkpt>
      <trkpt lat="43.2801" lon="6.4457">
        <ele>330.279999</ele>
        <time>2011-10-02T08:47:45Z</time>
      </trkpt>
      <trkpt lat="43.28012" lon="6.44567">
        <ele>330.23999</ele>
        <time>2011-10-02T08:47:53Z</time>
      </trkpt>
      <trkpt lat="43.28015" lon="6.4457">
        <ele>329.480011</ele>
        <time>2011-10-02T08:48:35Z</time>
      </trkpt>
      <trkpt lat="43.28014" lon="6.44564">
        <ele>330.48999</ele>
        <time>2011-10-02T08:48:43Z</time>
      </trkpt>
      <trkpt lat="43.28015" lon="6.44557">
        <ele>331.238159</ele>
        <time>2011-10-02T08:48:47Z</time>
      </trkpt>
      <trkpt lat="43.28016" lon="6.44548">
        <ele>332.019745</ele>
        <time>2011-10-02T08:48:52Z</time>
      </trkpt>
      <trkpt lat="43.28018" lon="6.44538">
        <ele>332.794952</ele>
        <time>2011-10-02T08:48:57Z</time>
      </trkpt>
      <trkpt lat="43.2802" lon="6.44511">
        <ele>335.57785</ele>
        <time>2011-10-02T08:49:09Z</time>
      </trkpt>
      <trkpt lat="43.28018" lon="6.44485">
        <ele>338.355438</ele>
        <time>2011-10-02T08:49:20Z</time>
      </trkpt>
      <trkpt lat="43.28015" lon="6.44455">
        <ele>341.039368</ele>
        <time>2011-10-02T08:49:33Z</time>
      </trkpt>
      <trkpt lat="43.28015" lon="6.4444">
        <ele>342.040009</ele>
        <time>2011-10-02T08:49:39Z</time>
      </trkpt>
      <trkpt lat="43.28012" lon="6.44408">
        <ele>344.369629</ele>
        <time>2011-10-02T08:49:52Z</time>
      </trkpt>
      <trkpt lat="43.28011" lon="6.44389">
        <ele>345.673615</ele>
        <time>2011-10-02T08:50:00Z</time>
      </trkpt>
      <trkpt lat="43.28011" lon="6.44376">
        <ele>346.541016</ele>
        <time>2011-10-02T08:50:05Z</time>
      </trkpt>
      <trkpt lat="43.28007" lon="6.44352">
        <ele>348.10965</ele>
        <time>2011-10-02T08:50:14Z</time>
      </trkpt>
      <trkpt lat="43.28003" lon="6.44316">
        <ele>350.051788</ele>
        <time>2011-10-02T08:50:28Z</time>
      </trkpt>
      <trkpt lat="43.28" lon="6.44272">
        <ele>351.162262</ele>
        <time>2011-10-02T08:50:44Z</time>
      </trkpt>
      <trkpt lat="43.27997" lon="6.44243">
        <ele>351.680817</ele>
        <time>2011-10-02T08:50:55Z</time>
      </trkpt>
      <trkpt lat="43.27999" lon="6.44213">
        <ele>351.124237</ele>
        <time>2011-10-02T08:51:06Z</time>
      </trkpt>
      <trkpt lat="43.28011" lon="6.44185">
        <ele>350.978485</ele>
        <time>2011-10-02T08:51:18Z</time>
      </trkpt>
      <trkpt lat="43.28013" lon="6.44164">
        <ele>351.36499</ele>
        <time>2011-10-02T08:51:25Z</time>
      </trkpt>
      <trkpt lat="43.28008" lon="6.44124">
        <ele>350.606537</ele>
        <time>2011-10-02T08:51:35Z</time>
      </trkpt>
      <trkpt lat="43.28025" lon="6.44052">
        <ele>352.200623</ele>
        <time>2011-10-02T08:51:45Z</time>
      </trkpt>
      <trkpt lat="43.28056" lon="6.43926">
        <ele>345.394989</ele>
        <time>2011-10-02T08:51:57Z</time>
      </trkpt>
      <trkpt lat="43.28057" lon="6.43914">
        <ele>344.106262</ele>
        <time>2011-10-02T08:51:58Z</time>
      </trkpt>
      <trkpt lat="43.28078" lon="6.438">
        <ele>336.235138</ele>
        <time>2011-10-02T08:52:08Z</time>
      </trkpt>
      <trkpt lat="43.28092" lon="6.43685">
        <ele>333.145844</ele>
        <time>2011-10-02T08:52:18Z</time>
      </trkpt>
      <trkpt lat="43.28091" lon="6.436">
        <ele>330.003296</ele>
        <time>2011-10-02T08:52:25Z</time>
      </trkpt>
      <trkpt lat="43.28069" lon="6.4354">
        <ele>320.961029</ele>
        <time>2011-10-02T08:52:32Z</time>
      </trkpt>
      <trkpt lat="43.28061" lon="6.43519">
        <ele>318.506775</ele>
        <time>2011-10-02T08:52:35Z</time>
      </trkpt>
      <trkpt lat="43.28058" lon="6.43499">
        <ele>317.969757</ele>
        <time>2011-10-02T08:52:37Z</time>
      </trkpt>
      <trkpt lat="43.28052" lon="6.43478">
        <ele>316.774078</ele>
        <time>2011-10-02T08:52:39Z</time>
      </trkpt>
      <trkpt lat="43.28034" lon="6.43434">
        <ele>311.541382</ele>
        <time>2011-10-02T08:52:47Z</time>
      </trkpt>
      <trkpt lat="43.28032" lon="6.43426">
        <ele>310.313446</ele>
        <time>2011-10-02T08:52:50Z</time>
      </trkpt>
      <trkpt lat="43.28014" lon="6.4341">
        <ele>306.160553</ele>
        <time>2011-10-02T08:52:56Z</time>
      </trkpt>
      <trkpt lat="43.28007" lon="6.43398">
        <ele>305.717377</ele>
        <time>2011-10-02T08:52:58Z</time>
      </trkpt>
      <trkpt lat="43.28" lon="6.43387">
        <ele>306.040009</ele>
        <time>2011-10-02T08:53:00Z</time>
      </trkpt>
      <trkpt lat="43.2799" lon="6.4338">
        <ele>303.326477</ele>
        <time>2011-10-02T08:53:04Z</time>
      </trkpt>
      <trkpt lat="43.2797" lon="6.43365">
        <ele>299.120148</ele>
        <time>2011-10-02T08:53:12Z</time>
      </trkpt>
      <trkpt lat="43.27962" lon="6.43345">
        <ele>298.997803</ele>
        <time>2011-10-02T08:53:22Z</time>
      </trkpt>
      <trkpt lat="43.27958" lon="6.43346">
        <ele>298.77713</ele>
        <time>2011-10-02T08:53:27Z</time>
      </trkpt>
      <trkpt lat="43.27956" lon="6.43344">
        <ele>298.897888</ele>
        <time>2011-10-02T08:53:36Z</time>
      </trkpt>
      <trkpt lat="43.27948" lon="6.43343">
        <ele>296.321716</ele>
        <time>2011-10-02T08:53:46Z</time>
      </trkpt>
      <trkpt lat="43.27948" lon="6.43343">
        <ele>296.120758</ele>
        <time>2011-10-02T08:53:52Z</time>
      </trkpt>
      <trkpt lat="43.27945" lon="6.4334">
        <ele>295.317413</ele>
        <time>2011-10-02T08:53:56Z</time>
      </trkpt>
      <trkpt lat="43.27924" lon="6.43342">
        <ele>287.349945</ele>
        <time>2011-10-02T08:54:04Z</time>
      </trkpt>
      <trkpt lat="43.27916" lon="6.43351">
        <ele>283.208038</ele>
        <time>2011-10-02T08:54:11Z</time>
      </trkpt>
      <trkpt lat="43.27904" lon="6.43362">
        <ele>278.077972</ele>
        <time>2011-10-02T08:54:19Z</time>
      </trkpt>
      <trkpt lat="43.27901" lon="6.43364">
        <ele>277.120941</ele>
        <time>2011-10-02T08:54:28Z</time>
      </trkpt>
      <trkpt lat="43.279" lon="6.43365">
        <ele>276.731628</ele>
        <time>2011-10-02T08:54:29Z</time>
      </trkpt>
      <trkpt lat="43.27892" lon="6.43374">
        <ele>273.757446</ele>
        <time>2011-10-02T08:54:36Z</time>
      </trkpt>
      <trkpt lat="43.27881" lon="6.43369">
        <ele>271.590363</ele>
        <time>2011-10-02T08:54:40Z</time>
      </trkpt>
      <trkpt lat="43.27857" lon="6.43363">
        <ele>266.730408</ele>
        <time>2011-10-02T08:54:46Z</time>
      </trkpt>
      <trkpt lat="43.27827" lon="6.43354">
        <ele>261.656982</ele>
        <time>2011-10-02T08:54:55Z</time>
      </trkpt>
      <trkpt lat="43.27808" lon="6.43322">
        <ele>260.438568</ele>
        <time>2011-10-02T08:55:04Z</time>
      </trkpt>
      <trkpt lat="43.278" lon="6.43303">
        <ele>259.884521</ele>
        <time>2011-10-02T08:55:09Z</time>
      </trkpt>
      <trkpt lat="43.2779" lon="6.43291">
        <ele>257.386749</ele>
        <time>2011-10-02T08:55:12Z</time>
      </trkpt>
      <trkpt lat="43.27777" lon="6.43281">
        <ele>254.4664</ele>
        <time>2011-10-02T08:55:20Z</time>
      </trkpt>
      <trkpt lat="43.27768" lon="6.43276">
        <ele>251.517838</ele>
        <time>2011-10-02T08:55:31Z</time>
      </trkpt>
      <trkpt lat="43.27763" lon="6.43277">
        <ele>250.245026</ele>
        <time>2011-10-02T08:55:36Z</time>
      </trkpt>
      <trkpt lat="43.27755" lon="6.43265">
        <ele>248.67836</ele>
        <time>2011-10-02T08:55:45Z</time>
      </trkpt>
      <trkpt lat="43.27751" lon="6.43261">
        <ele>248.091461</ele>
        <time>2011-10-02T08:55:47Z</time>
      </trkpt>
      <trkpt lat="43.27738" lon="6.43254">
        <ele>246.010284</ele>
        <time>2011-10-02T08:55:52Z</time>
      </trkpt>
      <trkpt lat="43.27725" lon="6.43255">
        <ele>244.099167</ele>
        <time>2011-10-02T08:55:57Z</time>
      </trkpt>
      <trkpt lat="43.27701" lon="6.43255">
        <ele>240.993225</ele>
        <time>2011-10-02T08:56:04Z</time>
      </trkpt>
      <trkpt lat="43.27682" lon="6.43258">
        <ele>238.439194</ele>
        <time>2011-10-02T08:56:11Z</time>
      </trkpt>
      <trkpt lat="43.27658" lon="6.43272">
        <ele>235.193115</ele>
        <time>2011-10-02T08:56:16Z</time>
      </trkpt>
      <trkpt lat="43.27627" lon="6.43307">
        <ele>228.922989</ele>
        <time>2011-10-02T08:56:25Z</time>
      </trkpt>
      <trkpt lat="43.27604" lon="6.43348">
        <ele>220.304092</ele>
        <time>2011-10-02T08:56:35Z</time>
      </trkpt>
      <trkpt lat="43.27598" lon="6.43366">
        <ele>215.090057</ele>
        <time>2011-10-02T08:56:42Z</time>
      </trkpt>
      <trkpt lat="43.27583" lon="6.434">
        <ele>206.706497</ele>
        <time>2011-10-02T08:56:51Z</time>
      </trkpt>
      <trkpt lat="43.2758" lon="6.43405">
        <ele>205.465225</ele>
        <time>2011-10-02T08:56:52Z</time>
      </trkpt>
      <trkpt lat="43.27572" lon="6.43419">
        <ele>202.260406</ele>
        <time>2011-10-02T08:56:55Z</time>
      </trkpt>
      <trkpt lat="43.27556" lon="6.43435">
        <ele>200.552841</ele>
        <time>2011-10-02T08:56:59Z</time>
      </trkpt>
      <trkpt lat="43.27507" lon="6.43488">
        <ele>193.207809</ele>
        <time>2011-10-02T08:57:11Z</time>
      </trkpt>
      <trkpt lat="43.27477" lon="6.43526">
        <ele>183.33812</ele>
        <time>2011-10-02T08:57:21Z</time>
      </trkpt>
      <trkpt lat="43.27468" lon="6.43537">
        <ele>181.63385</ele>
        <time>2011-10-02T08:57:24Z</time>
      </trkpt>
      <trkpt lat="43.27457" lon="6.43555">
        <ele>178.712326</ele>
        <time>2011-10-02T08:57:28Z</time>
      </trkpt>
      <trkpt lat="43.27438" lon="6.43579">
        <ele>167.858124</ele>
        <time>2011-10-02T08:57:35Z</time>
      </trkpt>
      <trkpt lat="43.27442" lon="6.43586">
        <ele>166.504623</ele>
        <time>2011-10-02T08:57:40Z</time>
      </trkpt>
      <trkpt lat="43.2746" lon="6.43578">
        <ele>169.672119</ele>
        <time>2011-10-02T08:57:51Z</time>
      </trkpt>
      <trkpt lat="43.27466" lon="6.43576">
        <ele>168.837036</ele>
        <time>2011-10-02T08:57:56Z</time>
      </trkpt>
      <trkpt lat="43.27476" lon="6.43569">
        <ele>168.873749</ele>
        <time>2011-10-02T08:58:06Z</time>
      </trkpt>
      <trkpt lat="43.27478" lon="6.43569">
        <ele>168.573502</ele>
        <time>2011-10-02T08:58:08Z</time>
      </trkpt>
      <trkpt lat="43.27481" lon="6.43572">
        <ele>166.756561</ele>
        <time>2011-10-02T08:58:12Z</time>
      </trkpt>
      <trkpt lat="43.27475" lon="6.43579">
        <ele>165.803558</ele>
        <time>2011-10-02T08:58:16Z</time>
      </trkpt>
      <trkpt lat="43.27458" lon="6.43621">
        <ele>156.186172</ele>
        <time>2011-10-02T08:58:24Z</time>
      </trkpt>
      <trkpt lat="43.27446" lon="6.43645">
        <ele>146.766068</ele>
        <time>2011-10-02T08:58:34Z</time>
      </trkpt>
      <trkpt lat="43.2744" lon="6.43649">
        <ele>145.805939</ele>
        <time>2011-10-02T08:58:39Z</time>
      </trkpt>
      <trkpt lat="43.27432" lon="6.43649">
        <ele>146.544128</ele>
        <time>2011-10-02T08:58:48Z</time>
      </trkpt>
      <trkpt lat="43.27427" lon="6.43655">
        <ele>145.732819</ele>
        <time>2011-10-02T08:58:51Z</time>
      </trkpt>
      <trkpt lat="43.27416" lon="6.43661">
        <ele>145.898132</ele>
        <time>2011-10-02T08:58:56Z</time>
      </trkpt>
      <trkpt lat="43.27387" lon="6.43663">
        <ele>139.729462</ele>
        <time>2011-10-02T08:59:05Z</time>
      </trkpt>
      <trkpt lat="43.27381" lon="6.43652">
        <ele>139.8741</ele>
        <time>2011-10-02T08:59:09Z</time>
      </trkpt>
      <trkpt lat="43.27377" lon="6.43623">
        <ele>138.905014</ele>
        <time>2011-10-02T08:59:17Z</time>
      </trkpt>
      <trkpt lat="43.27374" lon="6.43596">
        <ele>137.250839</ele>
        <time>2011-10-02T08:59:26Z</time>
      </trkpt>
      <trkpt lat="43.27375" lon="6.43584">
        <ele>138.929993</ele>
        <time>2011-10-02T08:59:36Z</time>
      </trkpt>
      <trkpt lat="43.27374" lon="6.43577">
        <ele>139.337509</ele>
        <time>2011-10-02T08:59:41Z</time>
      </trkpt>
      <trkpt lat="43.27365" lon="6.43567">
        <ele>134.979996</ele>
        <time>2011-10-02T08:59:50Z</time>
      </trkpt>
      <trkpt lat="43.27362" lon="6.4356">
        <ele>134.160004</ele>
        <time>2011-10-02T08:59:58Z</time>
      </trkpt>
      <trkpt lat="43.27361" lon="6.43559">
        <ele>134.270004</ele>
        <time>2011-10-02T08:59:59Z</time>
      </trkpt>
      <trkpt lat="43.27353" lon="6.43557">
        <ele>132.044998</ele>
        <time>2011-10-02T09:00:05Z</time>
      </trkpt>
      <trkpt lat="43.27351" lon="6.43553">
        <ele>131.860001</ele>
        <time>2011-10-02T09:00:08Z</time>
      </trkpt>
      <trkpt lat="43.27343" lon="6.43539">
        <ele>131.979996</ele>
        <time>2011-10-02T09:00:18Z</time>
      </trkpt>
      <trkpt lat="43.27337" lon="6.4354">
        <ele>129.860001</ele>
        <time>2011-10-02T09:00:20Z</time>
      </trkpt>
      <trkpt lat="43.27325" lon="6.43553">
        <ele>123.514999</ele>
        <time>2011-10-02T09:00:25Z</time>
      </trkpt>
      <trkpt lat="43.27322" lon="6.43574">
        <ele>118.864998</ele>
        <time>2011-10-02T09:00:32Z</time>
      </trkpt>
      <trkpt lat="43.27309" lon="6.43587">
        <ele>115.487251</ele>
        <time>2011-10-02T09:00:39Z</time>
      </trkpt>
      <trkpt lat="43.27306" lon="6.43588">
        <ele>115.642403</ele>
        <time>2011-10-02T09:00:42Z</time>
      </trkpt>
      <trkpt lat="43.27283" lon="6.43592">
        <ele>116.888939</ele>
        <time>2011-10-02T09:00:51Z</time>
      </trkpt>
      <trkpt lat="43.27271" lon="6.43597">
        <ele>116.859322</ele>
        <time>2011-10-02T09:00:58Z</time>
      </trkpt>
      <trkpt lat="43.27266" lon="6.43602">
        <ele>116.374893</ele>
        <time>2011-10-02T09:01:04Z</time>
      </trkpt>
      <trkpt lat="43.27256" lon="6.43611">
        <ele>115.435211</ele>
        <time>2011-10-02T09:01:15Z</time>
      </trkpt>
      <trkpt lat="43.27249" lon="6.43616">
        <ele>114.837143</ele>
        <time>2011-10-02T09:01:26Z</time>
      </trkpt>
      <trkpt lat="43.27248" lon="6.43616">
        <ele>114.761208</ele>
        <time>2011-10-02T09:01:28Z</time>
      </trkpt>
      <trkpt lat="43.27247" lon="6.43618">
        <ele>114.443748</ele>
        <time>2011-10-02T09:01:30Z</time>
      </trkpt>
      <trkpt lat="43.27246" lon="6.4362">
        <ele>114.210136</ele>
        <time>2011-10-02T09:01:32Z</time>
      </trkpt>
      <trkpt lat="43.27239" lon="6.43634">
        <ele>112.039314</ele>
        <time>2011-10-02T09:01:43Z</time>
      </trkpt>
      <trkpt lat="43.27231" lon="6.43638">
        <ele>111.184227</ele>
        <time>2011-10-02T09:01:54Z</time>
      </trkpt>
      <trkpt lat="43.27231" lon="6.43639">
        <ele>111.118858</ele>
        <time>2011-10-02T09:01:55Z</time>
      </trkpt>
      <trkpt lat="43.27228" lon="6.4364">
        <ele>111.062248</ele>
        <time>2011-10-02T09:01:58Z</time>
      </trkpt>
      <trkpt lat="43.2722" lon="6.43648">
        <ele>112.272003</ele>
        <time>2011-10-02T09:02:10Z</time>
      </trkpt>
      <trkpt lat="43.27214" lon="6.43651">
        <ele>112.702599</ele>
        <time>2011-10-02T09:02:18Z</time>
      </trkpt>
      <trkpt lat="43.27211" lon="6.43653">
        <ele>112.871025</ele>
        <time>2011-10-02T09:02:20Z</time>
      </trkpt>
      <trkpt lat="43.2721" lon="6.43653">
        <ele>112.885277</ele>
        <time>2011-10-02T09:02:22Z</time>
      </trkpt>
      <trkpt lat="43.27202" lon="6.43655">
        <ele>112.940849</ele>
        <time>2011-10-02T09:02:34Z</time>
      </trkpt>
      <trkpt lat="43.27198" lon="6.43656">
        <ele>112.925171</ele>
        <time>2011-10-02T09:02:43Z</time>
      </trkpt>
      <trkpt lat="43.27196" lon="6.43658">
        <ele>113.0028</ele>
        <time>2011-10-02T09:02:50Z</time>
      </trkpt>
      <trkpt lat="43.27186" lon="6.43667">
        <ele>113.005272</ele>
        <time>2011-10-02T09:03:01Z</time>
      </trkpt>
      <trkpt lat="43.27181" lon="6.43672">
        <ele>112.853775</ele>
        <time>2011-10-02T09:03:08Z</time>
      </trkpt>
      <trkpt lat="43.27176" lon="6.43672">
        <ele>112.81192</ele>
        <time>2011-10-02T09:03:19Z</time>
      </trkpt>
      <trkpt lat="43.27169" lon="6.43683">
        <ele>113.967972</ele>
        <time>2011-10-02T09:03:29Z</time>
      </trkpt>
      <trkpt lat="43.27164" lon="6.43687">
        <ele>114.843933</ele>
        <time>2011-10-02T09:03:37Z</time>
      </trkpt>
      <trkpt lat="43.27163" lon="6.43696">
        <ele>115.202431</ele>
        <time>2011-10-02T09:03:48Z</time>
      </trkpt>
      <trkpt lat="43.27163" lon="6.43698">
        <ele>115.130508</ele>
        <time>2011-10-02T09:03:50Z</time>
      </trkpt>
      <trkpt lat="43.27167" lon="6.43711">
        <ele>113.828773</ele>
        <time>2011-10-02T09:04:01Z</time>
      </trkpt>
      <trkpt lat="43.27167" lon="6.43712">
        <ele>113.834328</ele>
        <time>2011-10-02T09:04:05Z</time>
      </trkpt>
      <trkpt lat="43.27166" lon="6.43714">
        <ele>113.957428</ele>
        <time>2011-10-02T09:04:08Z</time>
      </trkpt>
      <trkpt lat="43.27165" lon="6.43724">
        <ele>113.698578</ele>
        <time>2011-10-02T09:04:21Z</time>
      </trkpt>
      <trkpt lat="43.27163" lon="6.43729">
        <ele>113.796303</ele>
        <time>2011-10-02T09:04:30Z</time>
      </trkpt>
      <trkpt lat="43.27163" lon="6.43736">
        <ele>113.533623</ele>
        <time>2011-10-02T09:04:41Z</time>
      </trkpt>
      <trkpt lat="43.2716" lon="6.43739">
        <ele>114.003899</ele>
        <time>2011-10-02T09:05:05Z</time>
      </trkpt>
      <trkpt lat="43.27153" lon="6.43739">
        <ele>115.476479</ele>
        <time>2011-10-02T09:05:18Z</time>
      </trkpt>
      <trkpt lat="43.27151" lon="6.43738">
        <ele>115.752762</ele>
        <time>2011-10-02T09:05:19Z</time>
      </trkpt>
      <trkpt lat="43.27141" lon="6.43742">
        <ele>117.863876</ele>
        <time>2011-10-02T09:05:29Z</time>
      </trkpt>
      <trkpt lat="43.27133" lon="6.43737">
        <ele>119.544998</ele>
        <time>2011-10-02T09:05:40Z</time>
      </trkpt>
      <trkpt lat="43.27124" lon="6.43728">
        <ele>122.849998</ele>
        <time>2011-10-02T09:05:55Z</time>
      </trkpt>
      <trkpt lat="43.27118" lon="6.43724">
        <ele>125.75</ele>
        <time>2011-10-02T09:06:06Z</time>
      </trkpt>
      <trkpt lat="43.27114" lon="6.43718">
        <ele>127.550003</ele>
        <time>2011-10-02T09:06:19Z</time>
      </trkpt>
      <trkpt lat="43.27114" lon="6.43718">
        <ele>127.699997</ele>
        <time>2011-10-02T09:06:24Z</time>
      </trkpt>
      <trkpt lat="43.27107" lon="6.43695">
        <ele>130.899994</ele>
        <time>2011-10-02T09:06:37Z</time>
      </trkpt>
      <trkpt lat="43.27095" lon="6.43665">
        <ele>135.515686</ele>
        <time>2011-10-02T09:06:53Z</time>
      </trkpt>
      <trkpt lat="43.27093" lon="6.4366">
        <ele>136.600296</ele>
        <time>2011-10-02T09:06:56Z</time>
      </trkpt>
      <trkpt lat="43.27086" lon="6.43639">
        <ele>139.539536</ele>
        <time>2011-10-02T09:07:07Z</time>
      </trkpt>
      <trkpt lat="43.27084" lon="6.43626">
        <ele>140.645996</ele>
        <time>2011-10-02T09:07:14Z</time>
      </trkpt>
      <trkpt lat="43.27083" lon="6.43616">
        <ele>141.52594</ele>
        <time>2011-10-02T09:07:20Z</time>
      </trkpt>
      <trkpt lat="43.2708" lon="6.43596">
        <ele>143.5979</ele>
        <time>2011-10-02T09:07:31Z</time>
      </trkpt>
      <trkpt lat="43.27079" lon="6.43565">
        <ele>143.232162</ele>
        <time>2011-10-02T09:07:47Z</time>
      </trkpt>
      <trkpt lat="43.27078" lon="6.43555">
        <ele>142.658279</ele>
        <time>2011-10-02T09:07:53Z</time>
      </trkpt>
      <trkpt lat="43.27072" lon="6.43538">
        <ele>143.209183</ele>
        <time>2011-10-02T09:08:04Z</time>
      </trkpt>
      <trkpt lat="43.27068" lon="6.43527">
        <ele>142.798813</ele>
        <time>2011-10-02T09:08:12Z</time>
      </trkpt>
      <trkpt lat="43.27059" lon="6.43515">
        <ele>144.563324</ele>
        <time>2011-10-02T09:08:21Z</time>
      </trkpt>
      <trkpt lat="43.27056" lon="6.43511">
        <ele>144.859604</ele>
        <time>2011-10-02T09:08:24Z</time>
      </trkpt>
      <trkpt lat="43.27043" lon="6.43508">
        <ele>148.964371</ele>
        <time>2011-10-02T09:08:36Z</time>
      </trkpt>
      <trkpt lat="43.27044" lon="6.43509">
        <ele>149.193222</ele>
        <time>2011-10-02T09:08:37Z</time>
      </trkpt>
      <trkpt lat="43.27048" lon="6.43514">
        <ele>149.151184</ele>
        <time>2011-10-02T09:08:43Z</time>
      </trkpt>
      <trkpt lat="43.27051" lon="6.4352">
        <ele>149.25148</ele>
        <time>2011-10-02T09:08:48Z</time>
      </trkpt>
      <trkpt lat="43.27052" lon="6.43527">
        <ele>150.70018</ele>
        <time>2011-10-02T09:08:52Z</time>
      </trkpt>
      <trkpt lat="43.27055" lon="6.43545">
        <ele>153.304901</ele>
        <time>2011-10-02T09:09:01Z</time>
      </trkpt>
      <trkpt lat="43.27056" lon="6.43583">
        <ele>158.364548</ele>
        <time>2011-10-02T09:09:18Z</time>
      </trkpt>
      <trkpt lat="43.27056" lon="6.43609">
        <ele>159.697006</ele>
        <time>2011-10-02T09:09:31Z</time>
      </trkpt>
      <trkpt lat="43.27055" lon="6.43619">
        <ele>160.578476</ele>
        <time>2011-10-02T09:09:36Z</time>
      </trkpt>
      <trkpt lat="43.27052" lon="6.43649">
        <ele>162.316757</ele>
        <time>2011-10-02T09:09:50Z</time>
      </trkpt>
      <trkpt lat="43.27052" lon="6.43652">
        <ele>162.232132</ele>
        <time>2011-10-02T09:09:51Z</time>
      </trkpt>
      <trkpt lat="43.2705" lon="6.43665">
        <ele>162.745941</ele>
        <time>2011-10-02T09:09:58Z</time>
      </trkpt>
      <trkpt lat="43.27048" lon="6.4368">
        <ele>163.487717</ele>
        <time>2011-10-02T09:10:05Z</time>
      </trkpt>
      <trkpt lat="43.27048" lon="6.43684">
        <ele>163.797699</ele>
        <time>2011-10-02T09:10:07Z</time>
      </trkpt>
      <trkpt lat="43.27042" lon="6.43712">
        <ele>165.942947</ele>
        <time>2011-10-02T09:10:22Z</time>
      </trkpt>
      <trkpt lat="43.27039" lon="6.4372">
        <ele>166.877502</ele>
        <time>2011-10-02T09:10:26Z</time>
      </trkpt>
      <trkpt lat="43.27038" lon="6.43726">
        <ele>167.165222</ele>
        <time>2011-10-02T09:10:29Z</time>
      </trkpt>
      <trkpt lat="43.27034" lon="6.43716">
        <ele>170.045441</ele>
        <time>2011-10-02T09:10:39Z</time>
      </trkpt>
      <trkpt lat="43.27035" lon="6.43714">
        <ele>169.849152</ele>
        <time>2011-10-02T09:10:40Z</time>
      </trkpt>
      <trkpt lat="43.27037" lon="6.43708">
        <ele>169.161575</ele>
        <time>2011-10-02T09:10:44Z</time>
      </trkpt>
      <trkpt lat="43.27037" lon="6.43697">
        <ele>169.426254</ele>
        <time>2011-10-02T09:10:50Z</time>
      </trkpt>
      <trkpt lat="43.27036" lon="6.43687">
        <ele>170.791245</ele>
        <time>2011-10-02T09:10:56Z</time>
      </trkpt>
      <trkpt lat="43.27034" lon="6.43675">
        <ele>172.521255</ele>
        <time>2011-10-02T09:11:03Z</time>
      </trkpt>
      <trkpt lat="43.27031" lon="6.43651">
        <ele>175.626251</ele>
        <time>2011-10-02T09:11:15Z</time>
      </trkpt>
      <trkpt lat="43.2703" lon="6.4365">
        <ele>175.792496</ele>
        <time>2011-10-02T09:11:16Z</time>
      </trkpt>
      <trkpt lat="43.2703" lon="6.4364">
        <ele>176.574997</ele>
        <time>2011-10-02T09:11:21Z</time>
      </trkpt>
      <trkpt lat="43.27029" lon="6.43624">
        <ele>177.822433</ele>
        <time>2011-10-02T09:11:29Z</time>
      </trkpt>
      <trkpt lat="43.27026" lon="6.43601">
        <ele>176.568558</ele>
        <time>2011-10-02T09:11:41Z</time>
      </trkpt>
      <trkpt lat="43.27023" lon="6.43587">
        <ele>176.156876</ele>
        <time>2011-10-02T09:11:48Z</time>
      </trkpt>
      <trkpt lat="43.27008" lon="6.4357">
        <ele>180.134567</ele>
        <time>2011-10-02T09:12:02Z</time>
      </trkpt>
      <trkpt lat="43.27002" lon="6.43569">
        <ele>182.928146</ele>
        <time>2011-10-02T09:12:07Z</time>
      </trkpt>
      <trkpt lat="43.27" lon="6.43574">
        <ele>184.679779</ele>
        <time>2011-10-02T09:12:11Z</time>
      </trkpt>
      <trkpt lat="43.27011" lon="6.43587">
        <ele>182.134842</ele>
        <time>2011-10-02T09:12:22Z</time>
      </trkpt>
      <trkpt lat="43.27012" lon="6.43595">
        <ele>183.436752</ele>
        <time>2011-10-02T09:12:26Z</time>
      </trkpt>
      <trkpt lat="43.27012" lon="6.43604">
        <ele>184.891556</ele>
        <time>2011-10-02T09:12:30Z</time>
      </trkpt>
      <trkpt lat="43.27008" lon="6.43632">
        <ele>190.607498</ele>
        <time>2011-10-02T09:12:44Z</time>
      </trkpt>
      <trkpt lat="43.27003" lon="6.4366">
        <ele>192.747498</ele>
        <time>2011-10-02T09:12:58Z</time>
      </trkpt>
      <trkpt lat="43.26996" lon="6.43679">
        <ele>196.026001</ele>
        <time>2011-10-02T09:13:09Z</time>
      </trkpt>
      <trkpt lat="43.26991" lon="6.43692">
        <ele>197.542496</ele>
        <time>2011-10-02T09:13:16Z</time>
      </trkpt>
      <trkpt lat="43.26984" lon="6.4371">
        <ele>199.282501</ele>
        <time>2011-10-02T09:13:26Z</time>
      </trkpt>
      <trkpt lat="43.26983" lon="6.43712">
        <ele>199.600006</ele>
        <time>2011-10-02T09:13:27Z</time>
      </trkpt>
      <trkpt lat="43.26977" lon="6.4373">
        <ele>201.188751</ele>
        <time>2011-10-02T09:13:35Z</time>
      </trkpt>
      <trkpt lat="43.26972" lon="6.43727">
        <ele>204.246246</ele>
        <time>2011-10-02T09:13:41Z</time>
      </trkpt>
      <trkpt lat="43.26974" lon="6.43721">
        <ele>203.877502</ele>
        <time>2011-10-02T09:13:45Z</time>
      </trkpt>
      <trkpt lat="43.26974" lon="6.43704">
        <ele>205.357498</ele>
        <time>2011-10-02T09:13:56Z</time>
      </trkpt>
      <trkpt lat="43.26973" lon="6.43688">
        <ele>207.456253</ele>
        <time>2011-10-02T09:14:06Z</time>
      </trkpt>
      <trkpt lat="43.26973" lon="6.43681">
        <ele>208.154068</ele>
        <time>2011-10-02T09:14:10Z</time>
      </trkpt>
      <trkpt lat="43.26971" lon="6.43652">
        <ele>208.725098</ele>
        <time>2011-10-02T09:14:26Z</time>
      </trkpt>
      <trkpt lat="43.26971" lon="6.4365">
        <ele>208.836227</ele>
        <time>2011-10-02T09:14:27Z</time>
      </trkpt>
      <trkpt lat="43.2697" lon="6.43642">
        <ele>208.905243</ele>
        <time>2011-10-02T09:14:32Z</time>
      </trkpt>
      <trkpt lat="43.26967" lon="6.43636">
        <ele>210.162109</ele>
        <time>2011-10-02T09:14:36Z</time>
      </trkpt>
      <trkpt lat="43.26953" lon="6.43621">
        <ele>215.896439</ele>
        <time>2011-10-02T09:14:47Z</time>
      </trkpt>
      <trkpt lat="43.26943" lon="6.43606">
        <ele>216.028061</ele>
        <time>2011-10-02T09:14:56Z</time>
      </trkpt>
      <trkpt lat="43.26938" lon="6.43596">
        <ele>215.457794</ele>
        <time>2011-10-02T09:15:01Z</time>
      </trkpt>
      <trkpt lat="43.26935" lon="6.43599">
        <ele>217.409744</ele>
        <time>2011-10-02T09:15:09Z</time>
      </trkpt>
      <trkpt lat="43.2694" lon="6.43608">
        <ele>218.463684</ele>
        <time>2011-10-02T09:15:15Z</time>
      </trkpt>
      <trkpt lat="43.26945" lon="6.43624">
        <ele>219.815353</ele>
        <time>2011-10-02T09:15:25Z</time>
      </trkpt>
      <trkpt lat="43.26951" lon="6.43648">
        <ele>218.242203</ele>
        <time>2011-10-02T09:15:36Z</time>
      </trkpt>
      <trkpt lat="43.26951" lon="6.43657">
        <ele>218.521973</ele>
        <time>2011-10-02T09:15:40Z</time>
      </trkpt>
      <trkpt lat="43.26949" lon="6.43666">
        <ele>220.334518</ele>
        <time>2011-10-02T09:15:45Z</time>
      </trkpt>
      <trkpt lat="43.26941" lon="6.43691">
        <ele>224.306244</ele>
        <time>2011-10-02T09:15:59Z</time>
      </trkpt>
      <trkpt lat="43.26932" lon="6.43712">
        <ele>227.081253</ele>
        <time>2011-10-02T09:16:10Z</time>
      </trkpt>
      <trkpt lat="43.26923" lon="6.43728">
        <ele>230.206253</ele>
        <time>2011-10-02T09:16:18Z</time>
      </trkpt>
      <trkpt lat="43.26912" lon="6.43742">
        <ele>234.689651</ele>
        <time>2011-10-02T09:16:30Z</time>
      </trkpt>
      <trkpt lat="43.26914" lon="6.43735">
        <ele>234.574997</ele>
        <time>2011-10-02T09:16:34Z</time>
      </trkpt>
      <trkpt lat="43.26917" lon="6.43731">
        <ele>233.524994</ele>
        <time>2011-10-02T09:16:38Z</time>
      </trkpt>
      <trkpt lat="43.2692" lon="6.43722">
        <ele>232.631256</ele>
        <time>2011-10-02T09:16:44Z</time>
      </trkpt>
      <trkpt lat="43.26924" lon="6.43712">
        <ele>231.256256</ele>
        <time>2011-10-02T09:16:49Z</time>
      </trkpt>
      <trkpt lat="43.26927" lon="6.43704">
        <ele>230.925003</ele>
        <time>2011-10-02T09:16:53Z</time>
      </trkpt>
      <trkpt lat="43.26931" lon="6.43674">
        <ele>230.805054</ele>
        <time>2011-10-02T09:17:06Z</time>
      </trkpt>
      <trkpt lat="43.26919" lon="6.43647">
        <ele>234.815399</ele>
        <time>2011-10-02T09:17:21Z</time>
      </trkpt>
      <trkpt lat="43.26906" lon="6.4363">
        <ele>239.040344</ele>
        <time>2011-10-02T09:17:33Z</time>
      </trkpt>
      <trkpt lat="43.26892" lon="6.43613">
        <ele>241.947861</ele>
        <time>2011-10-02T09:17:46Z</time>
      </trkpt>
      <trkpt lat="43.26877" lon="6.43599">
        <ele>244.763336</ele>
        <time>2011-10-02T09:17:57Z</time>
      </trkpt>
      <trkpt lat="43.26875" lon="6.43608">
        <ele>247.744003</ele>
        <time>2011-10-02T09:18:03Z</time>
      </trkpt>
      <trkpt lat="43.26891" lon="6.43635">
        <ele>245.809525</ele>
        <time>2011-10-02T09:18:17Z</time>
      </trkpt>
      <trkpt lat="43.26891" lon="6.4365">
        <ele>247.869263</ele>
        <time>2011-10-02T09:18:23Z</time>
      </trkpt>
      <trkpt lat="43.26891" lon="6.4369">
        <ele>250.28595</ele>
        <time>2011-10-02T09:18:38Z</time>
      </trkpt>
      <trkpt lat="43.26878" lon="6.43716">
        <ele>254.46875</ele>
        <time>2011-10-02T09:18:52Z</time>
      </trkpt>
      <trkpt lat="43.2687" lon="6.43732">
        <ele>257.497467</ele>
        <time>2011-10-02T09:19:02Z</time>
      </trkpt>
      <trkpt lat="43.26862" lon="6.43744">
        <ele>259.514801</ele>
        <time>2011-10-02T09:19:10Z</time>
      </trkpt>
      <trkpt lat="43.2685" lon="6.4376">
        <ele>261.922729</ele>
        <time>2011-10-02T09:19:22Z</time>
      </trkpt>
      <trkpt lat="43.26841" lon="6.43765">
        <ele>264.9104</ele>
        <time>2011-10-02T09:19:28Z</time>
      </trkpt>
      <trkpt lat="43.26833" lon="6.4377">
        <ele>267.786469</ele>
        <time>2011-10-02T09:19:34Z</time>
      </trkpt>
      <trkpt lat="43.26829" lon="6.43776">
        <ele>268.377319</ele>
        <time>2011-10-02T09:19:38Z</time>
      </trkpt>
      <trkpt lat="43.26824" lon="6.43789">
        <ele>268.131775</ele>
        <time>2011-10-02T09:19:45Z</time>
      </trkpt>
      <trkpt lat="43.26823" lon="6.43793">
        <ele>267.855286</ele>
        <time>2011-10-02T09:19:47Z</time>
      </trkpt>
      <trkpt lat="43.26807" lon="6.43815">
        <ele>271.553528</ele>
        <time>2011-10-02T09:20:02Z</time>
      </trkpt>
      <trkpt lat="43.26797" lon="6.43822">
        <ele>275.230438</ele>
        <time>2011-10-02T09:20:09Z</time>
      </trkpt>
      <trkpt lat="43.26785" lon="6.43842">
        <ele>278.195007</ele>
        <time>2011-10-02T09:20:21Z</time>
      </trkpt>
      <trkpt lat="43.26786" lon="6.43864">
        <ele>275.389923</ele>
        <time>2011-10-02T09:20:32Z</time>
      </trkpt>
      <trkpt lat="43.2678" lon="6.43891">
        <ele>277.565125</ele>
        <time>2011-10-02T09:20:45Z</time>
      </trkpt>
      <trkpt lat="43.26771" lon="6.43918">
        <ele>279.533051</ele>
        <time>2011-10-02T09:20:58Z</time>
      </trkpt>
      <trkpt lat="43.26756" lon="6.43946">
        <ele>280.778778</ele>
        <time>2011-10-02T09:21:10Z</time>
      </trkpt>
      <trkpt lat="43.26725" lon="6.43979">
        <ele>282.643036</ele>
        <time>2011-10-02T09:21:27Z</time>
      </trkpt>
      <trkpt lat="43.26702" lon="6.44003">
        <ele>283.321625</ele>
        <time>2011-10-02T09:21:40Z</time>
      </trkpt>
      <trkpt lat="43.26658" lon="6.44042">
        <ele>283.611481</ele>
        <time>2011-10-02T09:21:56Z</time>
      </trkpt>
      <trkpt lat="43.26626" lon="6.44051">
        <ele>286.60849</ele>
        <time>2011-10-02T09:22:05Z</time>
      </trkpt>
      <trkpt lat="43.26619" lon="6.44071">
        <ele>285.089447</ele>
        <time>2011-10-02T09:22:09Z</time>
      </trkpt>
      <trkpt lat="43.26619" lon="6.44099">
        <ele>282.054962</ele>
        <time>2011-10-02T09:22:12Z</time>
      </trkpt>
      <trkpt lat="43.26611" lon="6.44148">
        <ele>280.437653</ele>
        <time>2011-10-02T09:22:17Z</time>
      </trkpt>
      <trkpt lat="43.26599" lon="6.4418">
        <ele>279.382507</ele>
        <time>2011-10-02T09:22:21Z</time>
      </trkpt>
      <trkpt lat="43.26591" lon="6.44194">
        <ele>279.487488</ele>
        <time>2011-10-02T09:22:23Z</time>
      </trkpt>
      <trkpt lat="43.26565" lon="6.44238">
        <ele>278.665009</ele>
        <time>2011-10-02T09:22:30Z</time>
      </trkpt>
      <trkpt lat="43.26538" lon="6.44319">
        <ele>273.879395</ele>
        <time>2011-10-02T09:22:39Z</time>
      </trkpt>
      <trkpt lat="43.26523" lon="6.44379">
        <ele>271.429352</ele>
        <time>2011-10-02T09:22:45Z</time>
      </trkpt>
      <trkpt lat="43.26521" lon="6.44419">
        <ele>270.486237</ele>
        <time>2011-10-02T09:22:49Z</time>
      </trkpt>
      <trkpt lat="43.26522" lon="6.44453">
        <ele>269.790344</ele>
        <time>2011-10-02T09:22:53Z</time>
      </trkpt>
      <trkpt lat="43.26514" lon="6.4448">
        <ele>268.314362</ele>
        <time>2011-10-02T09:22:57Z</time>
      </trkpt>
      <trkpt lat="43.26507" lon="6.44492">
        <ele>267.216309</ele>
        <time>2011-10-02T09:23:01Z</time>
      </trkpt>
      <trkpt lat="43.26484" lon="6.4452">
        <ele>262.73877</ele>
        <time>2011-10-02T09:23:09Z</time>
      </trkpt>
      <trkpt lat="43.26467" lon="6.4456">
        <ele>257.309875</ele>
        <time>2011-10-02T09:23:14Z</time>
      </trkpt>
      <trkpt lat="43.2647" lon="6.4462">
        <ele>259.347046</ele>
        <time>2011-10-02T09:23:22Z</time>
      </trkpt>
      <trkpt lat="43.26482" lon="6.44626">
        <ele>260.14447</ele>
        <time>2011-10-02T09:23:29Z</time>
      </trkpt>
      <trkpt lat="43.26486" lon="6.4463">
        <ele>260.658569</ele>
        <time>2011-10-02T09:23:33Z</time>
      </trkpt>
      <trkpt lat="43.26496" lon="6.44638">
        <ele>261.962921</ele>
        <time>2011-10-02T09:23:41Z</time>
      </trkpt>
      <trkpt lat="43.26501" lon="6.44643">
        <ele>262.772888</ele>
        <time>2011-10-02T09:23:45Z</time>
      </trkpt>
      <trkpt lat="43.26506" lon="6.44645">
        <ele>263.31842</ele>
        <time>2011-10-02T09:23:51Z</time>
      </trkpt>
      <trkpt lat="43.26511" lon="6.44653">
        <ele>264.672546</ele>
        <time>2011-10-02T09:23:57Z</time>
      </trkpt>
      <trkpt lat="43.26504" lon="6.44655">
        <ele>264.787781</ele>
        <time>2011-10-02T09:24:05Z</time>
      </trkpt>
      <trkpt lat="43.26501" lon="6.44651">
        <ele>263.958618</ele>
        <time>2011-10-02T09:24:07Z</time>
      </trkpt>
      <trkpt lat="43.26462" lon="6.44635">
        <ele>260.387604</ele>
        <time>2011-10-02T09:24:15Z</time>
      </trkpt>
      <trkpt lat="43.26451" lon="6.44635">
        <ele>260.17868</ele>
        <time>2011-10-02T09:24:17Z</time>
      </trkpt>
      <trkpt lat="43.26435" lon="6.44647">
        <ele>261.211945</ele>
        <time>2011-10-02T09:24:21Z</time>
      </trkpt>
      <trkpt lat="43.26415" lon="6.44652">
        <ele>261.701324</ele>
        <time>2011-10-02T09:24:32Z</time>
      </trkpt>
      <trkpt lat="43.26409" lon="6.44647">
        <ele>261.566589</ele>
        <time>2011-10-02T09:24:36Z</time>
      </trkpt>
      <trkpt lat="43.26406" lon="6.44644">
        <ele>261.605072</ele>
        <time>2011-10-02T09:24:38Z</time>
      </trkpt>
      <trkpt lat="43.26397" lon="6.44645">
        <ele>262.176422</ele>
        <time>2011-10-02T09:24:44Z</time>
      </trkpt>
      <trkpt lat="43.26388" lon="6.44644">
        <ele>262.71759</ele>
        <time>2011-10-02T09:24:50Z</time>
      </trkpt>
      <trkpt lat="43.26382" lon="6.44646">
        <ele>263.270294</ele>
        <time>2011-10-02T09:24:54Z</time>
      </trkpt>
      <trkpt lat="43.26365" lon="6.44646">
        <ele>265.201843</ele>
        <time>2011-10-02T09:25:00Z</time>
      </trkpt>
      <trkpt lat="43.2635" lon="6.44646">
        <ele>267.125977</ele>
        <time>2011-10-02T09:25:05Z</time>
      </trkpt>
      <trkpt lat="43.26319" lon="6.44656">
        <ele>271.537506</ele>
        <time>2011-10-02T09:25:18Z</time>
      </trkpt>
      <trkpt lat="43.26314" lon="6.44661">
        <ele>272.440002</ele>
        <time>2011-10-02T09:25:22Z</time>
      </trkpt>
      <trkpt lat="43.26297" lon="6.44659">
        <ele>274.350006</ele>
        <time>2011-10-02T09:25:29Z</time>
      </trkpt>
      <trkpt lat="43.26267" lon="6.44648">
        <ele>276.03479</ele>
        <time>2011-10-02T09:25:41Z</time>
      </trkpt>
      <trkpt lat="43.26247" lon="6.44642">
        <ele>276.949493</ele>
        <time>2011-10-02T09:25:51Z</time>
      </trkpt>
      <trkpt lat="43.26241" lon="6.44637">
        <ele>277.058258</ele>
        <time>2011-10-02T09:25:54Z</time>
      </trkpt>
      <trkpt lat="43.26226" lon="6.44624">
        <ele>277.114319</ele>
        <time>2011-10-02T09:26:05Z</time>
      </trkpt>
      <trkpt lat="43.2621" lon="6.44614">
        <ele>277.462097</ele>
        <time>2011-10-02T09:26:16Z</time>
      </trkpt>
      <trkpt lat="43.26196" lon="6.44604">
        <ele>278.32309</ele>
        <time>2011-10-02T09:26:25Z</time>
      </trkpt>
      <trkpt lat="43.26183" lon="6.44593">
        <ele>279.364441</ele>
        <time>2011-10-02T09:26:37Z</time>
      </trkpt>
      <trkpt lat="43.26178" lon="6.44591">
        <ele>279.645874</ele>
        <time>2011-10-02T09:26:41Z</time>
      </trkpt>
      <trkpt lat="43.26163" lon="6.44585">
        <ele>280.672577</ele>
        <time>2011-10-02T09:26:52Z</time>
      </trkpt>
      <trkpt lat="43.2616" lon="6.44585">
        <ele>280.831543</ele>
        <time>2011-10-02T09:26:54Z</time>
      </trkpt>
      <trkpt lat="43.26148" lon="6.4458">
        <ele>281.876068</ele>
        <time>2011-10-02T09:27:02Z</time>
      </trkpt>
      <trkpt lat="43.26149" lon="6.4457">
        <ele>282.220947</ele>
        <time>2011-10-02T09:27:09Z</time>
      </trkpt>
      <trkpt lat="43.26157" lon="6.44554">
        <ele>282.529755</ele>
        <time>2011-10-02T09:27:18Z</time>
      </trkpt>
      <trkpt lat="43.26146" lon="6.44537">
        <ele>283.799103</ele>
        <time>2011-10-02T09:27:27Z</time>
      </trkpt>
      <trkpt lat="43.2613" lon="6.44528">
        <ele>285.282166</ele>
        <time>2011-10-02T09:27:36Z</time>
      </trkpt>
      <trkpt lat="43.26105" lon="6.44506">
        <ele>288.31015</ele>
        <time>2011-10-02T09:27:48Z</time>
      </trkpt>
      <trkpt lat="43.26093" lon="6.44486">
        <ele>290.040192</ele>
        <time>2011-10-02T09:27:59Z</time>
      </trkpt>
      <trkpt lat="43.26089" lon="6.44461">
        <ele>292.383026</ele>
        <time>2011-10-02T09:28:12Z</time>
      </trkpt>
      <trkpt lat="43.26091" lon="6.44453">
        <ele>293.084991</ele>
        <time>2011-10-02T09:28:16Z</time>
      </trkpt>
      <trkpt lat="43.26108" lon="6.44436">
        <ele>293.348663</ele>
        <time>2011-10-02T09:28:31Z</time>
      </trkpt>
      <trkpt lat="43.26126" lon="6.44417">
        <ele>292.765625</ele>
        <time>2011-10-02T09:28:44Z</time>
      </trkpt>
      <trkpt lat="43.26141" lon="6.44395">
        <ele>293.325928</ele>
        <time>2011-10-02T09:28:56Z</time>
      </trkpt>
      <trkpt lat="43.2615" lon="6.44366">
        <ele>295.402924</ele>
        <time>2011-10-02T09:29:09Z</time>
      </trkpt>
      <trkpt lat="43.26157" lon="6.44337">
        <ele>296.767548</ele>
        <time>2011-10-02T09:29:23Z</time>
      </trkpt>
      <trkpt lat="43.26158" lon="6.44331">
        <ele>297.220398</ele>
        <time>2011-10-02T09:29:26Z</time>
      </trkpt>
      <trkpt lat="43.26162" lon="6.44321">
        <ele>297.467621</ele>
        <time>2011-10-02T09:29:31Z</time>
      </trkpt>
      <trkpt lat="43.26165" lon="6.44297">
        <ele>299.387726</ele>
        <time>2011-10-02T09:29:41Z</time>
      </trkpt>
      <trkpt lat="43.26163" lon="6.44283">
        <ele>301.506989</ele>
        <time>2011-10-02T09:29:47Z</time>
      </trkpt>
      <trkpt lat="43.26159" lon="6.44273">
        <ele>303.517273</ele>
        <time>2011-10-02T09:29:52Z</time>
      </trkpt>
      <trkpt lat="43.26156" lon="6.44261">
        <ele>305.316284</ele>
        <time>2011-10-02T09:29:57Z</time>
      </trkpt>
      <trkpt lat="43.26165" lon="6.44255">
        <ele>304.494843</ele>
        <time>2011-10-02T09:30:03Z</time>
      </trkpt>
      <trkpt lat="43.26186" lon="6.4425">
        <ele>301.852631</ele>
        <time>2011-10-02T09:30:16Z</time>
      </trkpt>
      <trkpt lat="43.2619" lon="6.44242">
        <ele>302.438904</ele>
        <time>2011-10-02T09:30:20Z</time>
      </trkpt>
      <trkpt lat="43.26196" lon="6.44213">
        <ele>306.775116</ele>
        <time>2011-10-02T09:30:32Z</time>
      </trkpt>
      <trkpt lat="43.26199" lon="6.442">
        <ele>308.572815</ele>
        <time>2011-10-02T09:30:37Z</time>
      </trkpt>
      <trkpt lat="43.26219" lon="6.44194">
        <ele>307.977051</ele>
        <time>2011-10-02T09:30:47Z</time>
      </trkpt>
      <trkpt lat="43.26226" lon="6.44185">
        <ele>309.190338</ele>
        <time>2011-10-02T09:30:51Z</time>
      </trkpt>
      <trkpt lat="43.26235" lon="6.44162">
        <ele>312.351807</ele>
        <time>2011-10-02T09:31:03Z</time>
      </trkpt>
      <trkpt lat="43.26237" lon="6.44146">
        <ele>314.602325</ele>
        <time>2011-10-02T09:31:11Z</time>
      </trkpt>
      <trkpt lat="43.26239" lon="6.44136">
        <ele>315.9552</ele>
        <time>2011-10-02T09:31:16Z</time>
      </trkpt>
      <trkpt lat="43.26241" lon="6.44129">
        <ele>316.857849</ele>
        <time>2011-10-02T09:31:19Z</time>
      </trkpt>
      <trkpt lat="43.26256" lon="6.44107">
        <ele>317.762817</ele>
        <time>2011-10-02T09:31:32Z</time>
      </trkpt>
      <trkpt lat="43.26266" lon="6.44103">
        <ele>317.998474</ele>
        <time>2011-10-02T09:31:38Z</time>
      </trkpt>
      <trkpt lat="43.26293" lon="6.441">
        <ele>321.760651</ele>
        <time>2011-10-02T09:31:52Z</time>
      </trkpt>
      <trkpt lat="43.26319" lon="6.44086">
        <ele>326.274597</ele>
        <time>2011-10-02T09:32:07Z</time>
      </trkpt>
      <trkpt lat="43.2634" lon="6.44069">
        <ele>330.006805</ele>
        <time>2011-10-02T09:32:21Z</time>
      </trkpt>
      <trkpt lat="43.26361" lon="6.44049">
        <ele>333.30014</ele>
        <time>2011-10-02T09:32:37Z</time>
      </trkpt>
      <trkpt lat="43.26366" lon="6.44044">
        <ele>333.846161</ele>
        <time>2011-10-02T09:32:41Z</time>
      </trkpt>
      <trkpt lat="43.26371" lon="6.44039">
        <ele>334.356628</ele>
        <time>2011-10-02T09:32:55Z</time>
      </trkpt>
      <trkpt lat="43.26371" lon="6.44038">
        <ele>334.459015</ele>
        <time>2011-10-02T09:33:40Z</time>
      </trkpt>
      <trkpt lat="43.26377" lon="6.44033">
        <ele>335.118134</ele>
        <time>2011-10-02T09:34:16Z</time>
      </trkpt>
      <trkpt lat="43.26388" lon="6.44023">
        <ele>336.265656</ele>
        <time>2011-10-02T09:34:25Z</time>
      </trkpt>
      <trkpt lat="43.26393" lon="6.44018">
        <ele>337.055817</ele>
        <time>2011-10-02T09:34:29Z</time>
      </trkpt>
      <trkpt lat="43.26398" lon="6.44013">
        <ele>337.755646</ele>
        <time>2011-10-02T09:34:32Z</time>
      </trkpt>
      <trkpt lat="43.26417" lon="6.43989">
        <ele>340.096558</ele>
        <time>2011-10-02T09:34:49Z</time>
      </trkpt>
      <trkpt lat="43.26433" lon="6.43965">
        <ele>342.978912</ele>
        <time>2011-10-02T09:35:03Z</time>
      </trkpt>
      <trkpt lat="43.26439" lon="6.43954">
        <ele>344.490082</ele>
        <time>2011-10-02T09:35:09Z</time>
      </trkpt>
      <trkpt lat="43.2645" lon="6.43934">
        <ele>346.80249</ele>
        <time>2011-10-02T09:35:20Z</time>
      </trkpt>
      <trkpt lat="43.26457" lon="6.4392">
        <ele>348.127502</ele>
        <time>2011-10-02T09:35:28Z</time>
      </trkpt>
      <trkpt lat="43.26461" lon="6.43912">
        <ele>349.067505</ele>
        <time>2011-10-02T09:35:33Z</time>
      </trkpt>
      <trkpt lat="43.26465" lon="6.43906">
        <ele>349.377502</ele>
        <time>2011-10-02T09:35:37Z</time>
      </trkpt>
      <trkpt lat="43.26477" lon="6.43879">
        <ele>352.085205</ele>
        <time>2011-10-02T09:35:50Z</time>
      </trkpt>
      <trkpt lat="43.26488" lon="6.43847">
        <ele>354.918182</ele>
        <time>2011-10-02T09:36:05Z</time>
      </trkpt>
      <trkpt lat="43.26496" lon="6.43818">
        <ele>358.023529</ele>
        <time>2011-10-02T09:36:19Z</time>
      </trkpt>
      <trkpt lat="43.26506" lon="6.43793">
        <ele>360.706451</ele>
        <time>2011-10-02T09:36:32Z</time>
      </trkpt>
      <trkpt lat="43.26519" lon="6.43763">
        <ele>363.139069</ele>
        <time>2011-10-02T09:36:49Z</time>
      </trkpt>
      <trkpt lat="43.2653" lon="6.43737">
        <ele>364.681244</ele>
        <time>2011-10-02T09:37:03Z</time>
      </trkpt>
      <trkpt lat="43.26539" lon="6.43711">
        <ele>366.090424</ele>
        <time>2011-10-02T09:37:16Z</time>
      </trkpt>
      <trkpt lat="43.26549" lon="6.43685">
        <ele>367.194794</ele>
        <time>2011-10-02T09:37:30Z</time>
      </trkpt>
      <trkpt lat="43.26557" lon="6.43654">
        <ele>370.149872</ele>
        <time>2011-10-02T09:37:46Z</time>
      </trkpt>
      <trkpt lat="43.26563" lon="6.43627">
        <ele>369.979492</ele>
        <time>2011-10-02T09:38:00Z</time>
      </trkpt>
      <trkpt lat="43.26568" lon="6.436">
        <ele>370.397675</ele>
        <time>2011-10-02T09:38:14Z</time>
      </trkpt>
      <trkpt lat="43.26569" lon="6.43592">
        <ele>370.880005</ele>
        <time>2011-10-02T09:38:19Z</time>
      </trkpt>
      <trkpt lat="43.26568" lon="6.43582">
        <ele>370.191864</ele>
        <time>2011-10-02T09:38:25Z</time>
      </trkpt>
      <trkpt lat="43.26565" lon="6.43575">
        <ele>370.053436</ele>
        <time>2011-10-02T09:38:30Z</time>
      </trkpt>
      <trkpt lat="43.26562" lon="6.43571">
        <ele>369.997253</ele>
        <time>2011-10-02T09:38:33Z</time>
      </trkpt>
      <trkpt lat="43.26547" lon="6.43569">
        <ele>371.133759</ele>
        <time>2011-10-02T09:38:46Z</time>
      </trkpt>
      <trkpt lat="43.26539" lon="6.43576">
        <ele>372.130829</ele>
        <time>2011-10-02T09:38:53Z</time>
      </trkpt>
      <trkpt lat="43.26533" lon="6.436">
        <ele>374.800598</ele>
        <time>2011-10-02T09:39:06Z</time>
      </trkpt>
      <trkpt lat="43.26529" lon="6.43611">
        <ele>375.635742</ele>
        <time>2011-10-02T09:39:12Z</time>
      </trkpt>
      <trkpt lat="43.26523" lon="6.43623">
        <ele>376.936096</ele>
        <time>2011-10-02T09:39:17Z</time>
      </trkpt>
      <trkpt lat="43.26518" lon="6.43633">
        <ele>378.447723</ele>
        <time>2011-10-02T09:39:22Z</time>
      </trkpt>
      <trkpt lat="43.26492" lon="6.43633">
        <ele>380.859985</ele>
        <time>2011-10-02T09:39:39Z</time>
      </trkpt>
      <trkpt lat="43.26468" lon="6.43647">
        <ele>383.799805</ele>
        <time>2011-10-02T09:39:53Z</time>
      </trkpt>
      <trkpt lat="43.26439" lon="6.43651">
        <ele>383.745422</ele>
        <time>2011-10-02T09:40:05Z</time>
      </trkpt>
      <trkpt lat="43.26406" lon="6.43646">
        <ele>382.169708</ele>
        <time>2011-10-02T09:40:14Z</time>
      </trkpt>
      <trkpt lat="43.26363" lon="6.43655">
        <ele>383.598999</ele>
        <time>2011-10-02T09:40:26Z</time>
      </trkpt>
      <trkpt lat="43.26321" lon="6.43664">
        <ele>388.639893</ele>
        <time>2011-10-02T09:40:41Z</time>
      </trkpt>
      <trkpt lat="43.2631" lon="6.43656">
        <ele>389.136963</ele>
        <time>2011-10-02T09:40:48Z</time>
      </trkpt>
      <trkpt lat="43.26289" lon="6.4364">
        <ele>390.104919</ele>
        <time>2011-10-02T09:41:03Z</time>
      </trkpt>
      <trkpt lat="43.26285" lon="6.43637">
        <ele>390.344879</ele>
        <time>2011-10-02T09:41:06Z</time>
      </trkpt>
      <trkpt lat="43.26274" lon="6.43625">
        <ele>390.803375</ele>
        <time>2011-10-02T09:41:14Z</time>
      </trkpt>
      <trkpt lat="43.26261" lon="6.43608">
        <ele>391.108124</ele>
        <time>2011-10-02T09:41:22Z</time>
      </trkpt>
      <trkpt lat="43.26238" lon="6.43578">
        <ele>391.859558</ele>
        <time>2011-10-02T09:41:34Z</time>
      </trkpt>
      <trkpt lat="43.26229" lon="6.43565">
        <ele>393.556183</ele>
        <time>2011-10-02T09:41:40Z</time>
      </trkpt>
      <trkpt lat="43.2622" lon="6.43517">
        <ele>394.326843</ele>
        <time>2011-10-02T09:41:53Z</time>
      </trkpt>
      <trkpt lat="43.26228" lon="6.43487">
        <ele>388.347504</ele>
        <time>2011-10-02T09:42:00Z</time>
      </trkpt>
      <trkpt lat="43.26229" lon="6.4347">
        <ele>386.922516</ele>
        <time>2011-10-02T09:42:03Z</time>
      </trkpt>
      <trkpt lat="43.26227" lon="6.43457">
        <ele>386.838745</ele>
        <time>2011-10-02T09:42:05Z</time>
      </trkpt>
      <trkpt lat="43.26219" lon="6.43433">
        <ele>389.204224</ele>
        <time>2011-10-02T09:42:09Z</time>
      </trkpt>
      <trkpt lat="43.26211" lon="6.43408">
        <ele>390.872803</ele>
        <time>2011-10-02T09:42:13Z</time>
      </trkpt>
      <trkpt lat="43.26206" lon="6.43363">
        <ele>392.054291</ele>
        <time>2011-10-02T09:42:24Z</time>
      </trkpt>
      <trkpt lat="43.26202" lon="6.4334">
        <ele>394.826141</ele>
        <time>2011-10-02T09:42:33Z</time>
      </trkpt>
      <trkpt lat="43.26203" lon="6.43333">
        <ele>394.729645</ele>
        <time>2011-10-02T09:42:36Z</time>
      </trkpt>
      <trkpt lat="43.2622" lon="6.43314">
        <ele>389.148621</ele>
        <time>2011-10-02T09:42:45Z</time>
      </trkpt>
      <trkpt lat="43.26223" lon="6.43308">
        <ele>388.422333</ele>
        <time>2011-10-02T09:42:48Z</time>
      </trkpt>
      <trkpt lat="43.26227" lon="6.43297">
        <ele>388.379517</ele>
        <time>2011-10-02T09:42:53Z</time>
      </trkpt>
      <trkpt lat="43.2623" lon="6.43283">
        <ele>388.981018</ele>
        <time>2011-10-02T09:42:59Z</time>
      </trkpt>
      <trkpt lat="43.26231" lon="6.43272">
        <ele>390.410583</ele>
        <time>2011-10-02T09:43:05Z</time>
      </trkpt>
      <trkpt lat="43.26234" lon="6.43258">
        <ele>390.862305</ele>
        <time>2011-10-02T09:43:14Z</time>
      </trkpt>
      <trkpt lat="43.26233" lon="6.43242">
        <ele>389.829803</ele>
        <time>2011-10-02T09:43:23Z</time>
      </trkpt>
      <trkpt lat="43.26231" lon="6.43239">
        <ele>389.803162</ele>
        <time>2011-10-02T09:43:25Z</time>
      </trkpt>
      <trkpt lat="43.2622" lon="6.43226">
        <ele>390.83194</ele>
        <time>2011-10-02T09:43:31Z</time>
      </trkpt>
      <trkpt lat="43.26212" lon="6.4322">
        <ele>391.561493</ele>
        <time>2011-10-02T09:43:33Z</time>
      </trkpt>
      <trkpt lat="43.2617" lon="6.43212">
        <ele>394.546478</ele>
        <time>2011-10-02T09:43:42Z</time>
      </trkpt>
      <trkpt lat="43.26145" lon="6.43206">
        <ele>395.86026</ele>
        <time>2011-10-02T09:43:47Z</time>
      </trkpt>
      <trkpt lat="43.26136" lon="6.43203">
        <ele>396.211426</ele>
        <time>2011-10-02T09:43:49Z</time>
      </trkpt>
      <trkpt lat="43.26102" lon="6.43178">
        <ele>396.393555</ele>
        <time>2011-10-02T09:44:01Z</time>
      </trkpt>
      <trkpt lat="43.26081" lon="6.43166">
        <ele>398.49704</ele>
        <time>2011-10-02T09:44:14Z</time>
      </trkpt>
      <trkpt lat="43.26062" lon="6.43151">
        <ele>399.627991</ele>
        <time>2011-10-02T09:44:27Z</time>
      </trkpt>
      <trkpt lat="43.26044" lon="6.43138">
        <ele>400.829132</ele>
        <time>2011-10-02T09:44:38Z</time>
      </trkpt>
      <trkpt lat="43.26029" lon="6.43116">
        <ele>400.96344</ele>
        <time>2011-10-02T09:44:50Z</time>
      </trkpt>
      <trkpt lat="43.26012" lon="6.43094">
        <ele>398.671265</ele>
        <time>2011-10-02T09:44:58Z</time>
      </trkpt>
      <trkpt lat="43.26009" lon="6.43077">
        <ele>397.060059</ele>
        <time>2011-10-02T09:45:02Z</time>
      </trkpt>
      <trkpt lat="43.26002" lon="6.43065">
        <ele>396.673889</ele>
        <time>2011-10-02T09:45:05Z</time>
      </trkpt>
      <trkpt lat="43.25981" lon="6.43025">
        <ele>398.544373</ele>
        <time>2011-10-02T09:45:14Z</time>
      </trkpt>
      <trkpt lat="43.25979" lon="6.42994">
        <ele>399.33374</ele>
        <time>2011-10-02T09:45:22Z</time>
      </trkpt>
      <trkpt lat="43.2598" lon="6.42989">
        <ele>399.575012</ele>
        <time>2011-10-02T09:45:24Z</time>
      </trkpt>
      <trkpt lat="43.25982" lon="6.42971">
        <ele>400.428741</ele>
        <time>2011-10-02T09:45:31Z</time>
      </trkpt>
      <trkpt lat="43.25982" lon="6.42935">
        <ele>402.173737</ele>
        <time>2011-10-02T09:45:45Z</time>
      </trkpt>
      <trkpt lat="43.25986" lon="6.42905">
        <ele>404.03241</ele>
        <time>2011-10-02T09:45:56Z</time>
      </trkpt>
      <trkpt lat="43.2599" lon="6.42878">
        <ele>405.745514</ele>
        <time>2011-10-02T09:46:07Z</time>
      </trkpt>
      <trkpt lat="43.25992" lon="6.42856">
        <ele>406.88501</ele>
        <time>2011-10-02T09:46:18Z</time>
      </trkpt>
      <trkpt lat="43.25993" lon="6.42848">
        <ele>407.256256</ele>
        <time>2011-10-02T09:46:22Z</time>
      </trkpt>
      <trkpt lat="43.25993" lon="6.42845">
        <ele>407.421265</ele>
        <time>2011-10-02T09:46:24Z</time>
      </trkpt>
      <trkpt lat="43.25992" lon="6.42823">
        <ele>408.48999</ele>
        <time>2011-10-02T09:46:35Z</time>
      </trkpt>
      <trkpt lat="43.25981" lon="6.42788">
        <ele>410.273956</ele>
        <time>2011-10-02T09:46:46Z</time>
      </trkpt>
      <trkpt lat="43.25972" lon="6.42756">
        <ele>412.188446</ele>
        <time>2011-10-02T09:46:58Z</time>
      </trkpt>
      <trkpt lat="43.25966" lon="6.42733">
        <ele>414.075287</ele>
        <time>2011-10-02T09:47:06Z</time>
      </trkpt>
      <trkpt lat="43.25972" lon="6.42713">
        <ele>415.493469</ele>
        <time>2011-10-02T09:47:15Z</time>
      </trkpt>
      <trkpt lat="43.25972" lon="6.42702">
        <ele>416.421387</ele>
        <time>2011-10-02T09:47:22Z</time>
      </trkpt>
      <trkpt lat="43.25972" lon="6.42688">
        <ele>417.574554</ele>
        <time>2011-10-02T09:47:28Z</time>
      </trkpt>
      <trkpt lat="43.25972" lon="6.42682">
        <ele>417.884186</ele>
        <time>2011-10-02T09:47:31Z</time>
      </trkpt>
      <trkpt lat="43.2597" lon="6.4266">
        <ele>419.490936</ele>
        <time>2011-10-02T09:47:38Z</time>
      </trkpt>
      <trkpt lat="43.25967" lon="6.42651">
        <ele>420.366394</ele>
        <time>2011-10-02T09:47:54Z</time>
      </trkpt>
      <trkpt lat="43.25965" lon="6.42651">
        <ele>420.569183</ele>
        <time>2011-10-02T09:48:35Z</time>
      </trkpt>
      <trkpt lat="43.25966" lon="6.42648">
        <ele>420.662048</ele>
        <time>2011-10-02T09:48:47Z</time>
      </trkpt>
      <trkpt lat="43.25973" lon="6.42624">
        <ele>421.480957</ele>
        <time>2011-10-02T09:48:58Z</time>
      </trkpt>
      <trkpt lat="43.2597" lon="6.42604">
        <ele>422.431122</ele>
        <time>2011-10-02T09:49:03Z</time>
      </trkpt>
      <trkpt lat="43.25972" lon="6.42569">
        <ele>423.335938</ele>
        <time>2011-10-02T09:49:16Z</time>
      </trkpt>
      <trkpt lat="43.25979" lon="6.42535">
        <ele>424.490509</ele>
        <time>2011-10-02T09:49:30Z</time>
      </trkpt>
      <trkpt lat="43.25994" lon="6.42515">
        <ele>425.770508</ele>
        <time>2011-10-02T09:49:43Z</time>
      </trkpt>
      <trkpt lat="43.25999" lon="6.42507">
        <ele>426.528259</ele>
        <time>2011-10-02T09:49:48Z</time>
      </trkpt>
      <trkpt lat="43.26004" lon="6.42498">
        <ele>427.853546</ele>
        <time>2011-10-02T09:49:54Z</time>
      </trkpt>
      <trkpt lat="43.26018" lon="6.42477">
        <ele>430.152313</ele>
        <time>2011-10-02T09:50:09Z</time>
      </trkpt>
      <trkpt lat="43.26031" lon="6.42455">
        <ele>433.127289</ele>
        <time>2011-10-02T09:50:23Z</time>
      </trkpt>
      <trkpt lat="43.26033" lon="6.42448">
        <ele>434.082611</ele>
        <time>2011-10-02T09:50:27Z</time>
      </trkpt>
      <trkpt lat="43.26033" lon="6.42442">
        <ele>435.109283</ele>
        <time>2011-10-02T09:50:31Z</time>
      </trkpt>
      <trkpt lat="43.26027" lon="6.42421">
        <ele>437.928711</ele>
        <time>2011-10-02T09:50:44Z</time>
      </trkpt>
      <trkpt lat="43.26036" lon="6.42401">
        <ele>440.725555</ele>
        <time>2011-10-02T09:51:00Z</time>
      </trkpt>
      <trkpt lat="43.26038" lon="6.42395">
        <ele>441.550018</ele>
        <time>2011-10-02T09:51:04Z</time>
      </trkpt>
      <trkpt lat="43.26043" lon="6.42387">
        <ele>442.717987</ele>
        <time>2011-10-02T09:51:09Z</time>
      </trkpt>
      <trkpt lat="43.26044" lon="6.42373">
        <ele>444.167999</ele>
        <time>2011-10-02T09:51:16Z</time>
      </trkpt>
      <trkpt lat="43.26049" lon="6.42356">
        <ele>445.804504</ele>
        <time>2011-10-02T09:51:25Z</time>
      </trkpt>
      <trkpt lat="43.26045" lon="6.42327">
        <ele>448.358124</ele>
        <time>2011-10-02T09:51:38Z</time>
      </trkpt>
      <trkpt lat="43.26044" lon="6.42318">
        <ele>448.521362</ele>
        <time>2011-10-02T09:51:42Z</time>
      </trkpt>
      <trkpt lat="43.26043" lon="6.42296">
        <ele>447.993652</ele>
        <time>2011-10-02T09:51:52Z</time>
      </trkpt>
      <trkpt lat="43.26041" lon="6.42275">
        <ele>447.39389</ele>
        <time>2011-10-02T09:52:00Z</time>
      </trkpt>
      <trkpt lat="43.26046" lon="6.4224">
        <ele>447.401398</ele>
        <time>2011-10-02T09:52:12Z</time>
      </trkpt>
      <trkpt lat="43.26048" lon="6.42236">
        <ele>447.490967</ele>
        <time>2011-10-02T09:52:14Z</time>
      </trkpt>
      <trkpt lat="43.26049" lon="6.42227">
        <ele>447.545593</ele>
        <time>2011-10-02T09:52:17Z</time>
      </trkpt>
      <trkpt lat="43.26053" lon="6.42207">
        <ele>447.740814</ele>
        <time>2011-10-02T09:52:24Z</time>
      </trkpt>
      <trkpt lat="43.26056" lon="6.42194">
        <ele>447.929993</ele>
        <time>2011-10-02T09:52:28Z</time>
      </trkpt>
      <trkpt lat="43.26072" lon="6.4216">
        <ele>448.453491</ele>
        <time>2011-10-02T09:52:39Z</time>
      </trkpt>
      <trkpt lat="43.26078" lon="6.42124">
        <ele>448.451599</ele>
        <time>2011-10-02T09:52:46Z</time>
      </trkpt>
      <trkpt lat="43.2608" lon="6.42112">
        <ele>448.299744</ele>
        <time>2011-10-02T09:52:48Z</time>
      </trkpt>
      <trkpt lat="43.26084" lon="6.42088">
        <ele>448.022491</ele>
        <time>2011-10-02T09:52:52Z</time>
      </trkpt>
      <trkpt lat="43.26089" lon="6.42064">
        <ele>447.40625</ele>
        <time>2011-10-02T09:52:56Z</time>
      </trkpt>
      <trkpt lat="43.2609" lon="6.42051">
        <ele>447.169983</ele>
        <time>2011-10-02T09:52:58Z</time>
      </trkpt>
      <trkpt lat="43.26082" lon="6.42009">
        <ele>446.91629</ele>
        <time>2011-10-02T09:53:05Z</time>
      </trkpt>
      <trkpt lat="43.26059" lon="6.41972">
        <ele>445.725616</ele>
        <time>2011-10-02T09:53:12Z</time>
      </trkpt>
      <trkpt lat="43.2606" lon="6.41888">
        <ele>441.339996</ele>
        <time>2011-10-02T09:53:23Z</time>
      </trkpt>
      <trkpt lat="43.26057" lon="6.41865">
        <ele>440.024994</ele>
        <time>2011-10-02T09:53:26Z</time>
      </trkpt>
      <trkpt lat="43.26059" lon="6.41825">
        <ele>437.012817</ele>
        <time>2011-10-02T09:53:33Z</time>
      </trkpt>
      <trkpt lat="43.26069" lon="6.41811">
        <ele>434.961792</ele>
        <time>2011-10-02T09:53:36Z</time>
      </trkpt>
      <trkpt lat="43.261" lon="6.41777">
        <ele>428.646484</ele>
        <time>2011-10-02T09:53:44Z</time>
      </trkpt>
      <trkpt lat="43.26114" lon="6.41758">
        <ele>425.271149</ele>
        <time>2011-10-02T09:53:47Z</time>
      </trkpt>
      <trkpt lat="43.26131" lon="6.4174">
        <ele>422.789795</ele>
        <time>2011-10-02T09:53:50Z</time>
      </trkpt>
      <trkpt lat="43.26139" lon="6.41724">
        <ele>421.815491</ele>
        <time>2011-10-02T09:53:52Z</time>
      </trkpt>
      <trkpt lat="43.26165" lon="6.41704">
        <ele>421.266937</ele>
        <time>2011-10-02T09:53:57Z</time>
      </trkpt>
      <trkpt lat="43.26176" lon="6.41708">
        <ele>420.943085</ele>
        <time>2011-10-02T09:53:59Z</time>
      </trkpt>
      <trkpt lat="43.26189" lon="6.41696">
        <ele>420.746185</ele>
        <time>2011-10-02T09:54:05Z</time>
      </trkpt>
      <trkpt lat="43.26188" lon="6.41694">
        <ele>421.057922</ele>
        <time>2011-10-02T09:54:06Z</time>
      </trkpt>
      <trkpt lat="43.26164" lon="6.41667">
        <ele>421.189087</ele>
        <time>2011-10-02T09:54:16Z</time>
      </trkpt>
      <trkpt lat="43.2613" lon="6.41592">
        <ele>416.489899</ele>
        <time>2011-10-02T09:54:29Z</time>
      </trkpt>
      <trkpt lat="43.26109" lon="6.41499">
        <ele>417.679016</ele>
        <time>2011-10-02T09:54:41Z</time>
      </trkpt>
      <trkpt lat="43.26105" lon="6.41485">
        <ele>417.619141</ele>
        <time>2011-10-02T09:54:43Z</time>
      </trkpt>
      <trkpt lat="43.26097" lon="6.41465">
        <ele>416.849579</ele>
        <time>2011-10-02T09:54:46Z</time>
      </trkpt>
      <trkpt lat="43.26091" lon="6.41452">
        <ele>417.369354</ele>
        <time>2011-10-02T09:54:48Z</time>
      </trkpt>
      <trkpt lat="43.26039" lon="6.41387">
        <ele>415.602966</ele>
        <time>2011-10-02T09:55:01Z</time>
      </trkpt>
      <trkpt lat="43.26026" lon="6.41371">
        <ele>415.905884</ele>
        <time>2011-10-02T09:55:04Z</time>
      </trkpt>
      <trkpt lat="43.26008" lon="6.41353">
        <ele>415.304749</ele>
        <time>2011-10-02T09:55:08Z</time>
      </trkpt>
      <trkpt lat="43.25961" lon="6.41318">
        <ele>410.007385</ele>
        <time>2011-10-02T09:55:17Z</time>
      </trkpt>
      <trkpt lat="43.25952" lon="6.41308">
        <ele>408.823914</ele>
        <time>2011-10-02T09:55:19Z</time>
      </trkpt>
      <trkpt lat="43.2591" lon="6.41225">
        <ele>409.461273</ele>
        <time>2011-10-02T09:55:30Z</time>
      </trkpt>
      <trkpt lat="43.25884" lon="6.41187">
        <ele>406.213318</ele>
        <time>2011-10-02T09:55:35Z</time>
      </trkpt>
      <trkpt lat="43.25866" lon="6.41168">
        <ele>403.475067</ele>
        <time>2011-10-02T09:55:38Z</time>
      </trkpt>
      <trkpt lat="43.25848" lon="6.41102">
        <ele>402.764038</ele>
        <time>2011-10-02T09:55:45Z</time>
      </trkpt>
      <trkpt lat="43.25849" lon="6.41069">
        <ele>403.483704</ele>
        <time>2011-10-02T09:55:48Z</time>
      </trkpt>
      <trkpt lat="43.25843" lon="6.4102">
        <ele>399.695496</ele>
        <time>2011-10-02T09:55:53Z</time>
      </trkpt>
      <trkpt lat="43.25833" lon="6.40995">
        <ele>397.931488</ele>
        <time>2011-10-02T09:55:56Z</time>
      </trkpt>
      <trkpt lat="43.25806" lon="6.40897">
        <ele>395.901337</ele>
        <time>2011-10-02T09:56:08Z</time>
      </trkpt>
      <trkpt lat="43.25805" lon="6.40894">
        <ele>395.658691</ele>
        <time>2011-10-02T09:56:09Z</time>
      </trkpt>
      <trkpt lat="43.258" lon="6.40881">
        <ele>393.775085</ele>
        <time>2011-10-02T09:56:13Z</time>
      </trkpt>
      <trkpt lat="43.25818" lon="6.40849">
        <ele>397.06601</ele>
        <time>2011-10-02T09:56:24Z</time>
      </trkpt>
      <trkpt lat="43.25824" lon="6.40811">
        <ele>398.603668</ele>
        <time>2011-10-02T09:56:35Z</time>
      </trkpt>
      <trkpt lat="43.2582" lon="6.40802">
        <ele>398.046936</ele>
        <time>2011-10-02T09:56:40Z</time>
      </trkpt>
      <trkpt lat="43.25798" lon="6.40793">
        <ele>394.192902</ele>
        <time>2011-10-02T09:56:48Z</time>
      </trkpt>
      <trkpt lat="43.25758" lon="6.40772">
        <ele>391.795166</ele>
        <time>2011-10-02T09:56:55Z</time>
      </trkpt>
      <trkpt lat="43.25739" lon="6.40763">
        <ele>391.159119</ele>
        <time>2011-10-02T09:56:59Z</time>
      </trkpt>
      <trkpt lat="43.25718" lon="6.40756">
        <ele>390.494995</ele>
        <time>2011-10-02T09:57:04Z</time>
      </trkpt>
      <trkpt lat="43.2571" lon="6.40758">
        <ele>389.201294</ele>
        <time>2011-10-02T09:57:06Z</time>
      </trkpt>
      <trkpt lat="43.25698" lon="6.40753">
        <ele>388.806458</ele>
        <time>2011-10-02T09:57:11Z</time>
      </trkpt>
      <trkpt lat="43.25682" lon="6.4075">
        <ele>387.685059</ele>
        <time>2011-10-02T09:57:19Z</time>
      </trkpt>
      <trkpt lat="43.2568" lon="6.40749">
        <ele>387.673431</ele>
        <time>2011-10-02T09:57:28Z</time>
      </trkpt>
      <trkpt lat="43.25654" lon="6.40777">
        <ele>380.774353</ele>
        <time>2011-10-02T09:57:36Z</time>
      </trkpt>
      <trkpt lat="43.25647" lon="6.40781">
        <ele>380.166382</ele>
        <time>2011-10-02T09:57:37Z</time>
      </trkpt>
      <trkpt lat="43.25634" lon="6.40786">
        <ele>379.332489</ele>
        <time>2011-10-02T09:57:39Z</time>
      </trkpt>
      <trkpt lat="43.25614" lon="6.40782">
        <ele>380.362854</ele>
        <time>2011-10-02T09:57:43Z</time>
      </trkpt>
      <trkpt lat="43.2558" lon="6.40742">
        <ele>387.081818</ele>
        <time>2011-10-02T09:57:52Z</time>
      </trkpt>
      <trkpt lat="43.25574" lon="6.40732">
        <ele>386.620972</ele>
        <time>2011-10-02T09:57:54Z</time>
      </trkpt>
      <trkpt lat="43.25551" lon="6.4072">
        <ele>382.241425</ele>
        <time>2011-10-02T09:58:01Z</time>
      </trkpt>
      <trkpt lat="43.25521" lon="6.40718">
        <ele>378.035187</ele>
        <time>2011-10-02T09:58:08Z</time>
      </trkpt>
      <trkpt lat="43.25476" lon="6.40725">
        <ele>373.575317</ele>
        <time>2011-10-02T09:58:19Z</time>
      </trkpt>
      <trkpt lat="43.25459" lon="6.40732">
        <ele>371.041992</ele>
        <time>2011-10-02T09:58:25Z</time>
      </trkpt>
      <trkpt lat="43.2544" lon="6.40742">
        <ele>368.913055</ele>
        <time>2011-10-02T09:58:30Z</time>
      </trkpt>
      <trkpt lat="43.25422" lon="6.4075">
        <ele>367.49054</ele>
        <time>2011-10-02T09:58:42Z</time>
      </trkpt>
      <trkpt lat="43.2542" lon="6.40754">
        <ele>367.083649</ele>
        <time>2011-10-02T09:58:51Z</time>
      </trkpt>
      <trkpt lat="43.25418" lon="6.40763">
        <ele>366.339203</ele>
        <time>2011-10-02T09:59:05Z</time>
      </trkpt>
      <trkpt lat="43.25417" lon="6.40767">
        <ele>365.927399</ele>
        <time>2011-10-02T10:00:08Z</time>
      </trkpt>
      <trkpt lat="43.25418" lon="6.40766">
        <ele>365.992157</ele>
        <time>2011-10-02T10:02:21Z</time>
      </trkpt>
      <trkpt lat="43.25417" lon="6.40763">
        <ele>366.328003</ele>
        <time>2011-10-02T10:06:22Z</time>
      </trkpt>
      <trkpt lat="43.25419" lon="6.40759">
        <ele>366.605957</ele>
        <time>2011-10-02T10:07:12Z</time>
      </trkpt>
      <trkpt lat="43.25419" lon="6.40759">
        <ele>366.620544</ele>
        <time>2011-10-02T10:07:39Z</time>
      </trkpt>
      <trkpt lat="43.25417" lon="6.40758">
        <ele>366.804871</ele>
        <time>2011-10-02T10:08:05Z</time>
      </trkpt>
      <trkpt lat="43.25416" lon="6.40759">
        <ele>366.764984</ele>
        <time>2011-10-02T10:08:20Z</time>
      </trkpt>
      <trkpt lat="43.25415" lon="6.40767">
        <ele>366.0448</ele>
        <time>2011-10-02T10:08:24Z</time>
      </trkpt>
      <trkpt lat="43.25402" lon="6.40786">
        <ele>365.907349</ele>
        <time>2011-10-02T10:08:28Z</time>
      </trkpt>
      <trkpt lat="43.25382" lon="6.40854">
        <ele>360.170013</ele>
        <time>2011-10-02T10:08:36Z</time>
      </trkpt>
      <trkpt lat="43.25358" lon="6.40866">
        <ele>360.196594</ele>
        <time>2011-10-02T10:08:40Z</time>
      </trkpt>
      <trkpt lat="43.25333" lon="6.40885">
        <ele>361.671509</ele>
        <time>2011-10-02T10:08:47Z</time>
      </trkpt>
      <trkpt lat="43.25324" lon="6.40933">
        <ele>356.57547</ele>
        <time>2011-10-02T10:08:53Z</time>
      </trkpt>
      <trkpt lat="43.25308" lon="6.4096">
        <ele>356.404999</ele>
        <time>2011-10-02T10:08:57Z</time>
      </trkpt>
      <trkpt lat="43.25291" lon="6.40993">
        <ele>354.25412</ele>
        <time>2011-10-02T10:09:02Z</time>
      </trkpt>
      <trkpt lat="43.25288" lon="6.41012">
        <ele>351.40921</ele>
        <time>2011-10-02T10:09:04Z</time>
      </trkpt>
      <trkpt lat="43.25278" lon="6.41037">
        <ele>348.319183</ele>
        <time>2011-10-02T10:09:07Z</time>
      </trkpt>
      <trkpt lat="43.2526" lon="6.41069">
        <ele>345.378235</ele>
        <time>2011-10-02T10:09:11Z</time>
      </trkpt>
      <trkpt lat="43.25228" lon="6.41091">
        <ele>339.36319</ele>
        <time>2011-10-02T10:09:17Z</time>
      </trkpt>
      <trkpt lat="43.25208" lon="6.41088">
        <ele>337.532654</ele>
        <time>2011-10-02T10:09:20Z</time>
      </trkpt>
      <trkpt lat="43.2517" lon="6.4104">
        <ele>339.833679</ele>
        <time>2011-10-02T10:09:28Z</time>
      </trkpt>
      <trkpt lat="43.25146" lon="6.41043">
        <ele>339.165375</ele>
        <time>2011-10-02T10:09:33Z</time>
      </trkpt>
      <trkpt lat="43.25137" lon="6.41058">
        <ele>336.102814</ele>
        <time>2011-10-02T10:09:35Z</time>
      </trkpt>
      <trkpt lat="43.25111" lon="6.41096">
        <ele>327.448425</ele>
        <time>2011-10-02T10:09:40Z</time>
      </trkpt>
      <trkpt lat="43.25084" lon="6.41114">
        <ele>324.047241</ele>
        <time>2011-10-02T10:09:44Z</time>
      </trkpt>
      <trkpt lat="43.2506" lon="6.41116">
        <ele>321.78833</ele>
        <time>2011-10-02T10:09:47Z</time>
      </trkpt>
      <trkpt lat="43.25009" lon="6.41102">
        <ele>315.683075</ele>
        <time>2011-10-02T10:09:54Z</time>
      </trkpt>
      <trkpt lat="43.24976" lon="6.41138">
        <ele>310.003815</ele>
        <time>2011-10-02T10:10:01Z</time>
      </trkpt>
      <trkpt lat="43.24968" lon="6.41157">
        <ele>307.751312</ele>
        <time>2011-10-02T10:10:03Z</time>
      </trkpt>
      <trkpt lat="43.24947" lon="6.41192">
        <ele>306.063202</ele>
        <time>2011-10-02T10:10:07Z</time>
      </trkpt>
      <trkpt lat="43.24897" lon="6.4125">
        <ele>300.73999</ele>
        <time>2011-10-02T10:10:15Z</time>
      </trkpt>
      <trkpt lat="43.24847" lon="6.41285">
        <ele>294.040741</ele>
        <time>2011-10-02T10:10:23Z</time>
      </trkpt>
      <trkpt lat="43.24826" lon="6.41274">
        <ele>293.752502</ele>
        <time>2011-10-02T10:10:26Z</time>
      </trkpt>
      <trkpt lat="43.24797" lon="6.41249">
        <ele>292.417511</ele>
        <time>2011-10-02T10:10:31Z</time>
      </trkpt>
      <trkpt lat="43.24789" lon="6.41209">
        <ele>290.003601</ele>
        <time>2011-10-02T10:10:36Z</time>
      </trkpt>
      <trkpt lat="43.24794" lon="6.41097">
        <ele>283.030426</ele>
        <time>2011-10-02T10:10:47Z</time>
      </trkpt>
      <trkpt lat="43.24796" lon="6.41062">
        <ele>280.187012</ele>
        <time>2011-10-02T10:10:50Z</time>
      </trkpt>
      <trkpt lat="43.2483" lon="6.40996">
        <ele>271.964935</ele>
        <time>2011-10-02T10:10:58Z</time>
      </trkpt>
      <trkpt lat="43.24865" lon="6.41006">
        <ele>276.206879</ele>
        <time>2011-10-02T10:11:03Z</time>
      </trkpt>
      <trkpt lat="43.24894" lon="6.40999">
        <ele>273.907837</ele>
        <time>2011-10-02T10:11:10Z</time>
      </trkpt>
      <trkpt lat="43.24886" lon="6.40995">
        <ele>272.510132</ele>
        <time>2011-10-02T10:11:12Z</time>
      </trkpt>
      <trkpt lat="43.24855" lon="6.40981">
        <ele>267.457214</ele>
        <time>2011-10-02T10:11:17Z</time>
      </trkpt>
      <trkpt lat="43.24819" lon="6.40963">
        <ele>262.330627</ele>
        <time>2011-10-02T10:11:22Z</time>
      </trkpt>
      <trkpt lat="43.24793" lon="6.40969">
        <ele>260.304504</ele>
        <time>2011-10-02T10:11:26Z</time>
      </trkpt>
      <trkpt lat="43.24781" lon="6.40979">
        <ele>258.887817</ele>
        <time>2011-10-02T10:11:28Z</time>
      </trkpt>
      <trkpt lat="43.24753" lon="6.41022">
        <ele>256.012512</ele>
        <time>2011-10-02T10:11:34Z</time>
      </trkpt>
      <trkpt lat="43.24742" lon="6.41051">
        <ele>255.106247</ele>
        <time>2011-10-02T10:11:37Z</time>
      </trkpt>
      <trkpt lat="43.24736" lon="6.41079">
        <ele>254.680603</ele>
        <time>2011-10-02T10:11:40Z</time>
      </trkpt>
      <trkpt lat="43.24732" lon="6.41108">
        <ele>254.142731</ele>
        <time>2011-10-02T10:11:43Z</time>
      </trkpt>
      <trkpt lat="43.24727" lon="6.41128">
        <ele>252.792114</ele>
        <time>2011-10-02T10:11:45Z</time>
      </trkpt>
      <trkpt lat="43.2467" lon="6.41259">
        <ele>242.250229</ele>
        <time>2011-10-02T10:11:57Z</time>
      </trkpt>
      <trkpt lat="43.24642" lon="6.41383">
        <ele>230.787888</ele>
        <time>2011-10-02T10:12:07Z</time>
      </trkpt>
      <trkpt lat="43.2464" lon="6.41393">
        <ele>229.233536</ele>
        <time>2011-10-02T10:12:08Z</time>
      </trkpt>
      <trkpt lat="43.24657" lon="6.41432">
        <ele>225.746124</ele>
        <time>2011-10-02T10:12:14Z</time>
      </trkpt>
      <trkpt lat="43.24672" lon="6.41431">
        <ele>225.404205</ele>
        <time>2011-10-02T10:12:16Z</time>
      </trkpt>
      <trkpt lat="43.24687" lon="6.41431">
        <ele>225.043594</ele>
        <time>2011-10-02T10:12:18Z</time>
      </trkpt>
      <trkpt lat="43.24718" lon="6.41422">
        <ele>226.209991</ele>
        <time>2011-10-02T10:12:23Z</time>
      </trkpt>
      <trkpt lat="43.24716" lon="6.41435">
        <ele>220.6875</ele>
        <time>2011-10-02T10:12:28Z</time>
      </trkpt>
      <trkpt lat="43.24697" lon="6.41441">
        <ele>220.220993</ele>
        <time>2011-10-02T10:12:31Z</time>
      </trkpt>
      <trkpt lat="43.24666" lon="6.41451">
        <ele>218.758743</ele>
        <time>2011-10-02T10:12:36Z</time>
      </trkpt>
      <trkpt lat="43.24623" lon="6.41501">
        <ele>207.065048</ele>
        <time>2011-10-02T10:12:43Z</time>
      </trkpt>
      <trkpt lat="43.24602" lon="6.41499">
        <ele>209.427444</ele>
        <time>2011-10-02T10:12:47Z</time>
      </trkpt>
      <trkpt lat="43.24571" lon="6.41508">
        <ele>205.976227</ele>
        <time>2011-10-02T10:12:52Z</time>
      </trkpt>
      <trkpt lat="43.24541" lon="6.41563">
        <ele>198.358109</ele>
        <time>2011-10-02T10:12:58Z</time>
      </trkpt>
      <trkpt lat="43.24514" lon="6.41612">
        <ele>195.135498</ele>
        <time>2011-10-02T10:13:03Z</time>
      </trkpt>
      <trkpt lat="43.24479" lon="6.41692">
        <ele>188.363708</ele>
        <time>2011-10-02T10:13:10Z</time>
      </trkpt>
      <trkpt lat="43.24459" lon="6.41733">
        <ele>186.546371</ele>
        <time>2011-10-02T10:13:14Z</time>
      </trkpt>
      <trkpt lat="43.24449" lon="6.41752">
        <ele>184.65831</ele>
        <time>2011-10-02T10:13:16Z</time>
      </trkpt>
      <trkpt lat="43.24418" lon="6.41809">
        <ele>181.961029</ele>
        <time>2011-10-02T10:13:22Z</time>
      </trkpt>
      <trkpt lat="43.24402" lon="6.4184">
        <ele>177.14241</ele>
        <time>2011-10-02T10:13:25Z</time>
      </trkpt>
      <trkpt lat="43.24375" lon="6.41875">
        <ele>175.072647</ele>
        <time>2011-10-02T10:13:29Z</time>
      </trkpt>
      <trkpt lat="43.24364" lon="6.41887">
        <ele>172.933502</ele>
        <time>2011-10-02T10:13:31Z</time>
      </trkpt>
      <trkpt lat="43.24342" lon="6.41898">
        <ele>168.439301</ele>
        <time>2011-10-02T10:13:34Z</time>
      </trkpt>
      <trkpt lat="43.24286" lon="6.41866">
        <ele>162.557648</ele>
        <time>2011-10-02T10:13:42Z</time>
      </trkpt>
      <trkpt lat="43.24274" lon="6.41825">
        <ele>163.508881</ele>
        <time>2011-10-02T10:13:47Z</time>
      </trkpt>
      <trkpt lat="43.24267" lon="6.41739">
        <ele>163.114273</ele>
        <time>2011-10-02T10:13:55Z</time>
      </trkpt>
      <trkpt lat="43.24219" lon="6.4169">
        <ele>162.722534</ele>
        <time>2011-10-02T10:14:05Z</time>
      </trkpt>
      <trkpt lat="43.24179" lon="6.41689">
        <ele>157.978622</ele>
        <time>2011-10-02T10:14:15Z</time>
      </trkpt>
      <trkpt lat="43.24176" lon="6.4169">
        <ele>157.702972</ele>
        <time>2011-10-02T10:14:16Z</time>
      </trkpt>
      <trkpt lat="43.24128" lon="6.41689">
        <ele>153.532501</ele>
        <time>2011-10-02T10:14:25Z</time>
      </trkpt>
      <trkpt lat="43.24118" lon="6.41656">
        <ele>153.222443</ele>
        <time>2011-10-02T10:14:32Z</time>
      </trkpt>
      <trkpt lat="43.24132" lon="6.41642">
        <ele>156.194077</ele>
        <time>2011-10-02T10:14:35Z</time>
      </trkpt>
      <trkpt lat="43.24143" lon="6.41632">
        <ele>157.811905</ele>
        <time>2011-10-02T10:14:37Z</time>
      </trkpt>
      <trkpt lat="43.24154" lon="6.41619">
        <ele>156.301453</ele>
        <time>2011-10-02T10:14:39Z</time>
      </trkpt>
      <trkpt lat="43.24164" lon="6.41605">
        <ele>154.485458</ele>
        <time>2011-10-02T10:14:41Z</time>
      </trkpt>
      <trkpt lat="43.24181" lon="6.41567">
        <ele>149.629669</ele>
        <time>2011-10-02T10:14:45Z</time>
      </trkpt>
      <trkpt lat="43.24205" lon="6.41534">
        <ele>146.528793</ele>
        <time>2011-10-02T10:14:49Z</time>
      </trkpt>
      <trkpt lat="43.24255" lon="6.41475">
        <ele>138.480316</ele>
        <time>2011-10-02T10:14:56Z</time>
      </trkpt>
      <trkpt lat="43.24271" lon="6.41447">
        <ele>133.850815</ele>
        <time>2011-10-02T10:14:59Z</time>
      </trkpt>
      <trkpt lat="43.24308" lon="6.41401">
        <ele>130.073471</ele>
        <time>2011-10-02T10:15:05Z</time>
      </trkpt>
      <trkpt lat="43.24335" lon="6.41379">
        <ele>129.904999</ele>
        <time>2011-10-02T10:15:09Z</time>
      </trkpt>
      <trkpt lat="43.24363" lon="6.41341">
        <ele>128.616257</ele>
        <time>2011-10-02T10:15:17Z</time>
      </trkpt>
      <trkpt lat="43.24346" lon="6.4131">
        <ele>126.820877</ele>
        <time>2011-10-02T10:15:22Z</time>
      </trkpt>
      <trkpt lat="43.24328" lon="6.41245">
        <ele>126.293709</ele>
        <time>2011-10-02T10:15:29Z</time>
      </trkpt>
      <trkpt lat="43.24283" lon="6.4118">
        <ele>120.568909</ele>
        <time>2011-10-02T10:15:37Z</time>
      </trkpt>
      <trkpt lat="43.24264" lon="6.41165">
        <ele>117.628639</ele>
        <time>2011-10-02T10:15:40Z</time>
      </trkpt>
      <trkpt lat="43.24235" lon="6.41148">
        <ele>116.302628</ele>
        <time>2011-10-02T10:15:44Z</time>
      </trkpt>
      <trkpt lat="43.24205" lon="6.41151">
        <ele>113.118546</ele>
        <time>2011-10-02T10:15:48Z</time>
      </trkpt>
      <trkpt lat="43.24153" lon="6.41185">
        <ele>104.990723</ele>
        <time>2011-10-02T10:15:55Z</time>
      </trkpt>
      <trkpt lat="43.24125" lon="6.41188">
        <ele>103.373199</ele>
        <time>2011-10-02T10:15:59Z</time>
      </trkpt>
      <trkpt lat="43.24111" lon="6.41182">
        <ele>102.94104</ele>
        <time>2011-10-02T10:16:01Z</time>
      </trkpt>
      <trkpt lat="43.24091" lon="6.41166">
        <ele>100.766235</ele>
        <time>2011-10-02T10:16:05Z</time>
      </trkpt>
      <trkpt lat="43.24079" lon="6.41182">
        <ele>99.186691</ele>
        <time>2011-10-02T10:16:11Z</time>
      </trkpt>
      <trkpt lat="43.24081" lon="6.41187">
        <ele>99.612503</ele>
        <time>2011-10-02T10:16:12Z</time>
      </trkpt>
      <trkpt lat="43.2409" lon="6.41235">
        <ele>101.967972</ele>
        <time>2011-10-02T10:16:22Z</time>
      </trkpt>
      <trkpt lat="43.24091" lon="6.41249">
        <ele>102.673187</ele>
        <time>2011-10-02T10:16:26Z</time>
      </trkpt>
      <trkpt lat="43.24093" lon="6.41277">
        <ele>103.292397</ele>
        <time>2011-10-02T10:16:38Z</time>
      </trkpt>
      <trkpt lat="43.24098" lon="6.41293">
        <ele>103.167328</ele>
        <time>2011-10-02T10:16:46Z</time>
      </trkpt>
      <trkpt lat="43.24108" lon="6.41303">
        <ele>102.683945</ele>
        <time>2011-10-02T10:16:53Z</time>
      </trkpt>
      <trkpt lat="43.24114" lon="6.41314">
        <ele>102.689095</ele>
        <time>2011-10-02T10:16:58Z</time>
      </trkpt>
      <trkpt lat="43.24107" lon="6.41322">
        <ele>103.403053</ele>
        <time>2011-10-02T10:17:05Z</time>
      </trkpt>
      <trkpt lat="43.24102" lon="6.4132">
        <ele>103.578125</ele>
        <time>2011-10-02T10:17:08Z</time>
      </trkpt>
      <trkpt lat="43.24082" lon="6.41299">
        <ele>104.419098</ele>
        <time>2011-10-02T10:17:22Z</time>
      </trkpt>
      <trkpt lat="43.24076" lon="6.41291">
        <ele>104.87632</ele>
        <time>2011-10-02T10:17:35Z</time>
      </trkpt>
      <trkpt lat="43.24065" lon="6.41278">
        <ele>107.449036</ele>
        <time>2011-10-02T10:17:46Z</time>
      </trkpt>
      <trkpt lat="43.24061" lon="6.41275">
        <ele>108.452278</ele>
        <time>2011-10-02T10:17:48Z</time>
      </trkpt>
      <trkpt lat="43.24043" lon="6.41277">
        <ele>112.581024</ele>
        <time>2011-10-02T10:17:58Z</time>
      </trkpt>
      <trkpt lat="43.24023" lon="6.41292">
        <ele>112.899376</ele>
        <time>2011-10-02T10:18:09Z</time>
      </trkpt>
      <trkpt lat="43.23986" lon="6.41282">
        <ele>120.287949</ele>
        <time>2011-10-02T10:18:24Z</time>
      </trkpt>
      <trkpt lat="43.23982" lon="6.41284">
        <ele>120.687889</ele>
        <time>2011-10-02T10:18:25Z</time>
      </trkpt>
      <trkpt lat="43.23969" lon="6.41301">
        <ele>119.054451</ele>
        <time>2011-10-02T10:18:29Z</time>
      </trkpt>
      <trkpt lat="43.23948" lon="6.41328">
        <ele>117.458595</ele>
        <time>2011-10-02T10:18:35Z</time>
      </trkpt>
      <trkpt lat="43.23939" lon="6.4133">
        <ele>119.260674</ele>
        <time>2011-10-02T10:18:37Z</time>
      </trkpt>
      <trkpt lat="43.23923" lon="6.41364">
        <ele>115.346565</ele>
        <time>2011-10-02T10:18:43Z</time>
      </trkpt>
      <trkpt lat="43.23919" lon="6.41402">
        <ele>109.426003</ele>
        <time>2011-10-02T10:18:47Z</time>
      </trkpt>
      <trkpt lat="43.23912" lon="6.41421">
        <ele>108.000175</ele>
        <time>2011-10-02T10:18:49Z</time>
      </trkpt>
      <trkpt lat="43.23894" lon="6.41465">
        <ele>108.801247</ele>
        <time>2011-10-02T10:18:55Z</time>
      </trkpt>
      <trkpt lat="43.23901" lon="6.41493">
        <ele>105.324997</ele>
        <time>2011-10-02T10:18:58Z</time>
      </trkpt>
      <trkpt lat="43.23902" lon="6.41514">
        <ele>104.964905</ele>
        <time>2011-10-02T10:19:00Z</time>
      </trkpt>
      <trkpt lat="43.23901" lon="6.41534">
        <ele>105.683968</ele>
        <time>2011-10-02T10:19:02Z</time>
      </trkpt>
      <trkpt lat="43.23905" lon="6.41574">
        <ele>103.705154</ele>
        <time>2011-10-02T10:19:09Z</time>
      </trkpt>
      <trkpt lat="43.23901" lon="6.41593">
        <ele>105.040497</ele>
        <time>2011-10-02T10:19:14Z</time>
      </trkpt>
      <trkpt lat="43.23888" lon="6.41638">
        <ele>107.883804</ele>
        <time>2011-10-02T10:19:27Z</time>
      </trkpt>
      <trkpt lat="43.23879" lon="6.41674">
        <ele>108.667198</ele>
        <time>2011-10-02T10:19:35Z</time>
      </trkpt>
      <trkpt lat="43.23874" lon="6.41699">
        <ele>106.898346</ele>
        <time>2011-10-02T10:19:40Z</time>
      </trkpt>
      <trkpt lat="43.23848" lon="6.41752">
        <ele>109.251923</ele>
        <time>2011-10-02T10:19:49Z</time>
      </trkpt>
      <trkpt lat="43.23839" lon="6.41772">
        <ele>107.554199</ele>
        <time>2011-10-02T10:19:52Z</time>
      </trkpt>
      <trkpt lat="43.23822" lon="6.41802">
        <ele>103.627472</ele>
        <time>2011-10-02T10:19:56Z</time>
      </trkpt>
      <trkpt lat="43.23805" lon="6.41827">
        <ele>99.771309</ele>
        <time>2011-10-02T10:19:59Z</time>
      </trkpt>
      <trkpt lat="43.23794" lon="6.41841">
        <ele>96.388344</ele>
        <time>2011-10-02T10:20:01Z</time>
      </trkpt>
      <trkpt lat="43.23768" lon="6.41855">
        <ele>91.68441</ele>
        <time>2011-10-02T10:20:05Z</time>
      </trkpt>
      <trkpt lat="43.23726" lon="6.41845">
        <ele>92.162979</ele>
        <time>2011-10-02T10:20:12Z</time>
      </trkpt>
      <trkpt lat="43.23697" lon="6.41806">
        <ele>98.496231</ele>
        <time>2011-10-02T10:20:27Z</time>
      </trkpt>
      <trkpt lat="43.23685" lon="6.41801">
        <ele>100.183403</ele>
        <time>2011-10-02T10:20:32Z</time>
      </trkpt>
      <trkpt lat="43.23677" lon="6.41813">
        <ele>99.850998</ele>
        <time>2011-10-02T10:20:37Z</time>
      </trkpt>
      <trkpt lat="43.23674" lon="6.41821">
        <ele>99.494301</ele>
        <time>2011-10-02T10:20:40Z</time>
      </trkpt>
      <trkpt lat="43.23669" lon="6.41831">
        <ele>99.957397</ele>
        <time>2011-10-02T10:20:44Z</time>
      </trkpt>
      <trkpt lat="43.23667" lon="6.41856">
        <ele>98.792</ele>
        <time>2011-10-02T10:20:53Z</time>
      </trkpt>
      <trkpt lat="43.23668" lon="6.41867">
        <ele>97.768074</ele>
        <time>2011-10-02T10:20:56Z</time>
      </trkpt>
      <trkpt lat="43.23654" lon="6.41918">
        <ele>101.187836</ele>
        <time>2011-10-02T10:21:09Z</time>
      </trkpt>
      <trkpt lat="43.23646" lon="6.41969">
        <ele>101.121704</ele>
        <time>2011-10-02T10:21:21Z</time>
      </trkpt>
      <trkpt lat="43.23636" lon="6.42025">
        <ele>99.822128</ele>
        <time>2011-10-02T10:21:32Z</time>
      </trkpt>
      <trkpt lat="43.23628" lon="6.42054">
        <ele>98.756706</ele>
        <time>2011-10-02T10:21:37Z</time>
      </trkpt>
      <trkpt lat="43.23605" lon="6.42104">
        <ele>103.024948</ele>
        <time>2011-10-02T10:21:46Z</time>
      </trkpt>
      <trkpt lat="43.23602" lon="6.42125">
        <ele>103.176559</ele>
        <time>2011-10-02T10:21:49Z</time>
      </trkpt>
      <trkpt lat="43.23592" lon="6.42165">
        <ele>105.873749</ele>
        <time>2011-10-02T10:21:55Z</time>
      </trkpt>
      <trkpt lat="43.23589" lon="6.42192">
        <ele>107.606247</ele>
        <time>2011-10-02T10:21:59Z</time>
      </trkpt>
      <trkpt lat="43.23594" lon="6.42225">
        <ele>105.116371</ele>
        <time>2011-10-02T10:22:04Z</time>
      </trkpt>
      <trkpt lat="43.23594" lon="6.42246">
        <ele>105.370483</ele>
        <time>2011-10-02T10:22:07Z</time>
      </trkpt>
      <trkpt lat="43.23586" lon="6.42271">
        <ele>109.759438</ele>
        <time>2011-10-02T10:22:11Z</time>
      </trkpt>
      <trkpt lat="43.23586" lon="6.42309">
        <ele>111.062607</ele>
        <time>2011-10-02T10:22:17Z</time>
      </trkpt>
      <trkpt lat="43.23596" lon="6.42354">
        <ele>108.665001</ele>
        <time>2011-10-02T10:22:24Z</time>
      </trkpt>
      <trkpt lat="43.23606" lon="6.42379">
        <ele>105.245003</ele>
        <time>2011-10-02T10:22:28Z</time>
      </trkpt>
      <trkpt lat="43.23616" lon="6.42395">
        <ele>101.400002</ele>
        <time>2011-10-02T10:22:31Z</time>
      </trkpt>
      <trkpt lat="43.2363" lon="6.42415">
        <ele>98.485939</ele>
        <time>2011-10-02T10:22:35Z</time>
      </trkpt>
      <trkpt lat="43.23646" lon="6.42447">
        <ele>98</ele>
        <time>2011-10-02T10:22:40Z</time>
      </trkpt>
      <trkpt lat="43.23652" lon="6.42462">
        <ele>97.092499</ele>
        <time>2011-10-02T10:22:42Z</time>
      </trkpt>
      <trkpt lat="43.23687" lon="6.42542">
        <ele>94.031502</ele>
        <time>2011-10-02T10:22:52Z</time>
      </trkpt>
      <trkpt lat="43.23679" lon="6.42587">
        <ele>96.06044</ele>
        <time>2011-10-02T10:22:59Z</time>
      </trkpt>
      <trkpt lat="43.23647" lon="6.42596">
        <ele>98.454033</ele>
        <time>2011-10-02T10:23:05Z</time>
      </trkpt>
      <trkpt lat="43.236" lon="6.42609">
        <ele>98.056259</ele>
        <time>2011-10-02T10:23:14Z</time>
      </trkpt>
      <trkpt lat="43.23589" lon="6.4261">
        <ele>98.645874</ele>
        <time>2011-10-02T10:23:16Z</time>
      </trkpt>
      <trkpt lat="43.23562" lon="6.42612">
        <ele>100.625</ele>
        <time>2011-10-02T10:23:21Z</time>
      </trkpt>
      <trkpt lat="43.23532" lon="6.42621">
        <ele>101.162498</ele>
        <time>2011-10-02T10:23:27Z</time>
      </trkpt>
      <trkpt lat="43.2346" lon="6.42672">
        <ele>98.199448</ele>
        <time>2011-10-02T10:23:41Z</time>
      </trkpt>
      <trkpt lat="43.23436" lon="6.42692">
        <ele>97.845116</ele>
        <time>2011-10-02T10:23:46Z</time>
      </trkpt>
      <trkpt lat="43.23417" lon="6.42707">
        <ele>95.574394</ele>
        <time>2011-10-02T10:23:50Z</time>
      </trkpt>
      <trkpt lat="43.23407" lon="6.42711">
        <ele>95.704002</ele>
        <time>2011-10-02T10:23:52Z</time>
      </trkpt>
      <trkpt lat="43.23364" lon="6.42708">
        <ele>97.373802</ele>
        <time>2011-10-02T10:24:00Z</time>
      </trkpt>
      <trkpt lat="43.23343" lon="6.42698">
        <ele>97.765747</ele>
        <time>2011-10-02T10:24:04Z</time>
      </trkpt>
      <trkpt lat="43.23277" lon="6.42641">
        <ele>98.872208</ele>
        <time>2011-10-02T10:24:18Z</time>
      </trkpt>
      <trkpt lat="43.23244" lon="6.42611">
        <ele>101.172501</ele>
        <time>2011-10-02T10:24:25Z</time>
      </trkpt>
      <trkpt lat="43.23224" lon="6.42603">
        <ele>99.972504</ele>
        <time>2011-10-02T10:24:29Z</time>
      </trkpt>
      <trkpt lat="43.23193" lon="6.42595">
        <ele>94.779503</ele>
        <time>2011-10-02T10:24:40Z</time>
      </trkpt>
      <trkpt lat="43.23168" lon="6.42562">
        <ele>96.233124</ele>
        <time>2011-10-02T10:24:52Z</time>
      </trkpt>
      <trkpt lat="43.23155" lon="6.42541">
        <ele>98.286125</ele>
        <time>2011-10-02T10:24:59Z</time>
      </trkpt>
      <trkpt lat="43.23152" lon="6.42529">
        <ele>99.427055</ele>
        <time>2011-10-02T10:25:01Z</time>
      </trkpt>
      <trkpt lat="43.23121" lon="6.42467">
        <ele>98.62738</ele>
        <time>2011-10-02T10:25:09Z</time>
      </trkpt>
      <trkpt lat="43.23096" lon="6.42456">
        <ele>101.728127</ele>
        <time>2011-10-02T10:25:15Z</time>
      </trkpt>
      <trkpt lat="43.23094" lon="6.42477">
        <ele>102.244957</ele>
        <time>2011-10-02T10:25:22Z</time>
      </trkpt>
      <trkpt lat="43.23094" lon="6.42487">
        <ele>102.740128</ele>
        <time>2011-10-02T10:25:26Z</time>
      </trkpt>
      <trkpt lat="43.231" lon="6.42529">
        <ele>103.27372</ele>
        <time>2011-10-02T10:25:41Z</time>
      </trkpt>
      <trkpt lat="43.231" lon="6.42543">
        <ele>103.926315</ele>
        <time>2011-10-02T10:25:46Z</time>
      </trkpt>
      <trkpt lat="43.23103" lon="6.42553">
        <ele>103.893471</ele>
        <time>2011-10-02T10:25:50Z</time>
      </trkpt>
      <trkpt lat="43.23109" lon="6.42593">
        <ele>105.39119</ele>
        <time>2011-10-02T10:26:04Z</time>
      </trkpt>
      <trkpt lat="43.2312" lon="6.42638">
        <ele>102.057503</ele>
        <time>2011-10-02T10:26:19Z</time>
      </trkpt>
      <trkpt lat="43.23118" lon="6.42657">
        <ele>102.612503</ele>
        <time>2011-10-02T10:26:24Z</time>
      </trkpt>
      <trkpt lat="43.23121" lon="6.4269">
        <ele>103.949562</ele>
        <time>2011-10-02T10:26:29Z</time>
      </trkpt>
      <trkpt lat="43.23134" lon="6.4271">
        <ele>102.85965</ele>
        <time>2011-10-02T10:26:34Z</time>
      </trkpt>
      <trkpt lat="43.23148" lon="6.42713">
        <ele>99.489723</ele>
        <time>2011-10-02T10:26:37Z</time>
      </trkpt>
      <trkpt lat="43.23177" lon="6.42754">
        <ele>96.719788</ele>
        <time>2011-10-02T10:26:46Z</time>
      </trkpt>
      <trkpt lat="43.23177" lon="6.42843">
        <ele>98.67215</ele>
        <time>2011-10-02T10:26:57Z</time>
      </trkpt>
      <trkpt lat="43.23165" lon="6.42919">
        <ele>97.055664</ele>
        <time>2011-10-02T10:27:07Z</time>
      </trkpt>
      <trkpt lat="43.23156" lon="6.42952">
        <ele>97.514076</ele>
        <time>2011-10-02T10:27:12Z</time>
      </trkpt>
      <trkpt lat="43.23147" lon="6.42997">
        <ele>97.913651</ele>
        <time>2011-10-02T10:27:19Z</time>
      </trkpt>
      <trkpt lat="43.23135" lon="6.43025">
        <ele>100.410126</ele>
        <time>2011-10-02T10:27:24Z</time>
      </trkpt>
      <trkpt lat="43.23115" lon="6.43077">
        <ele>97.822189</ele>
        <time>2011-10-02T10:27:36Z</time>
      </trkpt>
      <trkpt lat="43.23086" lon="6.4309">
        <ele>102.296402</ele>
        <time>2011-10-02T10:27:49Z</time>
      </trkpt>
      <trkpt lat="43.23061" lon="6.43104">
        <ele>106.93084</ele>
        <time>2011-10-02T10:28:01Z</time>
      </trkpt>
      <trkpt lat="43.23059" lon="6.43108">
        <ele>107.636002</ele>
        <time>2011-10-02T10:28:02Z</time>
      </trkpt>
      <trkpt lat="43.23071" lon="6.43146">
        <ele>102.286972</ele>
        <time>2011-10-02T10:28:12Z</time>
      </trkpt>
      <trkpt lat="43.23076" lon="6.43163">
        <ele>99.046501</ele>
        <time>2011-10-02T10:28:15Z</time>
      </trkpt>
      <trkpt lat="43.23077" lon="6.43188">
        <ele>96.500954</ele>
        <time>2011-10-02T10:28:19Z</time>
      </trkpt>
      <trkpt lat="43.23071" lon="6.43211">
        <ele>96.379456</ele>
        <time>2011-10-02T10:28:23Z</time>
      </trkpt>
      <trkpt lat="43.23062" lon="6.43226">
        <ele>96.839745</ele>
        <time>2011-10-02T10:28:26Z</time>
      </trkpt>
      <trkpt lat="43.23056" lon="6.43233">
        <ele>97.284966</ele>
        <time>2011-10-02T10:28:28Z</time>
      </trkpt>
      <trkpt lat="43.2303" lon="6.43255">
        <ele>99.903175</ele>
        <time>2011-10-02T10:28:35Z</time>
      </trkpt>
      <trkpt lat="43.23019" lon="6.43267">
        <ele>100.104103</ele>
        <time>2011-10-02T10:28:38Z</time>
      </trkpt>
      <trkpt lat="43.23006" lon="6.43313">
        <ele>100.164101</ele>
        <time>2011-10-02T10:28:46Z</time>
      </trkpt>
      <trkpt lat="43.23002" lon="6.43323">
        <ele>101.406517</ele>
        <time>2011-10-02T10:28:48Z</time>
      </trkpt>
      <trkpt lat="43.22995" lon="6.43337">
        <ele>104.200554</ele>
        <time>2011-10-02T10:28:51Z</time>
      </trkpt>
      <trkpt lat="43.22994" lon="6.43377">
        <ele>102.669197</ele>
        <time>2011-10-02T10:28:58Z</time>
      </trkpt>
      <trkpt lat="43.22995" lon="6.43401">
        <ele>101.070847</ele>
        <time>2011-10-02T10:29:02Z</time>
      </trkpt>
      <trkpt lat="43.22992" lon="6.43424">
        <ele>101.836395</ele>
        <time>2011-10-02T10:29:06Z</time>
      </trkpt>
      <trkpt lat="43.22987" lon="6.43441">
        <ele>103.899872</ele>
        <time>2011-10-02T10:29:09Z</time>
      </trkpt>
      <trkpt lat="43.22977" lon="6.43493">
        <ele>107.110001</ele>
        <time>2011-10-02T10:29:18Z</time>
      </trkpt>
      <trkpt lat="43.22975" lon="6.43511">
        <ele>107.532501</ele>
        <time>2011-10-02T10:29:21Z</time>
      </trkpt>
      <trkpt lat="43.22973" lon="6.43529">
        <ele>107.649597</ele>
        <time>2011-10-02T10:29:24Z</time>
      </trkpt>
      <trkpt lat="43.2297" lon="6.43546">
        <ele>108.049171</ele>
        <time>2011-10-02T10:29:27Z</time>
      </trkpt>
      <trkpt lat="43.22971" lon="6.43557">
        <ele>106.998871</ele>
        <time>2011-10-02T10:29:29Z</time>
      </trkpt>
      <trkpt lat="43.22977" lon="6.43574">
        <ele>103.69735</ele>
        <time>2011-10-02T10:29:32Z</time>
      </trkpt>
      <trkpt lat="43.2297" lon="6.43636">
        <ele>100.704674</ele>
        <time>2011-10-02T10:29:43Z</time>
      </trkpt>
      <trkpt lat="43.22963" lon="6.43644">
        <ele>102.29966</ele>
        <time>2011-10-02T10:29:45Z</time>
      </trkpt>
      <trkpt lat="43.22888" lon="6.43687">
        <ele>102.392998</ele>
        <time>2011-10-02T10:30:04Z</time>
      </trkpt>
      <trkpt lat="43.22853" lon="6.43686">
        <ele>101.879997</ele>
        <time>2011-10-02T10:30:11Z</time>
      </trkpt>
      <trkpt lat="43.22829" lon="6.43678">
        <ele>101.764999</ele>
        <time>2011-10-02T10:30:15Z</time>
      </trkpt>
      <trkpt lat="43.22784" lon="6.43655">
        <ele>108.867325</ele>
        <time>2011-10-02T10:30:27Z</time>
      </trkpt>
      <trkpt lat="43.22775" lon="6.43659">
        <ele>108.694672</ele>
        <time>2011-10-02T10:30:30Z</time>
      </trkpt>
      <trkpt lat="43.22774" lon="6.43712">
        <ele>102.905464</ele>
        <time>2011-10-02T10:30:41Z</time>
      </trkpt>
      <trkpt lat="43.22779" lon="6.4374">
        <ele>100.5093</ele>
        <time>2011-10-02T10:30:46Z</time>
      </trkpt>
      <trkpt lat="43.22768" lon="6.43775">
        <ele>101.970497</ele>
        <time>2011-10-02T10:30:52Z</time>
      </trkpt>
      <trkpt lat="43.22754" lon="6.4381">
        <ele>105.237068</ele>
        <time>2011-10-02T10:30:58Z</time>
      </trkpt>
      <trkpt lat="43.2275" lon="6.43831">
        <ele>103.768501</ele>
        <time>2011-10-02T10:31:01Z</time>
      </trkpt>
      <trkpt lat="43.22746" lon="6.43843">
        <ele>103.453278</ele>
        <time>2011-10-02T10:31:03Z</time>
      </trkpt>
      <trkpt lat="43.22737" lon="6.4386">
        <ele>103.513222</ele>
        <time>2011-10-02T10:31:06Z</time>
      </trkpt>
      <trkpt lat="43.22708" lon="6.43904">
        <ele>102.94381</ele>
        <time>2011-10-02T10:31:15Z</time>
      </trkpt>
      <trkpt lat="43.22676" lon="6.43942">
        <ele>98.945732</ele>
        <time>2011-10-02T10:31:23Z</time>
      </trkpt>
      <trkpt lat="43.22632" lon="6.43937">
        <ele>100.571136</ele>
        <time>2011-10-02T10:31:32Z</time>
      </trkpt>
      <trkpt lat="43.22621" lon="6.4393">
        <ele>102.378044</ele>
        <time>2011-10-02T10:31:34Z</time>
      </trkpt>
      <trkpt lat="43.22554" lon="6.43917">
        <ele>100.730873</ele>
        <time>2011-10-02T10:31:46Z</time>
      </trkpt>
      <trkpt lat="43.22548" lon="6.43916">
        <ele>100.5243</ele>
        <time>2011-10-02T10:31:47Z</time>
      </trkpt>
      <trkpt lat="43.22531" lon="6.43909">
        <ele>101.766525</ele>
        <time>2011-10-02T10:31:50Z</time>
      </trkpt>
      <trkpt lat="43.22507" lon="6.43893">
        <ele>107.550652</ele>
        <time>2011-10-02T10:31:55Z</time>
      </trkpt>
      <trkpt lat="43.22486" lon="6.43893">
        <ele>109.867447</ele>
        <time>2011-10-02T10:32:02Z</time>
      </trkpt>
      <trkpt lat="43.22491" lon="6.43905">
        <ele>107.202866</ele>
        <time>2011-10-02T10:32:05Z</time>
      </trkpt>
      <trkpt lat="43.22504" lon="6.43927">
        <ele>103.870499</ele>
        <time>2011-10-02T10:32:10Z</time>
      </trkpt>
      <trkpt lat="43.22514" lon="6.43945">
        <ele>101.632248</ele>
        <time>2011-10-02T10:32:14Z</time>
      </trkpt>
      <trkpt lat="43.22517" lon="6.43962">
        <ele>100.668877</ele>
        <time>2011-10-02T10:32:17Z</time>
      </trkpt>
      <trkpt lat="43.22512" lon="6.44001">
        <ele>101.402611</ele>
        <time>2011-10-02T10:32:23Z</time>
      </trkpt>
      <trkpt lat="43.22504" lon="6.44023">
        <ele>103.088692</ele>
        <time>2011-10-02T10:32:27Z</time>
      </trkpt>
      <trkpt lat="43.22511" lon="6.44048">
        <ele>103.412971</ele>
        <time>2011-10-02T10:32:34Z</time>
      </trkpt>
      <trkpt lat="43.22514" lon="6.4405">
        <ele>103.116646</ele>
        <time>2011-10-02T10:32:35Z</time>
      </trkpt>
      <trkpt lat="43.22542" lon="6.4407">
        <ele>104.771774</ele>
        <time>2011-10-02T10:32:44Z</time>
      </trkpt>
      <trkpt lat="43.22558" lon="6.44089">
        <ele>107.804184</ele>
        <time>2011-10-02T10:32:54Z</time>
      </trkpt>
      <trkpt lat="43.22565" lon="6.44096">
        <ele>108.401001</ele>
        <time>2011-10-02T10:32:59Z</time>
      </trkpt>
      <trkpt lat="43.22589" lon="6.44124">
        <ele>109.992241</ele>
        <time>2011-10-02T10:33:13Z</time>
      </trkpt>
      <trkpt lat="43.22614" lon="6.44156">
        <ele>110.067436</ele>
        <time>2011-10-02T10:33:29Z</time>
      </trkpt>
      <trkpt lat="43.22619" lon="6.44167">
        <ele>110.941757</ele>
        <time>2011-10-02T10:33:34Z</time>
      </trkpt>
      <trkpt lat="43.22634" lon="6.44205">
        <ele>114.184402</ele>
        <time>2011-10-02T10:33:48Z</time>
      </trkpt>
      <trkpt lat="43.22655" lon="6.4424">
        <ele>112.858749</ele>
        <time>2011-10-02T10:34:01Z</time>
      </trkpt>
      <trkpt lat="43.22663" lon="6.4427">
        <ele>111.099998</ele>
        <time>2011-10-02T10:34:08Z</time>
      </trkpt>
      <trkpt lat="43.22668" lon="6.44285">
        <ele>109.834999</ele>
        <time>2011-10-02T10:34:11Z</time>
      </trkpt>
      <trkpt lat="43.22657" lon="6.44349">
        <ele>104.709251</ele>
        <time>2011-10-02T10:34:19Z</time>
      </trkpt>
      <trkpt lat="43.22652" lon="6.44354">
        <ele>105.426437</ele>
        <time>2011-10-02T10:34:20Z</time>
      </trkpt>
      <trkpt lat="43.2263" lon="6.44385">
        <ele>107.901199</ele>
        <time>2011-10-02T10:34:25Z</time>
      </trkpt>
      <trkpt lat="43.22623" lon="6.4441">
        <ele>106.530716</ele>
        <time>2011-10-02T10:34:28Z</time>
      </trkpt>
      <trkpt lat="43.2262" lon="6.4444">
        <ele>102.643997</ele>
        <time>2011-10-02T10:34:31Z</time>
      </trkpt>
      <trkpt lat="43.22601" lon="6.44521">
        <ele>100.280899</ele>
        <time>2011-10-02T10:34:39Z</time>
      </trkpt>
      <trkpt lat="43.22601" lon="6.44532">
        <ele>99.060684</ele>
        <time>2011-10-02T10:34:40Z</time>
      </trkpt>
      <trkpt lat="43.22578" lon="6.44608">
        <ele>102.893867</ele>
        <time>2011-10-02T10:34:49Z</time>
      </trkpt>
      <trkpt lat="43.22577" lon="6.44641">
        <ele>101.75222</ele>
        <time>2011-10-02T10:34:53Z</time>
      </trkpt>
      <trkpt lat="43.22581" lon="6.44666">
        <ele>99.12394</ele>
        <time>2011-10-02T10:34:56Z</time>
      </trkpt>
      <trkpt lat="43.22594" lon="6.44693">
        <ele>96.371246</ele>
        <time>2011-10-02T10:35:00Z</time>
      </trkpt>
      <trkpt lat="43.22594" lon="6.44764">
        <ele>94.483299</ele>
        <time>2011-10-02T10:35:09Z</time>
      </trkpt>
      <trkpt lat="43.22574" lon="6.44784">
        <ele>94.550003</ele>
        <time>2011-10-02T10:35:13Z</time>
      </trkpt>
      <trkpt lat="43.22565" lon="6.44793">
        <ele>95.075996</ele>
        <time>2011-10-02T10:35:18Z</time>
      </trkpt>
      <trkpt lat="43.22577" lon="6.44808">
        <ele>92.606407</ele>
        <time>2011-10-02T10:35:25Z</time>
      </trkpt>
      <trkpt lat="43.22595" lon="6.44821">
        <ele>87.811722</ele>
        <time>2011-10-02T10:35:30Z</time>
      </trkpt>
      <trkpt lat="43.22604" lon="6.4483">
        <ele>84.81633</ele>
        <time>2011-10-02T10:35:36Z</time>
      </trkpt>
      <trkpt lat="43.22616" lon="6.44848">
        <ele>79.44429</ele>
        <time>2011-10-02T10:35:40Z</time>
      </trkpt>
      <trkpt lat="43.2263" lon="6.44879">
        <ele>74.623848</ele>
        <time>2011-10-02T10:35:47Z</time>
      </trkpt>
      <trkpt lat="43.22644" lon="6.44898">
        <ele>71.401428</ele>
        <time>2011-10-02T10:35:51Z</time>
      </trkpt>
      <trkpt lat="43.22671" lon="6.44925">
        <ele>66.932404</ele>
        <time>2011-10-02T10:36:00Z</time>
      </trkpt>
      <trkpt lat="43.22676" lon="6.44927">
        <ele>66</ele>
        <time>2011-10-02T10:36:02Z</time>
      </trkpt>
      <trkpt lat="43.22684" lon="6.44932">
        <ele>64.336876</ele>
        <time>2011-10-02T10:36:05Z</time>
      </trkpt>
      <trkpt lat="43.22691" lon="6.44967">
        <ele>62.154724</ele>
        <time>2011-10-02T10:36:12Z</time>
      </trkpt>
      <trkpt lat="43.22694" lon="6.44985">
        <ele>60.97887</ele>
        <time>2011-10-02T10:36:17Z</time>
      </trkpt>
      <trkpt lat="43.22685" lon="6.45041">
        <ele>63.523415</ele>
        <time>2011-10-02T10:36:28Z</time>
      </trkpt>
      <trkpt lat="43.22685" lon="6.45046">
        <ele>64.136436</ele>
        <time>2011-10-02T10:36:29Z</time>
      </trkpt>
      <trkpt lat="43.22688" lon="6.45064">
        <ele>65.064064</ele>
        <time>2011-10-02T10:36:32Z</time>
      </trkpt>
      <trkpt lat="43.22711" lon="6.45097">
        <ele>59.800888</ele>
        <time>2011-10-02T10:36:40Z</time>
      </trkpt>
      <trkpt lat="43.22722" lon="6.45102">
        <ele>57.797688</ele>
        <time>2011-10-02T10:36:42Z</time>
      </trkpt>
      <trkpt lat="43.22733" lon="6.45105">
        <ele>56.037399</ele>
        <time>2011-10-02T10:36:44Z</time>
      </trkpt>
      <trkpt lat="43.22753" lon="6.45123">
        <ele>54.692955</ele>
        <time>2011-10-02T10:36:50Z</time>
      </trkpt>
      <trkpt lat="43.22754" lon="6.45135">
        <ele>56.126156</ele>
        <time>2011-10-02T10:36:53Z</time>
      </trkpt>
      <trkpt lat="43.2276" lon="6.45176">
        <ele>58.198387</ele>
        <time>2011-10-02T10:37:06Z</time>
      </trkpt>
      <trkpt lat="43.22759" lon="6.452">
        <ele>57.476536</ele>
        <time>2011-10-02T10:37:10Z</time>
      </trkpt>
      <trkpt lat="43.22758" lon="6.45215">
        <ele>57.11945</ele>
        <time>2011-10-02T10:37:12Z</time>
      </trkpt>
      <trkpt lat="43.22754" lon="6.45232">
        <ele>56.407475</ele>
        <time>2011-10-02T10:37:14Z</time>
      </trkpt>
      <trkpt lat="43.22749" lon="6.45261">
        <ele>53.172199</ele>
        <time>2011-10-02T10:37:17Z</time>
      </trkpt>
      <trkpt lat="43.22729" lon="6.45293">
        <ele>50.365704</ele>
        <time>2011-10-02T10:37:22Z</time>
      </trkpt>
      <trkpt lat="43.22714" lon="6.45304">
        <ele>50.579811</ele>
        <time>2011-10-02T10:37:25Z</time>
      </trkpt>
      <trkpt lat="43.22684" lon="6.45319">
        <ele>50.886688</ele>
        <time>2011-10-02T10:37:30Z</time>
      </trkpt>
      <trkpt lat="43.22665" lon="6.45327">
        <ele>49.706501</ele>
        <time>2011-10-02T10:37:37Z</time>
      </trkpt>
      <trkpt lat="43.22651" lon="6.45352">
        <ele>46.390484</ele>
        <time>2011-10-02T10:37:47Z</time>
      </trkpt>
      <trkpt lat="43.22644" lon="6.4536">
        <ele>46.490547</ele>
        <time>2011-10-02T10:37:51Z</time>
      </trkpt>
      <trkpt lat="43.22613" lon="6.45401">
        <ele>44.052265</ele>
        <time>2011-10-02T10:38:05Z</time>
      </trkpt>
      <trkpt lat="43.22578" lon="6.45434">
        <ele>46.672962</ele>
        <time>2011-10-02T10:38:16Z</time>
      </trkpt>
      <trkpt lat="43.22553" lon="6.45474">
        <ele>47.636551</ele>
        <time>2011-10-02T10:38:24Z</time>
      </trkpt>
      <trkpt lat="43.22507" lon="6.45552">
        <ele>46.885067</ele>
        <time>2011-10-02T10:38:37Z</time>
      </trkpt>
      <trkpt lat="43.22469" lon="6.45617">
        <ele>45.026875</ele>
        <time>2011-10-02T10:38:48Z</time>
      </trkpt>
      <trkpt lat="43.22454" lon="6.4564">
        <ele>43.943748</ele>
        <time>2011-10-02T10:38:52Z</time>
      </trkpt>
      <trkpt lat="43.22431" lon="6.45683">
        <ele>43.221249</ele>
        <time>2011-10-02T10:38:59Z</time>
      </trkpt>
      <trkpt lat="43.22419" lon="6.45708">
        <ele>42.929592</ele>
        <time>2011-10-02T10:39:03Z</time>
      </trkpt>
      <trkpt lat="43.22409" lon="6.45723">
        <ele>43.048752</ele>
        <time>2011-10-02T10:39:06Z</time>
      </trkpt>
      <trkpt lat="43.22402" lon="6.45738">
        <ele>42.901226</ele>
        <time>2011-10-02T10:39:09Z</time>
      </trkpt>
      <trkpt lat="43.22393" lon="6.45768">
        <ele>42.222076</ele>
        <time>2011-10-02T10:39:14Z</time>
      </trkpt>
      <trkpt lat="43.22379" lon="6.45792">
        <ele>41.265766</ele>
        <time>2011-10-02T10:39:19Z</time>
      </trkpt>
      <trkpt lat="43.22362" lon="6.45821">
        <ele>40.502583</ele>
        <time>2011-10-02T10:39:24Z</time>
      </trkpt>
      <trkpt lat="43.22348" lon="6.45843">
        <ele>41.010326</ele>
        <time>2011-10-02T10:39:28Z</time>
      </trkpt>
      <trkpt lat="43.22336" lon="6.45865">
        <ele>41.068748</ele>
        <time>2011-10-02T10:39:32Z</time>
      </trkpt>
      <trkpt lat="43.22325" lon="6.45896">
        <ele>41.012817</ele>
        <time>2011-10-02T10:39:37Z</time>
      </trkpt>
      <trkpt lat="43.22316" lon="6.45911">
        <ele>41.295467</ele>
        <time>2011-10-02T10:39:40Z</time>
      </trkpt>
      <trkpt lat="43.22299" lon="6.45946">
        <ele>40.994595</ele>
        <time>2011-10-02T10:39:46Z</time>
      </trkpt>
      <trkpt lat="43.22264" lon="6.46023">
        <ele>40.616627</ele>
        <time>2011-10-02T10:39:59Z</time>
      </trkpt>
      <trkpt lat="43.22257" lon="6.46034">
        <ele>40.663551</ele>
        <time>2011-10-02T10:40:01Z</time>
      </trkpt>
      <trkpt lat="43.22231" lon="6.46081">
        <ele>40.141312</ele>
        <time>2011-10-02T10:40:10Z</time>
      </trkpt>
      <trkpt lat="43.22227" lon="6.46123">
        <ele>40.248749</ele>
        <time>2011-10-02T10:40:18Z</time>
      </trkpt>
      <trkpt lat="43.22269" lon="6.46163">
        <ele>42.795002</ele>
        <time>2011-10-02T10:40:33Z</time>
      </trkpt>
      <trkpt lat="43.22306" lon="6.46196">
        <ele>44.990002</ele>
        <time>2011-10-02T10:40:47Z</time>
      </trkpt>
      <trkpt lat="43.22335" lon="6.4622">
        <ele>47.495663</ele>
        <time>2011-10-02T10:41:02Z</time>
      </trkpt>
      <trkpt lat="43.22366" lon="6.46247">
        <ele>50.788017</ele>
        <time>2011-10-02T10:41:19Z</time>
      </trkpt>
      <trkpt lat="43.22379" lon="6.46254">
        <ele>51.904755</ele>
        <time>2011-10-02T10:41:25Z</time>
      </trkpt>
      <trkpt lat="43.2238" lon="6.46264">
        <ele>52.421017</ele>
        <time>2011-10-02T10:41:30Z</time>
      </trkpt>
      <trkpt lat="43.22355" lon="6.46315">
        <ele>52.767601</ele>
        <time>2011-10-02T10:41:44Z</time>
      </trkpt>
      <trkpt lat="43.22334" lon="6.46353">
        <ele>53.907349</ele>
        <time>2011-10-02T10:41:53Z</time>
      </trkpt>
      <trkpt lat="43.22307" lon="6.46369">
        <ele>53.681026</ele>
        <time>2011-10-02T10:42:03Z</time>
      </trkpt>
      <trkpt lat="43.22291" lon="6.46387">
        <ele>55.781849</ele>
        <time>2011-10-02T10:42:13Z</time>
      </trkpt>
      <trkpt lat="43.22265" lon="6.46384">
        <ele>55.70084</ele>
        <time>2011-10-02T10:42:27Z</time>
      </trkpt>
      <trkpt lat="43.22252" lon="6.46387">
        <ele>55.470448</ele>
        <time>2011-10-02T10:42:34Z</time>
      </trkpt>
      <trkpt lat="43.2224" lon="6.464">
        <ele>55.991894</ele>
        <time>2011-10-02T10:42:43Z</time>
      </trkpt>
      <trkpt lat="43.22239" lon="6.46419">
        <ele>58.677002</ele>
        <time>2011-10-02T10:42:52Z</time>
      </trkpt>
      <trkpt lat="43.2224" lon="6.46424">
        <ele>59.606117</ele>
        <time>2011-10-02T10:42:54Z</time>
      </trkpt>
      <trkpt lat="43.2226" lon="6.46445">
        <ele>65.245552</ele>
        <time>2011-10-02T10:43:08Z</time>
      </trkpt>
      <trkpt lat="43.22253" lon="6.46474">
        <ele>69.168671</ele>
        <time>2011-10-02T10:43:20Z</time>
      </trkpt>
      <trkpt lat="43.22249" lon="6.46485">
        <ele>70.417847</ele>
        <time>2011-10-02T10:43:25Z</time>
      </trkpt>
      <trkpt lat="43.22239" lon="6.46517">
        <ele>74.125053</ele>
        <time>2011-10-02T10:43:40Z</time>
      </trkpt>
      <trkpt lat="43.2223" lon="6.46552">
        <ele>77.416885</ele>
        <time>2011-10-02T10:43:56Z</time>
      </trkpt>
      <trkpt lat="43.2224" lon="6.46586">
        <ele>82.250755</ele>
        <time>2011-10-02T10:44:11Z</time>
      </trkpt>
      <trkpt lat="43.22255" lon="6.46613">
        <ele>87.586502</ele>
        <time>2011-10-02T10:44:26Z</time>
      </trkpt>
      <trkpt lat="43.22274" lon="6.46627">
        <ele>91.046249</ele>
        <time>2011-10-02T10:44:40Z</time>
      </trkpt>
      <trkpt lat="43.2228" lon="6.4663">
        <ele>92.2146</ele>
        <time>2011-10-02T10:44:44Z</time>
      </trkpt>
      <trkpt lat="43.22306" lon="6.46641">
        <ele>96.343437</ele>
        <time>2011-10-02T10:45:00Z</time>
      </trkpt>
      <trkpt lat="43.22322" lon="6.46656">
        <ele>99.540031</ele>
        <time>2011-10-02T10:45:13Z</time>
      </trkpt>
      <trkpt lat="43.22336" lon="6.4668">
        <ele>104.212158</ele>
        <time>2011-10-02T10:45:28Z</time>
      </trkpt>
      <trkpt lat="43.22335" lon="6.46691">
        <ele>105.388435</ele>
        <time>2011-10-02T10:45:33Z</time>
      </trkpt>
      <trkpt lat="43.22334" lon="6.46699">
        <ele>106.18203</ele>
        <time>2011-10-02T10:45:37Z</time>
      </trkpt>
      <trkpt lat="43.22333" lon="6.46703">
        <ele>106.461815</ele>
        <time>2011-10-02T10:45:39Z</time>
      </trkpt>
      <trkpt lat="43.22335" lon="6.46727">
        <ele>109.57119</ele>
        <time>2011-10-02T10:45:50Z</time>
      </trkpt>
      <trkpt lat="43.22336" lon="6.46751">
        <ele>112.797501</ele>
        <time>2011-10-02T10:46:01Z</time>
      </trkpt>
      <trkpt lat="43.22336" lon="6.46763">
        <ele>114.176247</ele>
        <time>2011-10-02T10:46:07Z</time>
      </trkpt>
      <trkpt lat="43.22327" lon="6.468">
        <ele>116.056602</ele>
        <time>2011-10-02T10:46:23Z</time>
      </trkpt>
      <trkpt lat="43.22324" lon="6.46836">
        <ele>119.414864</ele>
        <time>2011-10-02T10:46:38Z</time>
      </trkpt>
      <trkpt lat="43.22328" lon="6.46867">
        <ele>123.848885</ele>
        <time>2011-10-02T10:46:51Z</time>
      </trkpt>
      <trkpt lat="43.22332" lon="6.46894">
        <ele>126.603081</ele>
        <time>2011-10-02T10:47:03Z</time>
      </trkpt>
      <trkpt lat="43.22337" lon="6.46912">
        <ele>129.844086</ele>
        <time>2011-10-02T10:47:12Z</time>
      </trkpt>
      <trkpt lat="43.22346" lon="6.46939">
        <ele>135.285019</ele>
        <time>2011-10-02T10:47:26Z</time>
      </trkpt>
      <trkpt lat="43.22347" lon="6.46969">
        <ele>136.930481</ele>
        <time>2011-10-02T10:47:40Z</time>
      </trkpt>
      <trkpt lat="43.22353" lon="6.46996">
        <ele>139.169144</ele>
        <time>2011-10-02T10:47:55Z</time>
      </trkpt>
      <trkpt lat="43.22365" lon="6.47021">
        <ele>142.811935</ele>
        <time>2011-10-02T10:48:10Z</time>
      </trkpt>
      <trkpt lat="43.22377" lon="6.4703">
        <ele>148.077316</ele>
        <time>2011-10-02T10:48:20Z</time>
      </trkpt>
      <trkpt lat="43.22395" lon="6.47057">
        <ele>157.809326</ele>
        <time>2011-10-02T10:48:38Z</time>
      </trkpt>
      <trkpt lat="43.22394" lon="6.47089">
        <ele>158.255051</ele>
        <time>2011-10-02T10:48:53Z</time>
      </trkpt>
      <trkpt lat="43.22394" lon="6.47127">
        <ele>161.297256</ele>
        <time>2011-10-02T10:49:09Z</time>
      </trkpt>
      <trkpt lat="43.2239" lon="6.47157">
        <ele>163.411682</ele>
        <time>2011-10-02T10:49:22Z</time>
      </trkpt>
      <trkpt lat="43.22388" lon="6.47198">
        <ele>167.70491</ele>
        <time>2011-10-02T10:49:40Z</time>
      </trkpt>
      <trkpt lat="43.22382" lon="6.47232">
        <ele>169.646255</ele>
        <time>2011-10-02T10:49:55Z</time>
      </trkpt>
      <trkpt lat="43.2238" lon="6.47262">
        <ele>169.696243</ele>
        <time>2011-10-02T10:50:09Z</time>
      </trkpt>
      <trkpt lat="43.22382" lon="6.47272">
        <ele>170.962494</ele>
        <time>2011-10-02T10:50:14Z</time>
      </trkpt>
      <trkpt lat="43.22393" lon="6.47299">
        <ele>175.54335</ele>
        <time>2011-10-02T10:50:28Z</time>
      </trkpt>
      <trkpt lat="43.22406" lon="6.47315">
        <ele>178.472229</ele>
        <time>2011-10-02T10:50:41Z</time>
      </trkpt>
      <trkpt lat="43.22413" lon="6.47322">
        <ele>179.684753</ele>
        <time>2011-10-02T10:50:47Z</time>
      </trkpt>
      <trkpt lat="43.22433" lon="6.47338">
        <ele>185.456558</ele>
        <time>2011-10-02T10:51:03Z</time>
      </trkpt>
      <trkpt lat="43.2245" lon="6.47366">
        <ele>190.116364</ele>
        <time>2011-10-02T10:51:20Z</time>
      </trkpt>
      <trkpt lat="43.22455" lon="6.47375">
        <ele>191.745041</ele>
        <time>2011-10-02T10:51:26Z</time>
      </trkpt>
      <trkpt lat="43.22456" lon="6.47378">
        <ele>191.851044</ele>
        <time>2011-10-02T10:51:28Z</time>
      </trkpt>
      <trkpt lat="43.2246" lon="6.47417">
        <ele>190.951523</ele>
        <time>2011-10-02T10:51:41Z</time>
      </trkpt>
      <trkpt lat="43.22462" lon="6.47458">
        <ele>190.683746</ele>
        <time>2011-10-02T10:51:57Z</time>
      </trkpt>
      <trkpt lat="43.22477" lon="6.47515">
        <ele>196.599533</ele>
        <time>2011-10-02T10:52:10Z</time>
      </trkpt>
      <trkpt lat="43.22485" lon="6.4756">
        <ele>198.668167</ele>
        <time>2011-10-02T10:52:25Z</time>
      </trkpt>
      <trkpt lat="43.225" lon="6.47587">
        <ele>201.698441</ele>
        <time>2011-10-02T10:52:39Z</time>
      </trkpt>
      <trkpt lat="43.22513" lon="6.47618">
        <ele>203.697159</ele>
        <time>2011-10-02T10:52:54Z</time>
      </trkpt>
      <trkpt lat="43.22518" lon="6.47645">
        <ele>204.581726</ele>
        <time>2011-10-02T10:53:07Z</time>
      </trkpt>
      <trkpt lat="43.22518" lon="6.47647">
        <ele>204.573242</ele>
        <time>2011-10-02T10:53:08Z</time>
      </trkpt>
      <trkpt lat="43.22516" lon="6.47655">
        <ele>204.225037</ele>
        <time>2011-10-02T10:53:12Z</time>
      </trkpt>
      <trkpt lat="43.22512" lon="6.4766">
        <ele>203.746979</ele>
        <time>2011-10-02T10:53:25Z</time>
      </trkpt>
      <trkpt lat="43.22512" lon="6.47656">
        <ele>203.793076</ele>
        <time>2011-10-02T10:54:51Z</time>
      </trkpt>
      <trkpt lat="43.22512" lon="6.47659">
        <ele>203.735306</ele>
        <time>2011-10-02T10:56:52Z</time>
      </trkpt>
      <trkpt lat="43.2251" lon="6.47663">
        <ele>203.575485</ele>
        <time>2011-10-02T11:00:34Z</time>
      </trkpt>
      <trkpt lat="43.22512" lon="6.47669">
        <ele>203.763504</ele>
        <time>2011-10-02T11:04:32Z</time>
      </trkpt>
      <trkpt lat="43.22512" lon="6.47672">
        <ele>203.865829</ele>
        <time>2011-10-02T11:06:14Z</time>
      </trkpt>
      <trkpt lat="43.22512" lon="6.47671">
        <ele>203.841888</ele>
        <time>2011-10-02T11:06:16Z</time>
      </trkpt>
      <trkpt lat="43.22514" lon="6.47664">
        <ele>203.983047</ele>
        <time>2011-10-02T11:06:25Z</time>
      </trkpt>
      <trkpt lat="43.22517" lon="6.47662">
        <ele>204.338272</ele>
        <time>2011-10-02T11:06:44Z</time>
      </trkpt>
      <trkpt lat="43.2252" lon="6.47664">
        <ele>204.592468</ele>
        <time>2011-10-02T11:06:54Z</time>
      </trkpt>
      <trkpt lat="43.2252" lon="6.47671">
        <ele>204.519485</ele>
        <time>2011-10-02T11:06:58Z</time>
      </trkpt>
      <trkpt lat="43.22506" lon="6.47699">
        <ele>205.040405</ele>
        <time>2011-10-02T11:07:12Z</time>
      </trkpt>
      <trkpt lat="43.225" lon="6.47731">
        <ele>206.959</ele>
        <time>2011-10-02T11:07:25Z</time>
      </trkpt>
      <trkpt lat="43.22498" lon="6.47735">
        <ele>207.50235</ele>
        <time>2011-10-02T11:07:27Z</time>
      </trkpt>
      <trkpt lat="43.22497" lon="6.47765">
        <ele>211.359222</ele>
        <time>2011-10-02T11:07:40Z</time>
      </trkpt>
      <trkpt lat="43.22493" lon="6.47774">
        <ele>212.490845</ele>
        <time>2011-10-02T11:07:45Z</time>
      </trkpt>
      <trkpt lat="43.22489" lon="6.47791">
        <ele>214.503769</ele>
        <time>2011-10-02T11:07:55Z</time>
      </trkpt>
      <trkpt lat="43.22481" lon="6.47806">
        <ele>218.401001</ele>
        <time>2011-10-02T11:08:04Z</time>
      </trkpt>
      <trkpt lat="43.22469" lon="6.47817">
        <ele>220.945526</ele>
        <time>2011-10-02T11:08:12Z</time>
      </trkpt>
      <trkpt lat="43.2246" lon="6.47829">
        <ele>223.735367</ele>
        <time>2011-10-02T11:08:22Z</time>
      </trkpt>
      <trkpt lat="43.22458" lon="6.47832">
        <ele>224.341324</ele>
        <time>2011-10-02T11:08:24Z</time>
      </trkpt>
      <trkpt lat="43.22454" lon="6.47836">
        <ele>225.584045</ele>
        <time>2011-10-02T11:08:34Z</time>
      </trkpt>
      <trkpt lat="43.22446" lon="6.47839">
        <ele>225.859207</ele>
        <time>2011-10-02T11:08:41Z</time>
      </trkpt>
      <trkpt lat="43.2244" lon="6.47842">
        <ele>226.442535</ele>
        <time>2011-10-02T11:08:49Z</time>
      </trkpt>
      <trkpt lat="43.22433" lon="6.47849">
        <ele>228.194107</ele>
        <time>2011-10-02T11:09:00Z</time>
      </trkpt>
      <trkpt lat="43.22431" lon="6.47851">
        <ele>228.98027</ele>
        <time>2011-10-02T11:09:06Z</time>
      </trkpt>
      <trkpt lat="43.22424" lon="6.47863">
        <ele>232.649994</ele>
        <time>2011-10-02T11:09:18Z</time>
      </trkpt>
      <trkpt lat="43.2242" lon="6.47866">
        <ele>233.431244</ele>
        <time>2011-10-02T11:09:25Z</time>
      </trkpt>
      <trkpt lat="43.22414" lon="6.47869">
        <ele>233.875</ele>
        <time>2011-10-02T11:09:38Z</time>
      </trkpt>
      <trkpt lat="43.22404" lon="6.47873">
        <ele>234.306244</ele>
        <time>2011-10-02T11:09:49Z</time>
      </trkpt>
      <trkpt lat="43.22365" lon="6.47885">
        <ele>234.974594</ele>
        <time>2011-10-02T11:10:01Z</time>
      </trkpt>
      <trkpt lat="43.22358" lon="6.47888">
        <ele>235.157425</ele>
        <time>2011-10-02T11:10:04Z</time>
      </trkpt>
      <trkpt lat="43.22346" lon="6.47892">
        <ele>235.028549</ele>
        <time>2011-10-02T11:10:10Z</time>
      </trkpt>
      <trkpt lat="43.22323" lon="6.47901">
        <ele>235.48587</ele>
        <time>2011-10-02T11:10:24Z</time>
      </trkpt>
      <trkpt lat="43.22312" lon="6.47909">
        <ele>237.032669</ele>
        <time>2011-10-02T11:10:30Z</time>
      </trkpt>
      <trkpt lat="43.22294" lon="6.47919">
        <ele>238.43248</ele>
        <time>2011-10-02T11:10:38Z</time>
      </trkpt>
      <trkpt lat="43.22276" lon="6.47931">
        <ele>239.698456</ele>
        <time>2011-10-02T11:10:46Z</time>
      </trkpt>
      <trkpt lat="43.22258" lon="6.47939">
        <ele>239.362473</ele>
        <time>2011-10-02T11:10:55Z</time>
      </trkpt>
      <trkpt lat="43.2225" lon="6.47945">
        <ele>239.620132</ele>
        <time>2011-10-02T11:10:59Z</time>
      </trkpt>
      <trkpt lat="43.22246" lon="6.47949">
        <ele>240.356934</ele>
        <time>2011-10-02T11:11:03Z</time>
      </trkpt>
      <trkpt lat="43.22244" lon="6.47952">
        <ele>240.707062</ele>
        <time>2011-10-02T11:11:06Z</time>
      </trkpt>
      <trkpt lat="43.22235" lon="6.4796">
        <ele>241.983536</ele>
        <time>2011-10-02T11:11:16Z</time>
      </trkpt>
      <trkpt lat="43.22227" lon="6.4796">
        <ele>241.088913</ele>
        <time>2011-10-02T11:11:20Z</time>
      </trkpt>
      <trkpt lat="43.22223" lon="6.47961">
        <ele>240.982056</ele>
        <time>2011-10-02T11:11:22Z</time>
      </trkpt>
      <trkpt lat="43.22218" lon="6.47964">
        <ele>241.194107</ele>
        <time>2011-10-02T11:11:25Z</time>
      </trkpt>
      <trkpt lat="43.22198" lon="6.47975">
        <ele>241.671875</ele>
        <time>2011-10-02T11:11:32Z</time>
      </trkpt>
      <trkpt lat="43.22168" lon="6.48001">
        <ele>243.016998</ele>
        <time>2011-10-02T11:11:42Z</time>
      </trkpt>
      <trkpt lat="43.22159" lon="6.48012">
        <ele>244.156464</ele>
        <time>2011-10-02T11:11:46Z</time>
      </trkpt>
      <trkpt lat="43.22144" lon="6.48022">
        <ele>242.473877</ele>
        <time>2011-10-02T11:11:56Z</time>
      </trkpt>
      <trkpt lat="43.22129" lon="6.4804">
        <ele>241.435532</ele>
        <time>2011-10-02T11:12:02Z</time>
      </trkpt>
      <trkpt lat="43.2212" lon="6.48062">
        <ele>243.508194</ele>
        <time>2011-10-02T11:12:10Z</time>
      </trkpt>
      <trkpt lat="43.22118" lon="6.48073">
        <ele>245.036819</ele>
        <time>2011-10-02T11:12:20Z</time>
      </trkpt>
      <trkpt lat="43.22117" lon="6.48075">
        <ele>245.162537</ele>
        <time>2011-10-02T11:12:24Z</time>
      </trkpt>
      <trkpt lat="43.22111" lon="6.48088">
        <ele>245.067566</ele>
        <time>2011-10-02T11:12:35Z</time>
      </trkpt>
      <trkpt lat="43.2211" lon="6.48091">
        <ele>245.055939</ele>
        <time>2011-10-02T11:12:37Z</time>
      </trkpt>
      <trkpt lat="43.22105" lon="6.48104">
        <ele>245.130539</ele>
        <time>2011-10-02T11:12:41Z</time>
      </trkpt>
      <trkpt lat="43.22105" lon="6.48109">
        <ele>246.084885</ele>
        <time>2011-10-02T11:12:43Z</time>
      </trkpt>
      <trkpt lat="43.22109" lon="6.48117">
        <ele>248.959244</ele>
        <time>2011-10-02T11:12:52Z</time>
      </trkpt>
      <trkpt lat="43.2211" lon="6.48119">
        <ele>249.642563</ele>
        <time>2011-10-02T11:12:54Z</time>
      </trkpt>
      <trkpt lat="43.22111" lon="6.48125">
        <ele>251.077423</ele>
        <time>2011-10-02T11:13:02Z</time>
      </trkpt>
      <trkpt lat="43.22111" lon="6.48127">
        <ele>251.279999</ele>
        <time>2011-10-02T11:13:04Z</time>
      </trkpt>
      <trkpt lat="43.2212" lon="6.48146">
        <ele>257.456177</ele>
        <time>2011-10-02T11:13:15Z</time>
      </trkpt>
      <trkpt lat="43.22122" lon="6.48156">
        <ele>259.323914</ele>
        <time>2011-10-02T11:13:25Z</time>
      </trkpt>
      <trkpt lat="43.2212" lon="6.48164">
        <ele>259.579102</ele>
        <time>2011-10-02T11:13:41Z</time>
      </trkpt>
      <trkpt lat="43.2212" lon="6.48177">
        <ele>260.861877</ele>
        <time>2011-10-02T11:13:50Z</time>
      </trkpt>
      <trkpt lat="43.22123" lon="6.48188">
        <ele>262.696014</ele>
        <time>2011-10-02T11:13:56Z</time>
      </trkpt>
      <trkpt lat="43.22124" lon="6.48204">
        <ele>264.419495</ele>
        <time>2011-10-02T11:14:07Z</time>
      </trkpt>
      <trkpt lat="43.22124" lon="6.48203">
        <ele>264.388275</ele>
        <time>2011-10-02T11:14:08Z</time>
      </trkpt>
      <trkpt lat="43.22127" lon="6.482">
        <ele>264.546539</ele>
        <time>2011-10-02T11:14:13Z</time>
      </trkpt>
      <trkpt lat="43.22131" lon="6.48202">
        <ele>265.476501</ele>
        <time>2011-10-02T11:14:16Z</time>
      </trkpt>
      <trkpt lat="43.22138" lon="6.4821">
        <ele>267.167511</ele>
        <time>2011-10-02T11:14:22Z</time>
      </trkpt>
      <trkpt lat="43.22142" lon="6.48216">
        <ele>267.905884</ele>
        <time>2011-10-02T11:14:27Z</time>
      </trkpt>
      <trkpt lat="43.2215" lon="6.48224">
        <ele>269.030457</ele>
        <time>2011-10-02T11:14:37Z</time>
      </trkpt>
      <trkpt lat="43.22153" lon="6.48226">
        <ele>269.476746</ele>
        <time>2011-10-02T11:15:01Z</time>
      </trkpt>
      <trkpt lat="43.22154" lon="6.48234">
        <ele>269.644043</ele>
        <time>2011-10-02T11:15:08Z</time>
      </trkpt>
      <trkpt lat="43.22153" lon="6.48244">
        <ele>269.537109</ele>
        <time>2011-10-02T11:15:14Z</time>
      </trkpt>
      <trkpt lat="43.22155" lon="6.48255">
        <ele>269.7995</ele>
        <time>2011-10-02T11:15:19Z</time>
      </trkpt>
      <trkpt lat="43.22164" lon="6.48274">
        <ele>270.990082</ele>
        <time>2011-10-02T11:15:29Z</time>
      </trkpt>
      <trkpt lat="43.22164" lon="6.48275">
        <ele>271.083588</ele>
        <time>2011-10-02T11:15:30Z</time>
      </trkpt>
      <trkpt lat="43.22173" lon="6.48294">
        <ele>271.678864</ele>
        <time>2011-10-02T11:15:39Z</time>
      </trkpt>
      <trkpt lat="43.22178" lon="6.48308">
        <ele>271.650574</ele>
        <time>2011-10-02T11:15:47Z</time>
      </trkpt>
      <trkpt lat="43.22185" lon="6.483">
        <ele>271.418213</ele>
        <time>2011-10-02T11:15:53Z</time>
      </trkpt>
      <trkpt lat="43.22192" lon="6.48293">
        <ele>271.609985</ele>
        <time>2011-10-02T11:15:59Z</time>
      </trkpt>
      <trkpt lat="43.22204" lon="6.48292">
        <ele>271.934052</ele>
        <time>2011-10-02T11:16:06Z</time>
      </trkpt>
      <trkpt lat="43.22211" lon="6.48283">
        <ele>272.42572</ele>
        <time>2011-10-02T11:16:12Z</time>
      </trkpt>
      <trkpt lat="43.22212" lon="6.48262">
        <ele>273.20874</ele>
        <time>2011-10-02T11:16:21Z</time>
      </trkpt>
      <trkpt lat="43.22214" lon="6.48253">
        <ele>273.703735</ele>
        <time>2011-10-02T11:16:25Z</time>
      </trkpt>
      <trkpt lat="43.22216" lon="6.4825">
        <ele>273.92749</ele>
        <time>2011-10-02T11:16:27Z</time>
      </trkpt>
      <trkpt lat="43.22233" lon="6.48246">
        <ele>274.970001</ele>
        <time>2011-10-02T11:16:40Z</time>
      </trkpt>
      <trkpt lat="43.22239" lon="6.4824">
        <ele>275.381256</ele>
        <time>2011-10-02T11:16:44Z</time>
      </trkpt>
      <trkpt lat="43.22248" lon="6.48222">
        <ele>276.484985</ele>
        <time>2011-10-02T11:16:53Z</time>
      </trkpt>
      <trkpt lat="43.22252" lon="6.48211">
        <ele>277.10376</ele>
        <time>2011-10-02T11:16:57Z</time>
      </trkpt>
      <trkpt lat="43.22263" lon="6.48197">
        <ele>277.895477</ele>
        <time>2011-10-02T11:17:04Z</time>
      </trkpt>
      <trkpt lat="43.22284" lon="6.48163">
        <ele>278.723755</ele>
        <time>2011-10-02T11:17:15Z</time>
      </trkpt>
      <trkpt lat="43.22301" lon="6.48144">
        <ele>279.059998</ele>
        <time>2011-10-02T11:17:21Z</time>
      </trkpt>
      <trkpt lat="43.22334" lon="6.48139">
        <ele>279.229675</ele>
        <time>2011-10-02T11:17:31Z</time>
      </trkpt>
      <trkpt lat="43.22341" lon="6.48156">
        <ele>278.875549</ele>
        <time>2011-10-02T11:17:36Z</time>
      </trkpt>
      <trkpt lat="43.22345" lon="6.48181">
        <ele>278.286774</ele>
        <time>2011-10-02T11:17:41Z</time>
      </trkpt>
      <trkpt lat="43.22357" lon="6.48198">
        <ele>277.714142</ele>
        <time>2011-10-02T11:17:47Z</time>
      </trkpt>
      <trkpt lat="43.22364" lon="6.48197">
        <ele>277.648682</ele>
        <time>2011-10-02T11:17:50Z</time>
      </trkpt>
      <trkpt lat="43.22388" lon="6.48177">
        <ele>278.09668</ele>
        <time>2011-10-02T11:17:58Z</time>
      </trkpt>
      <trkpt lat="43.22401" lon="6.48166">
        <ele>278.517303</ele>
        <time>2011-10-02T11:18:02Z</time>
      </trkpt>
      <trkpt lat="43.22426" lon="6.48138">
        <ele>279.64624</ele>
        <time>2011-10-02T11:18:12Z</time>
      </trkpt>
      <trkpt lat="43.22445" lon="6.48127">
        <ele>279.620239</ele>
        <time>2011-10-02T11:18:19Z</time>
      </trkpt>
      <trkpt lat="43.2246" lon="6.48134">
        <ele>278.899445</ele>
        <time>2011-10-02T11:18:23Z</time>
      </trkpt>
      <trkpt lat="43.22469" lon="6.48138">
        <ele>278.299957</ele>
        <time>2011-10-02T11:18:25Z</time>
      </trkpt>
      <trkpt lat="43.22492" lon="6.48148">
        <ele>276.811523</ele>
        <time>2011-10-02T11:18:32Z</time>
      </trkpt>
      <trkpt lat="43.22505" lon="6.48169">
        <ele>275.940277</ele>
        <time>2011-10-02T11:18:37Z</time>
      </trkpt>
      <trkpt lat="43.22509" lon="6.48204">
        <ele>275.559082</ele>
        <time>2011-10-02T11:18:43Z</time>
      </trkpt>
      <trkpt lat="43.22508" lon="6.48219">
        <ele>275.338928</ele>
        <time>2011-10-02T11:18:45Z</time>
      </trkpt>
      <trkpt lat="43.22505" lon="6.48235">
        <ele>274.236115</ele>
        <time>2011-10-02T11:18:47Z</time>
      </trkpt>
      <trkpt lat="43.22499" lon="6.48263">
        <ele>271.847504</ele>
        <time>2011-10-02T11:18:51Z</time>
      </trkpt>
      <trkpt lat="43.22501" lon="6.48292">
        <ele>269.697296</ele>
        <time>2011-10-02T11:18:55Z</time>
      </trkpt>
      <trkpt lat="43.22505" lon="6.4833">
        <ele>268.125366</ele>
        <time>2011-10-02T11:19:00Z</time>
      </trkpt>
      <trkpt lat="43.22507" lon="6.4838">
        <ele>264.4664</ele>
        <time>2011-10-02T11:19:09Z</time>
      </trkpt>
      <trkpt lat="43.22511" lon="6.48427">
        <ele>261.758453</ele>
        <time>2011-10-02T11:19:16Z</time>
      </trkpt>
      <trkpt lat="43.22501" lon="6.48449">
        <ele>260.638977</ele>
        <time>2011-10-02T11:19:20Z</time>
      </trkpt>
      <trkpt lat="43.22484" lon="6.48493">
        <ele>259.243988</ele>
        <time>2011-10-02T11:19:27Z</time>
      </trkpt>
      <trkpt lat="43.22474" lon="6.48532">
        <ele>257.185211</ele>
        <time>2011-10-02T11:19:34Z</time>
      </trkpt>
      <trkpt lat="43.22478" lon="6.48544">
        <ele>255.895874</ele>
        <time>2011-10-02T11:19:36Z</time>
      </trkpt>
      <trkpt lat="43.22483" lon="6.48553">
        <ele>254.668503</ele>
        <time>2011-10-02T11:19:38Z</time>
      </trkpt>
      <trkpt lat="43.22478" lon="6.48563">
        <ele>253.469513</ele>
        <time>2011-10-02T11:19:43Z</time>
      </trkpt>
      <trkpt lat="43.22474" lon="6.48564">
        <ele>253.344147</ele>
        <time>2011-10-02T11:19:45Z</time>
      </trkpt>
      <trkpt lat="43.22456" lon="6.48566">
        <ele>253.567001</ele>
        <time>2011-10-02T11:19:57Z</time>
      </trkpt>
      <trkpt lat="43.22454" lon="6.48566">
        <ele>253.65181</ele>
        <time>2011-10-02T11:19:59Z</time>
      </trkpt>
      <trkpt lat="43.22447" lon="6.48565">
        <ele>253.855591</ele>
        <time>2011-10-02T11:20:04Z</time>
      </trkpt>
      <trkpt lat="43.22433" lon="6.48569">
        <ele>254.158646</ele>
        <time>2011-10-02T11:20:14Z</time>
      </trkpt>
      <trkpt lat="43.22412" lon="6.48572">
        <ele>254.826462</ele>
        <time>2011-10-02T11:20:24Z</time>
      </trkpt>
      <trkpt lat="43.22384" lon="6.48566">
        <ele>256.260345</ele>
        <time>2011-10-02T11:20:36Z</time>
      </trkpt>
      <trkpt lat="43.22367" lon="6.48559">
        <ele>257.388367</ele>
        <time>2011-10-02T11:20:45Z</time>
      </trkpt>
      <trkpt lat="43.22338" lon="6.48552">
        <ele>258.337769</ele>
        <time>2011-10-02T11:20:58Z</time>
      </trkpt>
      <trkpt lat="43.22311" lon="6.48537">
        <ele>259.389923</ele>
        <time>2011-10-02T11:21:09Z</time>
      </trkpt>
      <trkpt lat="43.22284" lon="6.48539">
        <ele>258.794098</ele>
        <time>2011-10-02T11:21:16Z</time>
      </trkpt>
      <trkpt lat="43.22273" lon="6.48518">
        <ele>259.147491</ele>
        <time>2011-10-02T11:21:24Z</time>
      </trkpt>
      <trkpt lat="43.22256" lon="6.48503">
        <ele>261.523438</ele>
        <time>2011-10-02T11:21:33Z</time>
      </trkpt>
      <trkpt lat="43.22244" lon="6.48474">
        <ele>264.109314</ele>
        <time>2011-10-02T11:21:44Z</time>
      </trkpt>
      <trkpt lat="43.22243" lon="6.48468">
        <ele>264.390747</ele>
        <time>2011-10-02T11:21:46Z</time>
      </trkpt>
      <trkpt lat="43.22241" lon="6.48462">
        <ele>264.672302</ele>
        <time>2011-10-02T11:21:48Z</time>
      </trkpt>
      <trkpt lat="43.22229" lon="6.48461">
        <ele>265.658661</ele>
        <time>2011-10-02T11:21:57Z</time>
      </trkpt>
      <trkpt lat="43.22216" lon="6.48462">
        <ele>267.26001</ele>
        <time>2011-10-02T11:22:06Z</time>
      </trkpt>
      <trkpt lat="43.22212" lon="6.48464">
        <ele>267.785004</ele>
        <time>2011-10-02T11:22:10Z</time>
      </trkpt>
      <trkpt lat="43.22204" lon="6.48466">
        <ele>268.790009</ele>
        <time>2011-10-02T11:22:18Z</time>
      </trkpt>
      <trkpt lat="43.22199" lon="6.48471">
        <ele>269.480011</ele>
        <time>2011-10-02T11:22:24Z</time>
      </trkpt>
      <trkpt lat="43.22189" lon="6.48481">
        <ele>270.679993</ele>
        <time>2011-10-02T11:22:33Z</time>
      </trkpt>
      <trkpt lat="43.22187" lon="6.48485">
        <ele>270.994995</ele>
        <time>2011-10-02T11:22:36Z</time>
      </trkpt>
      <trkpt lat="43.22184" lon="6.48503">
        <ele>271.234985</ele>
        <time>2011-10-02T11:22:44Z</time>
      </trkpt>
      <trkpt lat="43.22182" lon="6.48514">
        <ele>271.471375</ele>
        <time>2011-10-02T11:22:48Z</time>
      </trkpt>
      <trkpt lat="43.22163" lon="6.48531">
        <ele>271.005676</ele>
        <time>2011-10-02T11:22:58Z</time>
      </trkpt>
      <trkpt lat="43.2215" lon="6.48534">
        <ele>270.345276</ele>
        <time>2011-10-02T11:23:02Z</time>
      </trkpt>
      <trkpt lat="43.22144" lon="6.48539">
        <ele>269.888885</ele>
        <time>2011-10-02T11:23:04Z</time>
      </trkpt>
      <trkpt lat="43.22124" lon="6.48552">
        <ele>268.117188</ele>
        <time>2011-10-02T11:23:13Z</time>
      </trkpt>
      <trkpt lat="43.22105" lon="6.48559">
        <ele>266.044556</ele>
        <time>2011-10-02T11:23:21Z</time>
      </trkpt>
      <trkpt lat="43.221" lon="6.48561">
        <ele>265.422302</ele>
        <time>2011-10-02T11:23:33Z</time>
      </trkpt>
      <trkpt lat="43.22099" lon="6.48561">
        <ele>265.301422</ele>
        <time>2011-10-02T11:23:49Z</time>
      </trkpt>
      <trkpt lat="43.22095" lon="6.48563">
        <ele>264.84433</ele>
        <time>2011-10-02T11:23:52Z</time>
      </trkpt>
      <trkpt lat="43.22085" lon="6.48587">
        <ele>262.019257</ele>
        <time>2011-10-02T11:24:01Z</time>
      </trkpt>
      <trkpt lat="43.22087" lon="6.48591">
        <ele>261.92865</ele>
        <time>2011-10-02T11:24:02Z</time>
      </trkpt>
      <trkpt lat="43.22096" lon="6.48609">
        <ele>261.813232</ele>
        <time>2011-10-02T11:24:07Z</time>
      </trkpt>
      <trkpt lat="43.22109" lon="6.48621">
        <ele>263.143738</ele>
        <time>2011-10-02T11:24:14Z</time>
      </trkpt>
      <trkpt lat="43.22124" lon="6.48638">
        <ele>264.369415</ele>
        <time>2011-10-02T11:24:21Z</time>
      </trkpt>
      <trkpt lat="43.22143" lon="6.48666">
        <ele>264.028625</ele>
        <time>2011-10-02T11:24:30Z</time>
      </trkpt>
      <trkpt lat="43.22159" lon="6.48682">
        <ele>264.336731</ele>
        <time>2011-10-02T11:24:36Z</time>
      </trkpt>
      <trkpt lat="43.22193" lon="6.48675">
        <ele>265.606232</ele>
        <time>2011-10-02T11:24:48Z</time>
      </trkpt>
      <trkpt lat="43.22209" lon="6.48668">
        <ele>265.598114</ele>
        <time>2011-10-02T11:24:53Z</time>
      </trkpt>
      <trkpt lat="43.22235" lon="6.4867">
        <ele>263.972748</ele>
        <time>2011-10-02T11:25:01Z</time>
      </trkpt>
      <trkpt lat="43.22241" lon="6.4868">
        <ele>263.620239</ele>
        <time>2011-10-02T11:25:06Z</time>
      </trkpt>
      <trkpt lat="43.2224" lon="6.4869">
        <ele>263.825195</ele>
        <time>2011-10-02T11:25:09Z</time>
      </trkpt>
      <trkpt lat="43.22244" lon="6.48712">
        <ele>264.292816</ele>
        <time>2011-10-02T11:25:15Z</time>
      </trkpt>
      <trkpt lat="43.22242" lon="6.48736">
        <ele>265.170258</ele>
        <time>2011-10-02T11:25:23Z</time>
      </trkpt>
      <trkpt lat="43.22243" lon="6.48743">
        <ele>265.423035</ele>
        <time>2011-10-02T11:25:25Z</time>
      </trkpt>
      <trkpt lat="43.22248" lon="6.48761">
        <ele>266.070496</ele>
        <time>2011-10-02T11:25:31Z</time>
      </trkpt>
      <trkpt lat="43.22251" lon="6.48781">
        <ele>266.671112</ele>
        <time>2011-10-02T11:25:36Z</time>
      </trkpt>
      <trkpt lat="43.22249" lon="6.48791">
        <ele>266.953827</ele>
        <time>2011-10-02T11:25:39Z</time>
      </trkpt>
      <trkpt lat="43.22238" lon="6.48812">
        <ele>267.39325</ele>
        <time>2011-10-02T11:25:47Z</time>
      </trkpt>
      <trkpt lat="43.22225" lon="6.48845">
        <ele>267.329987</ele>
        <time>2011-10-02T11:25:55Z</time>
      </trkpt>
      <trkpt lat="43.22218" lon="6.48866">
        <ele>267.190002</ele>
        <time>2011-10-02T11:26:01Z</time>
      </trkpt>
      <trkpt lat="43.22203" lon="6.48893">
        <ele>266.364044</ele>
        <time>2011-10-02T11:26:09Z</time>
      </trkpt>
      <trkpt lat="43.222" lon="6.48906">
        <ele>266.078857</ele>
        <time>2011-10-02T11:26:12Z</time>
      </trkpt>
      <trkpt lat="43.22188" lon="6.48932">
        <ele>265.246613</ele>
        <time>2011-10-02T11:26:23Z</time>
      </trkpt>
      <trkpt lat="43.22187" lon="6.48937">
        <ele>265.212494</ele>
        <time>2011-10-02T11:26:25Z</time>
      </trkpt>
      <trkpt lat="43.22175" lon="6.48967">
        <ele>266.041412</ele>
        <time>2011-10-02T11:26:34Z</time>
      </trkpt>
      <trkpt lat="43.22168" lon="6.48992">
        <ele>267.116272</ele>
        <time>2011-10-02T11:26:45Z</time>
      </trkpt>
      <trkpt lat="43.22161" lon="6.49008">
        <ele>267.607239</ele>
        <time>2011-10-02T11:26:53Z</time>
      </trkpt>
      <trkpt lat="43.2216" lon="6.49012">
        <ele>267.726776</ele>
        <time>2011-10-02T11:26:55Z</time>
      </trkpt>
      <trkpt lat="43.22157" lon="6.49041">
        <ele>269.050507</ele>
        <time>2011-10-02T11:27:06Z</time>
      </trkpt>
      <trkpt lat="43.22155" lon="6.49056">
        <ele>269.701385</ele>
        <time>2011-10-02T11:27:12Z</time>
      </trkpt>
      <trkpt lat="43.22156" lon="6.4906">
        <ele>269.958679</ele>
        <time>2011-10-02T11:27:14Z</time>
      </trkpt>
      <trkpt lat="43.22155" lon="6.49079">
        <ele>270.194153</ele>
        <time>2011-10-02T11:27:22Z</time>
      </trkpt>
      <trkpt lat="43.22155" lon="6.4909">
        <ele>270.432739</ele>
        <time>2011-10-02T11:27:26Z</time>
      </trkpt>
      <trkpt lat="43.22155" lon="6.49106">
        <ele>270.759949</ele>
        <time>2011-10-02T11:27:35Z</time>
      </trkpt>
      <trkpt lat="43.22151" lon="6.4912">
        <ele>270.693054</ele>
        <time>2011-10-02T11:27:42Z</time>
      </trkpt>
      <trkpt lat="43.22152" lon="6.49146">
        <ele>270.849426</ele>
        <time>2011-10-02T11:27:51Z</time>
      </trkpt>
      <trkpt lat="43.22146" lon="6.49172">
        <ele>270.651245</ele>
        <time>2011-10-02T11:27:59Z</time>
      </trkpt>
      <trkpt lat="43.22145" lon="6.49179">
        <ele>270.625488</ele>
        <time>2011-10-02T11:28:01Z</time>
      </trkpt>
      <trkpt lat="43.22149" lon="6.49202">
        <ele>270.602966</ele>
        <time>2011-10-02T11:28:11Z</time>
      </trkpt>
      <trkpt lat="43.22151" lon="6.49203">
        <ele>270.637451</ele>
        <time>2011-10-02T11:28:13Z</time>
      </trkpt>
      <trkpt lat="43.22165" lon="6.4921">
        <ele>268.318726</ele>
        <time>2011-10-02T11:28:23Z</time>
      </trkpt>
      <trkpt lat="43.22172" lon="6.49215">
        <ele>266.985565</ele>
        <time>2011-10-02T11:28:27Z</time>
      </trkpt>
      <trkpt lat="43.22177" lon="6.49216">
        <ele>266.129456</ele>
        <time>2011-10-02T11:28:30Z</time>
      </trkpt>
      <trkpt lat="43.22179" lon="6.49211">
        <ele>266.006561</ele>
        <time>2011-10-02T11:28:33Z</time>
      </trkpt>
      <trkpt lat="43.22185" lon="6.49195">
        <ele>265.992279</ele>
        <time>2011-10-02T11:28:42Z</time>
      </trkpt>
      <trkpt lat="43.22186" lon="6.49191">
        <ele>266.072998</ele>
        <time>2011-10-02T11:28:44Z</time>
      </trkpt>
      <trkpt lat="43.22191" lon="6.4918">
        <ele>266.245483</ele>
        <time>2011-10-02T11:28:51Z</time>
      </trkpt>
      <trkpt lat="43.22202" lon="6.49168">
        <ele>266.252197</ele>
        <time>2011-10-02T11:29:01Z</time>
      </trkpt>
      <trkpt lat="43.22202" lon="6.49167">
        <ele>266.320526</ele>
        <time>2011-10-02T11:29:02Z</time>
      </trkpt>
      <trkpt lat="43.22205" lon="6.49157">
        <ele>267.166992</ele>
        <time>2011-10-02T11:29:08Z</time>
      </trkpt>
      <trkpt lat="43.22206" lon="6.49151">
        <ele>267.75415</ele>
        <time>2011-10-02T11:29:11Z</time>
      </trkpt>
      <trkpt lat="43.22206" lon="6.49141">
        <ele>268.978516</ele>
        <time>2011-10-02T11:29:24Z</time>
      </trkpt>
      <trkpt lat="43.2221" lon="6.4914">
        <ele>268.837006</ele>
        <time>2011-10-02T11:29:28Z</time>
      </trkpt>
      <trkpt lat="43.22221" lon="6.49126">
        <ele>270.071014</ele>
        <time>2011-10-02T11:29:39Z</time>
      </trkpt>
      <trkpt lat="43.22223" lon="6.4912">
        <ele>270.123444</ele>
        <time>2011-10-02T11:29:46Z</time>
      </trkpt>
      <trkpt lat="43.22223" lon="6.49117">
        <ele>270.201691</ele>
        <time>2011-10-02T11:29:49Z</time>
      </trkpt>
      <trkpt lat="43.22232" lon="6.49104">
        <ele>270.243347</ele>
        <time>2011-10-02T11:29:58Z</time>
      </trkpt>
      <trkpt lat="43.22234" lon="6.49094">
        <ele>270.44577</ele>
        <time>2011-10-02T11:30:02Z</time>
      </trkpt>
      <trkpt lat="43.22239" lon="6.49086">
        <ele>270.547974</ele>
        <time>2011-10-02T11:30:05Z</time>
      </trkpt>
      <trkpt lat="43.22239" lon="6.49079">
        <ele>270.772766</ele>
        <time>2011-10-02T11:30:08Z</time>
      </trkpt>
      <trkpt lat="43.2224" lon="6.49071">
        <ele>270.974518</ele>
        <time>2011-10-02T11:30:11Z</time>
      </trkpt>
      <trkpt lat="43.22246" lon="6.49059">
        <ele>271.021301</ele>
        <time>2011-10-02T11:30:23Z</time>
      </trkpt>
      <trkpt lat="43.22247" lon="6.49054">
        <ele>271.008911</ele>
        <time>2011-10-02T11:30:26Z</time>
      </trkpt>
      <trkpt lat="43.22246" lon="6.49049">
        <ele>271.012756</ele>
        <time>2011-10-02T11:30:30Z</time>
      </trkpt>
      <trkpt lat="43.22247" lon="6.49046">
        <ele>271.006897</ele>
        <time>2011-10-02T11:30:32Z</time>
      </trkpt>
      <trkpt lat="43.22247" lon="6.49042">
        <ele>271.001678</ele>
        <time>2011-10-02T11:30:36Z</time>
      </trkpt>
      <trkpt lat="43.2225" lon="6.49043">
        <ele>270.920349</ele>
        <time>2011-10-02T11:30:39Z</time>
      </trkpt>
      <trkpt lat="43.22258" lon="6.49051">
        <ele>270.714813</ele>
        <time>2011-10-02T11:30:49Z</time>
      </trkpt>
      <trkpt lat="43.2227" lon="6.49046">
        <ele>270.3302</ele>
        <time>2011-10-02T11:31:05Z</time>
      </trkpt>
      <trkpt lat="43.22274" lon="6.49044">
        <ele>270.188873</ele>
        <time>2011-10-02T11:31:15Z</time>
      </trkpt>
      <trkpt lat="43.22276" lon="6.49044">
        <ele>270.128113</ele>
        <time>2011-10-02T11:31:16Z</time>
      </trkpt>
      <trkpt lat="43.22284" lon="6.49041">
        <ele>269.829742</ele>
        <time>2011-10-02T11:31:20Z</time>
      </trkpt>
      <trkpt lat="43.22283" lon="6.49026">
        <ele>269.684448</ele>
        <time>2011-10-02T11:31:29Z</time>
      </trkpt>
      <trkpt lat="43.22285" lon="6.49007">
        <ele>269.369995</ele>
        <time>2011-10-02T11:31:37Z</time>
      </trkpt>
      <trkpt lat="43.22285" lon="6.48982">
        <ele>268.619995</ele>
        <time>2011-10-02T11:31:44Z</time>
      </trkpt>
      <trkpt lat="43.22286" lon="6.48958">
        <ele>267.839996</ele>
        <time>2011-10-02T11:31:53Z</time>
      </trkpt>
      <trkpt lat="43.22302" lon="6.48965">
        <ele>266.802887</ele>
        <time>2011-10-02T11:32:00Z</time>
      </trkpt>
      <trkpt lat="43.2232" lon="6.48975">
        <ele>264.781433</ele>
        <time>2011-10-02T11:32:07Z</time>
      </trkpt>
      <trkpt lat="43.22334" lon="6.48967">
        <ele>262.662262</ele>
        <time>2011-10-02T11:32:12Z</time>
      </trkpt>
      <trkpt lat="43.2234" lon="6.48964">
        <ele>261.757904</ele>
        <time>2011-10-02T11:32:16Z</time>
      </trkpt>
      <trkpt lat="43.2235" lon="6.48957">
        <ele>257.815704</ele>
        <time>2011-10-02T11:32:24Z</time>
      </trkpt>
      <trkpt lat="43.22356" lon="6.48943">
        <ele>254.716248</ele>
        <time>2011-10-02T11:32:34Z</time>
      </trkpt>
      <trkpt lat="43.22358" lon="6.48943">
        <ele>253.962494</ele>
        <time>2011-10-02T11:32:36Z</time>
      </trkpt>
      <trkpt lat="43.22366" lon="6.48935">
        <ele>250.5</ele>
        <time>2011-10-02T11:32:46Z</time>
      </trkpt>
      <trkpt lat="43.2237" lon="6.48932">
        <ele>248.975006</ele>
        <time>2011-10-02T11:32:58Z</time>
      </trkpt>
      <trkpt lat="43.22379" lon="6.48938">
        <ele>245.603745</ele>
        <time>2011-10-02T11:33:02Z</time>
      </trkpt>
      <trkpt lat="43.22403" lon="6.48933">
        <ele>236.263138</ele>
        <time>2011-10-02T11:33:09Z</time>
      </trkpt>
      <trkpt lat="43.22407" lon="6.48931">
        <ele>234.923492</ele>
        <time>2011-10-02T11:33:10Z</time>
      </trkpt>
      <trkpt lat="43.22414" lon="6.4893">
        <ele>232.196808</ele>
        <time>2011-10-02T11:33:14Z</time>
      </trkpt>
      <trkpt lat="43.22418" lon="6.48928">
        <ele>230.851364</ele>
        <time>2011-10-02T11:33:18Z</time>
      </trkpt>
      <trkpt lat="43.22441" lon="6.48935">
        <ele>223.07869</ele>
        <time>2011-10-02T11:33:26Z</time>
      </trkpt>
      <trkpt lat="43.22449" lon="6.48935">
        <ele>220.721375</ele>
        <time>2011-10-02T11:33:29Z</time>
      </trkpt>
      <trkpt lat="43.2246" lon="6.48932">
        <ele>217.512802</ele>
        <time>2011-10-02T11:33:33Z</time>
      </trkpt>
      <trkpt lat="43.22465" lon="6.48924">
        <ele>215.801941</ele>
        <time>2011-10-02T11:33:37Z</time>
      </trkpt>
      <trkpt lat="43.22487" lon="6.48922">
        <ele>209.877411</ele>
        <time>2011-10-02T11:33:47Z</time>
      </trkpt>
      <trkpt lat="43.22487" lon="6.48929">
        <ele>209.877289</ele>
        <time>2011-10-02T11:33:50Z</time>
      </trkpt>
      <trkpt lat="43.22491" lon="6.48945">
        <ele>208.68663</ele>
        <time>2011-10-02T11:33:55Z</time>
      </trkpt>
      <trkpt lat="43.22488" lon="6.48966">
        <ele>209.581177</ele>
        <time>2011-10-02T11:34:02Z</time>
      </trkpt>
      <trkpt lat="43.22492" lon="6.48979">
        <ele>208.455109</ele>
        <time>2011-10-02T11:34:13Z</time>
      </trkpt>
      <trkpt lat="43.22495" lon="6.48984">
        <ele>207.667023</ele>
        <time>2011-10-02T11:34:20Z</time>
      </trkpt>
      <trkpt lat="43.22499" lon="6.48988">
        <ele>206.271652</ele>
        <time>2011-10-02T11:34:28Z</time>
      </trkpt>
      <trkpt lat="43.22501" lon="6.48993">
        <ele>205.639023</ele>
        <time>2011-10-02T11:34:31Z</time>
      </trkpt>
      <trkpt lat="43.22501" lon="6.49004">
        <ele>205.679108</ele>
        <time>2011-10-02T11:34:37Z</time>
      </trkpt>
      <trkpt lat="43.22501" lon="6.49017">
        <ele>205.774918</ele>
        <time>2011-10-02T11:34:42Z</time>
      </trkpt>
      <trkpt lat="43.225" lon="6.49025">
        <ele>205.88443</ele>
        <time>2011-10-02T11:34:45Z</time>
      </trkpt>
      <trkpt lat="43.22499" lon="6.49036">
        <ele>205.834244</ele>
        <time>2011-10-02T11:34:50Z</time>
      </trkpt>
      <trkpt lat="43.22539" lon="6.49082">
        <ele>186.912933</ele>
        <time>2011-10-02T11:35:36Z</time>
      </trkpt>
      <trkpt lat="43.2254" lon="6.49085">
        <ele>186.525375</ele>
        <time>2011-10-02T11:35:37Z</time>
      </trkpt>
      <trkpt lat="43.22537" lon="6.49094">
        <ele>186.908051</ele>
        <time>2011-10-02T11:35:47Z</time>
      </trkpt>
      <trkpt lat="43.22537" lon="6.49098">
        <ele>186.341156</ele>
        <time>2011-10-02T11:35:53Z</time>
      </trkpt>
      <trkpt lat="43.22538" lon="6.49101">
        <ele>185.417038</ele>
        <time>2011-10-02T11:35:56Z</time>
      </trkpt>
      <trkpt lat="43.22545" lon="6.49121">
        <ele>180.166702</ele>
        <time>2011-10-02T11:36:05Z</time>
      </trkpt>
      <trkpt lat="43.22545" lon="6.49125">
        <ele>179.930588</ele>
        <time>2011-10-02T11:36:06Z</time>
      </trkpt>
      <trkpt lat="43.22544" lon="6.49132">
        <ele>179.473602</ele>
        <time>2011-10-02T11:36:08Z</time>
      </trkpt>
      <trkpt lat="43.22539" lon="6.49144">
        <ele>179.953995</ele>
        <time>2011-10-02T11:36:17Z</time>
      </trkpt>
      <trkpt lat="43.22537" lon="6.4915">
        <ele>179.737579</ele>
        <time>2011-10-02T11:36:23Z</time>
      </trkpt>
      <trkpt lat="43.22539" lon="6.49157">
        <ele>177.690628</ele>
        <time>2011-10-02T11:36:31Z</time>
      </trkpt>
      <trkpt lat="43.22541" lon="6.49157">
        <ele>176.98407</ele>
        <time>2011-10-02T11:36:34Z</time>
      </trkpt>
      <trkpt lat="43.22549" lon="6.49172">
        <ele>171.075653</ele>
        <time>2011-10-02T11:36:43Z</time>
      </trkpt>
      <trkpt lat="43.22551" lon="6.49176">
        <ele>169.519363</ele>
        <time>2011-10-02T11:36:52Z</time>
      </trkpt>
      <trkpt lat="43.22552" lon="6.49181">
        <ele>168.363815</ele>
        <time>2011-10-02T11:36:59Z</time>
      </trkpt>
      <trkpt lat="43.22555" lon="6.49189">
        <ele>165.781723</ele>
        <time>2011-10-02T11:37:03Z</time>
      </trkpt>
      <trkpt lat="43.22559" lon="6.4919">
        <ele>164.109009</ele>
        <time>2011-10-02T11:37:07Z</time>
      </trkpt>
      <trkpt lat="43.22565" lon="6.49189">
        <ele>162.251114</ele>
        <time>2011-10-02T11:37:14Z</time>
      </trkpt>
      <trkpt lat="43.22577" lon="6.4921">
        <ele>154.44043</ele>
        <time>2011-10-02T11:37:23Z</time>
      </trkpt>
      <trkpt lat="43.22586" lon="6.49225">
        <ele>149.224548</ele>
        <time>2011-10-02T11:37:30Z</time>
      </trkpt>
      <trkpt lat="43.22591" lon="6.49235">
        <ele>146.211395</ele>
        <time>2011-10-02T11:37:35Z</time>
      </trkpt>
      <trkpt lat="43.22589" lon="6.49244">
        <ele>145.234695</ele>
        <time>2011-10-02T11:37:39Z</time>
      </trkpt>
      <trkpt lat="43.2259" lon="6.49247">
        <ele>144.569595</ele>
        <time>2011-10-02T11:37:41Z</time>
      </trkpt>
      <trkpt lat="43.22589" lon="6.49252">
        <ele>144.11705</ele>
        <time>2011-10-02T11:37:43Z</time>
      </trkpt>
      <trkpt lat="43.22589" lon="6.49258">
        <ele>143.081757</ele>
        <time>2011-10-02T11:37:46Z</time>
      </trkpt>
      <trkpt lat="43.22602" lon="6.49254">
        <ele>142.047623</ele>
        <time>2011-10-02T11:37:53Z</time>
      </trkpt>
      <trkpt lat="43.22609" lon="6.49263">
        <ele>142.638077</ele>
        <time>2011-10-02T11:37:58Z</time>
      </trkpt>
      <trkpt lat="43.2261" lon="6.49265">
        <ele>142.687286</ele>
        <time>2011-10-02T11:38:00Z</time>
      </trkpt>
      <trkpt lat="43.22618" lon="6.4927">
        <ele>143.991867</ele>
        <time>2011-10-02T11:38:06Z</time>
      </trkpt>
      <trkpt lat="43.22628" lon="6.49278">
        <ele>145.571335</ele>
        <time>2011-10-02T11:38:20Z</time>
      </trkpt>
      <trkpt lat="43.22629" lon="6.4928">
        <ele>145.975342</ele>
        <time>2011-10-02T11:38:23Z</time>
      </trkpt>
      <trkpt lat="43.22633" lon="6.49282">
        <ele>146.98848</ele>
        <time>2011-10-02T11:38:30Z</time>
      </trkpt>
      <trkpt lat="43.22637" lon="6.49283">
        <ele>147.902435</ele>
        <time>2011-10-02T11:38:34Z</time>
      </trkpt>
      <trkpt lat="43.22646" lon="6.49291">
        <ele>151.201096</ele>
        <time>2011-10-02T11:38:47Z</time>
      </trkpt>
      <trkpt lat="43.2265" lon="6.49294">
        <ele>152.276352</ele>
        <time>2011-10-02T11:38:52Z</time>
      </trkpt>
      <trkpt lat="43.22657" lon="6.493">
        <ele>154.634644</ele>
        <time>2011-10-02T11:39:04Z</time>
      </trkpt>
      <trkpt lat="43.22666" lon="6.49304">
        <ele>157.020157</ele>
        <time>2011-10-02T11:39:19Z</time>
      </trkpt>
      <trkpt lat="43.22675" lon="6.49311">
        <ele>159.682556</ele>
        <time>2011-10-02T11:39:32Z</time>
      </trkpt>
      <trkpt lat="43.2268" lon="6.49318">
        <ele>161.147369</ele>
        <time>2011-10-02T11:39:43Z</time>
      </trkpt>
      <trkpt lat="43.22682" lon="6.49325">
        <ele>162.213318</ele>
        <time>2011-10-02T11:39:54Z</time>
      </trkpt>
      <trkpt lat="43.22685" lon="6.4933">
        <ele>162.912582</ele>
        <time>2011-10-02T11:40:10Z</time>
      </trkpt>
      <trkpt lat="43.22687" lon="6.49328">
        <ele>163.186478</ele>
        <time>2011-10-02T11:40:41Z</time>
      </trkpt>
      <trkpt lat="43.22686" lon="6.4933">
        <ele>163.238968</ele>
        <time>2011-10-02T11:41:14Z</time>
      </trkpt>
      <trkpt lat="43.22685" lon="6.49333">
        <ele>163.27153</ele>
        <time>2011-10-02T11:41:19Z</time>
      </trkpt>
      <trkpt lat="43.22682" lon="6.49356">
        <ele>163.574921</ele>
        <time>2011-10-02T11:41:29Z</time>
      </trkpt>
      <trkpt lat="43.22681" lon="6.49359">
        <ele>163.628006</ele>
        <time>2011-10-02T11:41:30Z</time>
      </trkpt>
      <trkpt lat="43.22676" lon="6.49378">
        <ele>163.559006</ele>
        <time>2011-10-02T11:41:37Z</time>
      </trkpt>
      <trkpt lat="43.22673" lon="6.49397">
        <ele>163.942719</ele>
        <time>2011-10-02T11:41:45Z</time>
      </trkpt>
      <trkpt lat="43.22672" lon="6.4943">
        <ele>162.683197</ele>
        <time>2011-10-02T11:41:59Z</time>
      </trkpt>
      <trkpt lat="43.22673" lon="6.49438">
        <ele>162.316055</ele>
        <time>2011-10-02T11:42:02Z</time>
      </trkpt>
      <trkpt lat="43.22678" lon="6.49464">
        <ele>161.628906</ele>
        <time>2011-10-02T11:42:08Z</time>
      </trkpt>
      <trkpt lat="43.22675" lon="6.49485">
        <ele>158.419342</ele>
        <time>2011-10-02T11:42:12Z</time>
      </trkpt>
      <trkpt lat="43.22676" lon="6.49497">
        <ele>156.858475</ele>
        <time>2011-10-02T11:42:14Z</time>
      </trkpt>
      <trkpt lat="43.22687" lon="6.49547">
        <ele>149.382675</ele>
        <time>2011-10-02T11:42:22Z</time>
      </trkpt>
      <trkpt lat="43.22694" lon="6.49561">
        <ele>147.150894</ele>
        <time>2011-10-02T11:42:24Z</time>
      </trkpt>
      <trkpt lat="43.22712" lon="6.49598">
        <ele>143.751068</ele>
        <time>2011-10-02T11:42:29Z</time>
      </trkpt>
      <trkpt lat="43.22726" lon="6.49624">
        <ele>142.468933</ele>
        <time>2011-10-02T11:42:33Z</time>
      </trkpt>
      <trkpt lat="43.22743" lon="6.49658">
        <ele>140.747604</ele>
        <time>2011-10-02T11:42:38Z</time>
      </trkpt>
      <trkpt lat="43.22761" lon="6.49712">
        <ele>140.68663</ele>
        <time>2011-10-02T11:42:45Z</time>
      </trkpt>
      <trkpt lat="43.2277" lon="6.49723">
        <ele>139.029037</ele>
        <time>2011-10-02T11:42:47Z</time>
      </trkpt>
      <trkpt lat="43.2279" lon="6.49737">
        <ele>134.974884</ele>
        <time>2011-10-02T11:42:51Z</time>
      </trkpt>
      <trkpt lat="43.22807" lon="6.49761">
        <ele>132.529007</ele>
        <time>2011-10-02T11:42:55Z</time>
      </trkpt>
      <trkpt lat="43.22841" lon="6.49792">
        <ele>129.705521</ele>
        <time>2011-10-02T11:43:01Z</time>
      </trkpt>
      <trkpt lat="43.22866" lon="6.49794">
        <ele>129.734802</ele>
        <time>2011-10-02T11:43:05Z</time>
      </trkpt>
      <trkpt lat="43.22897" lon="6.49788">
        <ele>129.65596</ele>
        <time>2011-10-02T11:43:13Z</time>
      </trkpt>
      <trkpt lat="43.22907" lon="6.49791">
        <ele>129.44075</ele>
        <time>2011-10-02T11:43:16Z</time>
      </trkpt>
      <trkpt lat="43.22932" lon="6.49798">
        <ele>128.946503</ele>
        <time>2011-10-02T11:43:22Z</time>
      </trkpt>
      <trkpt lat="43.22945" lon="6.49835">
        <ele>133.684402</ele>
        <time>2011-10-02T11:43:31Z</time>
      </trkpt>
      <trkpt lat="43.22949" lon="6.49844">
        <ele>134.908936</ele>
        <time>2011-10-02T11:43:35Z</time>
      </trkpt>
      <trkpt lat="43.22955" lon="6.49856">
        <ele>136.627457</ele>
        <time>2011-10-02T11:43:43Z</time>
      </trkpt>
      <trkpt lat="43.2296" lon="6.49867">
        <ele>137.49707</ele>
        <time>2011-10-02T11:43:53Z</time>
      </trkpt>
      <trkpt lat="43.22966" lon="6.49876">
        <ele>138.423126</ele>
        <time>2011-10-02T11:43:58Z</time>
      </trkpt>
      <trkpt lat="43.22967" lon="6.49881">
        <ele>138.956192</ele>
        <time>2011-10-02T11:44:00Z</time>
      </trkpt>
      <trkpt lat="43.22975" lon="6.49896">
        <ele>140.821503</ele>
        <time>2011-10-02T11:44:05Z</time>
      </trkpt>
      <trkpt lat="43.22994" lon="6.49909">
        <ele>143.075455</ele>
        <time>2011-10-02T11:44:12Z</time>
      </trkpt>
      <trkpt lat="43.23002" lon="6.49913">
        <ele>143.899399</ele>
        <time>2011-10-02T11:44:16Z</time>
      </trkpt>
      <trkpt lat="43.2301" lon="6.49915">
        <ele>144.367188</ele>
        <time>2011-10-02T11:44:19Z</time>
      </trkpt>
      <trkpt lat="43.23019" lon="6.49901">
        <ele>142.490402</ele>
        <time>2011-10-02T11:44:24Z</time>
      </trkpt>
      <trkpt lat="43.23023" lon="6.49877">
        <ele>138.594818</ele>
        <time>2011-10-02T11:44:32Z</time>
      </trkpt>
      <trkpt lat="43.23024" lon="6.49854">
        <ele>134.817505</ele>
        <time>2011-10-02T11:44:38Z</time>
      </trkpt>
      <trkpt lat="43.23027" lon="6.4985">
        <ele>133.97406</ele>
        <time>2011-10-02T11:44:39Z</time>
      </trkpt>
      <trkpt lat="43.23034" lon="6.49842">
        <ele>132.669296</ele>
        <time>2011-10-02T11:44:41Z</time>
      </trkpt>
      <trkpt lat="43.23037" lon="6.49839">
        <ele>132.14505</ele>
        <time>2011-10-02T11:44:47Z</time>
      </trkpt>
      <trkpt lat="43.23043" lon="6.49833">
        <ele>131.125259</ele>
        <time>2011-10-02T11:44:51Z</time>
      </trkpt>
      <trkpt lat="43.23047" lon="6.49827">
        <ele>129.985397</ele>
        <time>2011-10-02T11:44:53Z</time>
      </trkpt>
      <trkpt lat="43.23065" lon="6.49815">
        <ele>127.566689</ele>
        <time>2011-10-02T11:45:01Z</time>
      </trkpt>
      <trkpt lat="43.23083" lon="6.49816">
        <ele>128.313507</ele>
        <time>2011-10-02T11:45:07Z</time>
      </trkpt>
      <trkpt lat="43.23087" lon="6.49804">
        <ele>126.246704</ele>
        <time>2011-10-02T11:45:11Z</time>
      </trkpt>
      <trkpt lat="43.23098" lon="6.49794">
        <ele>125.559822</ele>
        <time>2011-10-02T11:45:17Z</time>
      </trkpt>
      <trkpt lat="43.23125" lon="6.49787">
        <ele>126.397064</ele>
        <time>2011-10-02T11:45:26Z</time>
      </trkpt>
      <trkpt lat="43.23133" lon="6.49781">
        <ele>126.148102</ele>
        <time>2011-10-02T11:45:29Z</time>
      </trkpt>
      <trkpt lat="43.23154" lon="6.49778">
        <ele>127.532234</ele>
        <time>2011-10-02T11:45:35Z</time>
      </trkpt>
      <trkpt lat="43.23168" lon="6.49773">
        <ele>127.779999</ele>
        <time>2011-10-02T11:45:40Z</time>
      </trkpt>
      <trkpt lat="43.2319" lon="6.49759">
        <ele>126.536682</ele>
        <time>2011-10-02T11:45:47Z</time>
      </trkpt>
      <trkpt lat="43.23203" lon="6.49768">
        <ele>128.474167</ele>
        <time>2011-10-02T11:45:54Z</time>
      </trkpt>
      <trkpt lat="43.23212" lon="6.49773">
        <ele>129.309906</ele>
        <time>2011-10-02T11:45:58Z</time>
      </trkpt>
      <trkpt lat="43.23216" lon="6.49775">
        <ele>129.419693</ele>
        <time>2011-10-02T11:46:00Z</time>
      </trkpt>
      <trkpt lat="43.23226" lon="6.4978">
        <ele>129.563324</ele>
        <time>2011-10-02T11:46:04Z</time>
      </trkpt>
      <trkpt lat="43.23229" lon="6.49783">
        <ele>129.809692</ele>
        <time>2011-10-02T11:46:06Z</time>
      </trkpt>
      <trkpt lat="43.23233" lon="6.49791">
        <ele>130.910126</ele>
        <time>2011-10-02T11:46:10Z</time>
      </trkpt>
      <trkpt lat="43.23237" lon="6.49798">
        <ele>131.870102</ele>
        <time>2011-10-02T11:46:14Z</time>
      </trkpt>
      <trkpt lat="43.23245" lon="6.4981">
        <ele>133.387161</ele>
        <time>2011-10-02T11:46:22Z</time>
      </trkpt>
      <trkpt lat="43.23248" lon="6.49811">
        <ele>133.459076</ele>
        <time>2011-10-02T11:46:24Z</time>
      </trkpt>
      <trkpt lat="43.23269" lon="6.4982">
        <ele>131.791977</ele>
        <time>2011-10-02T11:46:31Z</time>
      </trkpt>
      <trkpt lat="43.23295" lon="6.49809">
        <ele>126.145615</ele>
        <time>2011-10-02T11:46:39Z</time>
      </trkpt>
      <trkpt lat="43.23294" lon="6.49797">
        <ele>124.730957</ele>
        <time>2011-10-02T11:46:41Z</time>
      </trkpt>
      <trkpt lat="43.23291" lon="6.49791">
        <ele>124.282799</ele>
        <time>2011-10-02T11:46:43Z</time>
      </trkpt>
      <trkpt lat="43.233" lon="6.49776">
        <ele>121.230042</ele>
        <time>2011-10-02T11:46:50Z</time>
      </trkpt>
      <trkpt lat="43.23319" lon="6.49815">
        <ele>122.062317</ele>
        <time>2011-10-02T11:46:57Z</time>
      </trkpt>
      <trkpt lat="43.23326" lon="6.4982">
        <ele>121.050957</ele>
        <time>2011-10-02T11:46:59Z</time>
      </trkpt>
      <trkpt lat="43.23348" lon="6.49829">
        <ele>118.162399</ele>
        <time>2011-10-02T11:47:04Z</time>
      </trkpt>
      <trkpt lat="43.23357" lon="6.49833">
        <ele>117.585144</ele>
        <time>2011-10-02T11:47:06Z</time>
      </trkpt>
      <trkpt lat="43.23373" lon="6.49836">
        <ele>116.273399</ele>
        <time>2011-10-02T11:47:09Z</time>
      </trkpt>
      <trkpt lat="43.23399" lon="6.49827">
        <ele>114.27726</ele>
        <time>2011-10-02T11:47:15Z</time>
      </trkpt>
      <trkpt lat="43.2343" lon="6.49819">
        <ele>113.597664</ele>
        <time>2011-10-02T11:47:24Z</time>
      </trkpt>
      <trkpt lat="43.23437" lon="6.49817">
        <ele>113.356369</ele>
        <time>2011-10-02T11:47:29Z</time>
      </trkpt>
      <trkpt lat="43.23462" lon="6.49818">
        <ele>113.942894</ele>
        <time>2011-10-02T11:47:38Z</time>
      </trkpt>
      <trkpt lat="43.23476" lon="6.49819">
        <ele>114.216484</ele>
        <time>2011-10-02T11:47:42Z</time>
      </trkpt>
      <trkpt lat="43.23487" lon="6.49821">
        <ele>113.705772</ele>
        <time>2011-10-02T11:47:45Z</time>
      </trkpt>
      <trkpt lat="43.23494" lon="6.49827">
        <ele>113.770714</ele>
        <time>2011-10-02T11:47:47Z</time>
      </trkpt>
      <trkpt lat="43.2351" lon="6.4984">
        <ele>113.482147</ele>
        <time>2011-10-02T11:47:53Z</time>
      </trkpt>
      <trkpt lat="43.23512" lon="6.49866">
        <ele>115.026489</ele>
        <time>2011-10-02T11:48:00Z</time>
      </trkpt>
      <trkpt lat="43.23517" lon="6.499">
        <ele>116.631966</ele>
        <time>2011-10-02T11:48:12Z</time>
      </trkpt>
      <trkpt lat="43.23521" lon="6.49913">
        <ele>117.392349</ele>
        <time>2011-10-02T11:48:17Z</time>
      </trkpt>
      <trkpt lat="43.23524" lon="6.49926">
        <ele>118.488831</ele>
        <time>2011-10-02T11:48:22Z</time>
      </trkpt>
      <trkpt lat="43.23531" lon="6.49955">
        <ele>120.361092</ele>
        <time>2011-10-02T11:48:34Z</time>
      </trkpt>
      <trkpt lat="43.23533" lon="6.49961">
        <ele>120.698402</ele>
        <time>2011-10-02T11:48:55Z</time>
      </trkpt>
      <trkpt lat="43.23532" lon="6.49962">
        <ele>121.020912</ele>
        <time>2011-10-02T11:49:46Z</time>
      </trkpt>
      <trkpt lat="43.23532" lon="6.49964">
        <ele>121.305145</ele>
        <time>2011-10-02T11:50:14Z</time>
      </trkpt>
      <trkpt lat="43.23534" lon="6.49962">
        <ele>120.586487</ele>
        <time>2011-10-02T11:51:13Z</time>
      </trkpt>
      <trkpt lat="43.23534" lon="6.49963">
        <ele>120.693611</ele>
        <time>2011-10-02T11:51:33Z</time>
      </trkpt>
      <trkpt lat="43.23534" lon="6.49964">
        <ele>120.838211</ele>
        <time>2011-10-02T11:52:00Z</time>
      </trkpt>
      <trkpt lat="43.23534" lon="6.49964">
        <ele>120.820137</ele>
        <time>2011-10-02T11:52:01Z</time>
      </trkpt>
      <trkpt lat="43.23535" lon="6.49967">
        <ele>121.045998</ele>
        <time>2011-10-02T11:52:04Z</time>
      </trkpt>
      <trkpt lat="43.23534" lon="6.49986">
        <ele>123.201126</ele>
        <time>2011-10-02T11:52:14Z</time>
      </trkpt>
      <trkpt lat="43.23536" lon="6.50013">
        <ele>125.900063</ele>
        <time>2011-10-02T11:52:25Z</time>
      </trkpt>
      <trkpt lat="43.23543" lon="6.50047">
        <ele>126.260002</ele>
        <time>2011-10-02T11:52:38Z</time>
      </trkpt>
      <trkpt lat="43.23552" lon="6.50076">
        <ele>125.787498</ele>
        <time>2011-10-02T11:52:50Z</time>
      </trkpt>
      <trkpt lat="43.23553" lon="6.50081">
        <ele>125.779999</ele>
        <time>2011-10-02T11:53:01Z</time>
      </trkpt>
      <trkpt lat="43.23553" lon="6.50086">
        <ele>125.966652</ele>
        <time>2011-10-02T11:53:03Z</time>
      </trkpt>
      <trkpt lat="43.23552" lon="6.5009">
        <ele>126.208984</ele>
        <time>2011-10-02T11:53:05Z</time>
      </trkpt>
      <trkpt lat="43.23544" lon="6.50107">
        <ele>128.779358</ele>
        <time>2011-10-02T11:53:13Z</time>
      </trkpt>
      <trkpt lat="43.2354" lon="6.50128">
        <ele>130.794083</ele>
        <time>2011-10-02T11:53:23Z</time>
      </trkpt>
      <trkpt lat="43.23535" lon="6.5016">
        <ele>133.79837</ele>
        <time>2011-10-02T11:53:38Z</time>
      </trkpt>
      <trkpt lat="43.23532" lon="6.5017">
        <ele>135.100021</ele>
        <time>2011-10-02T11:53:43Z</time>
      </trkpt>
      <trkpt lat="43.2353" lon="6.50182">
        <ele>136.045395</ele>
        <time>2011-10-02T11:53:49Z</time>
      </trkpt>
      <trkpt lat="43.23527" lon="6.50201">
        <ele>137.735275</ele>
        <time>2011-10-02T11:54:00Z</time>
      </trkpt>
      <trkpt lat="43.23524" lon="6.50211">
        <ele>139.047623</ele>
        <time>2011-10-02T11:54:06Z</time>
      </trkpt>
      <trkpt lat="43.23519" lon="6.50221">
        <ele>140.606537</ele>
        <time>2011-10-02T11:54:11Z</time>
      </trkpt>
      <trkpt lat="43.23509" lon="6.5023">
        <ele>142.466217</ele>
        <time>2011-10-02T11:54:19Z</time>
      </trkpt>
      <trkpt lat="43.23514" lon="6.50248">
        <ele>143.494278</ele>
        <time>2011-10-02T11:54:28Z</time>
      </trkpt>
      <trkpt lat="43.23522" lon="6.5027">
        <ele>145.076492</ele>
        <time>2011-10-02T11:54:40Z</time>
      </trkpt>
      <trkpt lat="43.23533" lon="6.50292">
        <ele>147.2005</ele>
        <time>2011-10-02T11:54:53Z</time>
      </trkpt>
      <trkpt lat="43.23534" lon="6.50294">
        <ele>147.488205</ele>
        <time>2011-10-02T11:54:54Z</time>
      </trkpt>
      <trkpt lat="43.23534" lon="6.503">
        <ele>148.175507</ele>
        <time>2011-10-02T11:54:58Z</time>
      </trkpt>
      <trkpt lat="43.23535" lon="6.50307">
        <ele>149.003998</ele>
        <time>2011-10-02T11:55:02Z</time>
      </trkpt>
      <trkpt lat="43.23535" lon="6.50312">
        <ele>149.436996</ele>
        <time>2011-10-02T11:55:05Z</time>
      </trkpt>
      <trkpt lat="43.23534" lon="6.50338">
        <ele>150.471848</ele>
        <time>2011-10-02T11:55:18Z</time>
      </trkpt>
      <trkpt lat="43.23534" lon="6.50343">
        <ele>150.469498</ele>
        <time>2011-10-02T11:55:21Z</time>
      </trkpt>
      <trkpt lat="43.23535" lon="6.50359">
        <ele>149.841278</ele>
        <time>2011-10-02T11:55:28Z</time>
      </trkpt>
      <trkpt lat="43.23535" lon="6.50369">
        <ele>149.536682</ele>
        <time>2011-10-02T11:55:32Z</time>
      </trkpt>
      <trkpt lat="43.23549" lon="6.50399">
        <ele>151.933533</ele>
        <time>2011-10-02T11:55:47Z</time>
      </trkpt>
      <trkpt lat="43.23567" lon="6.50417">
        <ele>152.658829</ele>
        <time>2011-10-02T11:56:01Z</time>
      </trkpt>
      <trkpt lat="43.23579" lon="6.50422">
        <ele>154.665939</ele>
        <time>2011-10-02T11:56:08Z</time>
      </trkpt>
      <trkpt lat="43.23585" lon="6.50425">
        <ele>155.405746</ele>
        <time>2011-10-02T11:56:12Z</time>
      </trkpt>
      <trkpt lat="43.2359" lon="6.50427">
        <ele>156.117966</ele>
        <time>2011-10-02T11:56:15Z</time>
      </trkpt>
      <trkpt lat="43.23604" lon="6.50437">
        <ele>155.981277</ele>
        <time>2011-10-02T11:56:23Z</time>
      </trkpt>
      <trkpt lat="43.23617" lon="6.50452">
        <ele>155.456619</ele>
        <time>2011-10-02T11:56:31Z</time>
      </trkpt>
      <trkpt lat="43.23622" lon="6.50465">
        <ele>153.398315</ele>
        <time>2011-10-02T11:56:37Z</time>
      </trkpt>
      <trkpt lat="43.23633" lon="6.50477">
        <ele>151.79129</ele>
        <time>2011-10-02T11:56:43Z</time>
      </trkpt>
      <trkpt lat="43.23635" lon="6.50479">
        <ele>151.451019</ele>
        <time>2011-10-02T11:56:45Z</time>
      </trkpt>
      <trkpt lat="43.23644" lon="6.50493">
        <ele>149.778503</ele>
        <time>2011-10-02T11:56:52Z</time>
      </trkpt>
      <trkpt lat="43.23645" lon="6.50494">
        <ele>149.830978</ele>
        <time>2011-10-02T11:56:53Z</time>
      </trkpt>
      <trkpt lat="43.23655" lon="6.50501">
        <ele>150.129288</ele>
        <time>2011-10-02T11:56:58Z</time>
      </trkpt>
      <trkpt lat="43.23672" lon="6.50503">
        <ele>153.869247</ele>
        <time>2011-10-02T11:57:07Z</time>
      </trkpt>
      <trkpt lat="43.23685" lon="6.50513">
        <ele>154.863052</ele>
        <time>2011-10-02T11:57:16Z</time>
      </trkpt>
      <trkpt lat="43.23695" lon="6.5052">
        <ele>156.019928</ele>
        <time>2011-10-02T11:57:22Z</time>
      </trkpt>
      <trkpt lat="43.23699" lon="6.50524">
        <ele>156.481232</ele>
        <time>2011-10-02T11:57:25Z</time>
      </trkpt>
      <trkpt lat="43.23709" lon="6.50534">
        <ele>157.113129</ele>
        <time>2011-10-02T11:57:32Z</time>
      </trkpt>
      <trkpt lat="43.23717" lon="6.50542">
        <ele>157.800003</ele>
        <time>2011-10-02T11:57:36Z</time>
      </trkpt>
      <trkpt lat="43.23723" lon="6.50553">
        <ele>156.932373</ele>
        <time>2011-10-02T11:57:43Z</time>
      </trkpt>
      <trkpt lat="43.23724" lon="6.5058">
        <ele>153.005371</ele>
        <time>2011-10-02T11:57:53Z</time>
      </trkpt>
      <trkpt lat="43.23736" lon="6.50593">
        <ele>154.639313</ele>
        <time>2011-10-02T11:58:03Z</time>
      </trkpt>
      <trkpt lat="43.23739" lon="6.50596">
        <ele>155.290314</ele>
        <time>2011-10-02T11:58:15Z</time>
      </trkpt>
      <trkpt lat="43.23748" lon="6.50597">
        <ele>157.770935</ele>
        <time>2011-10-02T11:58:29Z</time>
      </trkpt>
      <trkpt lat="43.23749" lon="6.50597">
        <ele>158.089615</ele>
        <time>2011-10-02T11:58:50Z</time>
      </trkpt>
      <trkpt lat="43.23749" lon="6.50597">
        <ele>158.038177</ele>
        <time>2011-10-02T11:58:52Z</time>
      </trkpt>
      <trkpt lat="43.2375" lon="6.50605">
        <ele>157.892624</ele>
        <time>2011-10-02T11:59:01Z</time>
      </trkpt>
      <trkpt lat="43.2375" lon="6.5062">
        <ele>157.160934</ele>
        <time>2011-10-02T11:59:08Z</time>
      </trkpt>
      <trkpt lat="43.23753" lon="6.50622">
        <ele>157.727112</ele>
        <time>2011-10-02T11:59:13Z</time>
      </trkpt>
      <trkpt lat="43.23761" lon="6.50622">
        <ele>160.370255</ele>
        <time>2011-10-02T11:59:25Z</time>
      </trkpt>
      <trkpt lat="43.23767" lon="6.50619">
        <ele>161.847504</ele>
        <time>2011-10-02T11:59:37Z</time>
      </trkpt>
      <trkpt lat="43.23767" lon="6.50617">
        <ele>162.029999</ele>
        <time>2011-10-02T11:59:49Z</time>
      </trkpt>
      <trkpt lat="43.23767" lon="6.50617">
        <ele>161.992325</ele>
        <time>2011-10-02T11:59:53Z</time>
      </trkpt>
      <trkpt lat="43.23771" lon="6.50608">
        <ele>162.83075</ele>
        <time>2011-10-02T11:59:58Z</time>
      </trkpt>
      <trkpt lat="43.23783" lon="6.50585">
        <ele>164.127838</ele>
        <time>2011-10-02T12:00:10Z</time>
      </trkpt>
      <trkpt lat="43.23792" lon="6.50586">
        <ele>165.000015</ele>
        <time>2011-10-02T12:00:16Z</time>
      </trkpt>
      <trkpt lat="43.2382" lon="6.50566">
        <ele>161.661194</ele>
        <time>2011-10-02T12:00:31Z</time>
      </trkpt>
      <trkpt lat="43.23831" lon="6.50573">
        <ele>162.49794</ele>
        <time>2011-10-02T12:00:36Z</time>
      </trkpt>
      <trkpt lat="43.23846" lon="6.5057">
        <ele>160.715622</ele>
        <time>2011-10-02T12:00:42Z</time>
      </trkpt>
      <trkpt lat="43.23858" lon="6.50573">
        <ele>160.654922</ele>
        <time>2011-10-02T12:00:47Z</time>
      </trkpt>
      <trkpt lat="43.23863" lon="6.50579">
        <ele>161.915756</ele>
        <time>2011-10-02T12:00:50Z</time>
      </trkpt>
      <trkpt lat="43.2388" lon="6.5059">
        <ele>163.756226</ele>
        <time>2011-10-02T12:01:01Z</time>
      </trkpt>
      <trkpt lat="43.23882" lon="6.50591">
        <ele>163.926376</ele>
        <time>2011-10-02T12:01:02Z</time>
      </trkpt>
      <trkpt lat="43.23888" lon="6.50594">
        <ele>164.382797</ele>
        <time>2011-10-02T12:01:06Z</time>
      </trkpt>
      <trkpt lat="43.23897" lon="6.506">
        <ele>165.529053</ele>
        <time>2011-10-02T12:01:14Z</time>
      </trkpt>
      <trkpt lat="43.2392" lon="6.50596">
        <ele>160.052719</ele>
        <time>2011-10-02T12:01:24Z</time>
      </trkpt>
      <trkpt lat="43.23932" lon="6.50603">
        <ele>159.531555</ele>
        <time>2011-10-02T12:01:32Z</time>
      </trkpt>
      <trkpt lat="43.23936" lon="6.50603">
        <ele>158.766754</ele>
        <time>2011-10-02T12:01:34Z</time>
      </trkpt>
      <trkpt lat="43.23939" lon="6.50601">
        <ele>157.690567</ele>
        <time>2011-10-02T12:01:37Z</time>
      </trkpt>
      <trkpt lat="43.23947" lon="6.50608">
        <ele>157.014328</ele>
        <time>2011-10-02T12:01:43Z</time>
      </trkpt>
      <trkpt lat="43.23959" lon="6.50631">
        <ele>156.007751</ele>
        <time>2011-10-02T12:01:51Z</time>
      </trkpt>
      <trkpt lat="43.23973" lon="6.50636">
        <ele>151.825409</ele>
        <time>2011-10-02T12:01:58Z</time>
      </trkpt>
      <trkpt lat="43.23976" lon="6.50639">
        <ele>151.28038</ele>
        <time>2011-10-02T12:01:59Z</time>
      </trkpt>
      <trkpt lat="43.23981" lon="6.50646">
        <ele>150.218124</ele>
        <time>2011-10-02T12:02:01Z</time>
      </trkpt>
      <trkpt lat="43.23988" lon="6.50673">
        <ele>149.827499</ele>
        <time>2011-10-02T12:02:08Z</time>
      </trkpt>
      <trkpt lat="43.23989" lon="6.50681">
        <ele>149.880005</ele>
        <time>2011-10-02T12:02:11Z</time>
      </trkpt>
      <trkpt lat="43.23998" lon="6.50706">
        <ele>147.535004</ele>
        <time>2011-10-02T12:02:20Z</time>
      </trkpt>
      <trkpt lat="43.24002" lon="6.50713">
        <ele>146.529999</ele>
        <time>2011-10-02T12:02:22Z</time>
      </trkpt>
      <trkpt lat="43.24003" lon="6.50721">
        <ele>146.485001</ele>
        <time>2011-10-02T12:02:24Z</time>
      </trkpt>
      <trkpt lat="43.24015" lon="6.50746">
        <ele>143.079483</ele>
        <time>2011-10-02T12:02:31Z</time>
      </trkpt>
      <trkpt lat="43.24019" lon="6.50776">
        <ele>142.981171</ele>
        <time>2011-10-02T12:02:40Z</time>
      </trkpt>
      <trkpt lat="43.24018" lon="6.50782">
        <ele>143.60112</ele>
        <time>2011-10-02T12:02:42Z</time>
      </trkpt>
      <trkpt lat="43.24025" lon="6.50817">
        <ele>143.022507</ele>
        <time>2011-10-02T12:02:52Z</time>
      </trkpt>
      <trkpt lat="43.24028" lon="6.5083">
        <ele>142.755005</ele>
        <time>2011-10-02T12:02:55Z</time>
      </trkpt>
      <trkpt lat="43.24037" lon="6.50851">
        <ele>141.317505</ele>
        <time>2011-10-02T12:02:59Z</time>
      </trkpt>
      <trkpt lat="43.24058" lon="6.50885">
        <ele>137.769852</ele>
        <time>2011-10-02T12:03:08Z</time>
      </trkpt>
      <trkpt lat="43.24074" lon="6.50913">
        <ele>135.729996</ele>
        <time>2011-10-02T12:03:15Z</time>
      </trkpt>
      <trkpt lat="43.24079" lon="6.50919">
        <ele>134.777496</ele>
        <time>2011-10-02T12:03:17Z</time>
      </trkpt>
      <trkpt lat="43.24087" lon="6.5094">
        <ele>133.272491</ele>
        <time>2011-10-02T12:03:22Z</time>
      </trkpt>
      <trkpt lat="43.24091" lon="6.5095">
        <ele>132.559998</ele>
        <time>2011-10-02T12:03:24Z</time>
      </trkpt>
      <trkpt lat="43.24097" lon="6.50967">
        <ele>131.117493</ele>
        <time>2011-10-02T12:03:27Z</time>
      </trkpt>
      <trkpt lat="43.24104" lon="6.51027">
        <ele>128.056854</ele>
        <time>2011-10-02T12:03:35Z</time>
      </trkpt>
      <trkpt lat="43.24104" lon="6.51043">
        <ele>127.441887</ele>
        <time>2011-10-02T12:03:37Z</time>
      </trkpt>
      <trkpt lat="43.24095" lon="6.51081">
        <ele>126.677498</ele>
        <time>2011-10-02T12:03:42Z</time>
      </trkpt>
      <trkpt lat="43.24084" lon="6.51109">
        <ele>127.265427</ele>
        <time>2011-10-02T12:03:46Z</time>
      </trkpt>
      <trkpt lat="43.24071" lon="6.51138">
        <ele>127.400337</ele>
        <time>2011-10-02T12:03:50Z</time>
      </trkpt>
      <trkpt lat="43.24059" lon="6.51184">
        <ele>125.761414</ele>
        <time>2011-10-02T12:03:57Z</time>
      </trkpt>
      <trkpt lat="43.24059" lon="6.51193">
        <ele>125.174431</ele>
        <time>2011-10-02T12:03:58Z</time>
      </trkpt>
      <trkpt lat="43.24061" lon="6.5121">
        <ele>123.672188</ele>
        <time>2011-10-02T12:04:00Z</time>
      </trkpt>
      <trkpt lat="43.24073" lon="6.5125">
        <ele>119.141533</ele>
        <time>2011-10-02T12:04:09Z</time>
      </trkpt>
      <trkpt lat="43.24078" lon="6.51268">
        <ele>117.707603</ele>
        <time>2011-10-02T12:04:12Z</time>
      </trkpt>
      <trkpt lat="43.24082" lon="6.51292">
        <ele>116.575562</ele>
        <time>2011-10-02T12:04:15Z</time>
      </trkpt>
      <trkpt lat="43.24092" lon="6.51332">
        <ele>116.579552</ele>
        <time>2011-10-02T12:04:20Z</time>
      </trkpt>
      <trkpt lat="43.24113" lon="6.51362">
        <ele>116.862686</ele>
        <time>2011-10-02T12:04:26Z</time>
      </trkpt>
      <trkpt lat="43.24122" lon="6.51367">
        <ele>116.954689</ele>
        <time>2011-10-02T12:04:28Z</time>
      </trkpt>
      <trkpt lat="43.24132" lon="6.51372">
        <ele>117.046509</ele>
        <time>2011-10-02T12:04:30Z</time>
      </trkpt>
      <trkpt lat="43.24142" lon="6.51377">
        <ele>116.700401</ele>
        <time>2011-10-02T12:04:32Z</time>
      </trkpt>
      <trkpt lat="43.24187" lon="6.5141">
        <ele>114.877274</ele>
        <time>2011-10-02T12:04:40Z</time>
      </trkpt>
      <trkpt lat="43.24213" lon="6.51415">
        <ele>111.90033</ele>
        <time>2011-10-02T12:04:43Z</time>
      </trkpt>
      <trkpt lat="43.24236" lon="6.51419">
        <ele>109.932976</ele>
        <time>2011-10-02T12:04:46Z</time>
      </trkpt>
      <trkpt lat="43.2433" lon="6.51424">
        <ele>103.808098</ele>
        <time>2011-10-02T12:04:57Z</time>
      </trkpt>
      <trkpt lat="43.24385" lon="6.51421">
        <ele>100.831543</ele>
        <time>2011-10-02T12:05:04Z</time>
      </trkpt>
      <trkpt lat="43.24461" lon="6.51428">
        <ele>97.386497</ele>
        <time>2011-10-02T12:05:15Z</time>
      </trkpt>
      <trkpt lat="43.2448" lon="6.51431">
        <ele>95.975548</ele>
        <time>2011-10-02T12:05:18Z</time>
      </trkpt>
      <trkpt lat="43.2451" lon="6.51447">
        <ele>93.210815</ele>
        <time>2011-10-02T12:05:23Z</time>
      </trkpt>
      <trkpt lat="43.24529" lon="6.51457">
        <ele>90.873009</ele>
        <time>2011-10-02T12:05:26Z</time>
      </trkpt>
      <trkpt lat="43.24541" lon="6.51467">
        <ele>89.386322</ele>
        <time>2011-10-02T12:05:28Z</time>
      </trkpt>
      <trkpt lat="43.24611" lon="6.51532">
        <ele>83.850021</ele>
        <time>2011-10-02T12:05:40Z</time>
      </trkpt>
      <trkpt lat="43.24617" lon="6.51536">
        <ele>83.662491</ele>
        <time>2011-10-02T12:05:41Z</time>
      </trkpt>
      <trkpt lat="43.24672" lon="6.51561">
        <ele>83.362503</ele>
        <time>2011-10-02T12:05:50Z</time>
      </trkpt>
      <trkpt lat="43.24689" lon="6.51568">
        <ele>83.552498</ele>
        <time>2011-10-02T12:05:53Z</time>
      </trkpt>
      <trkpt lat="43.24729" lon="6.51596">
        <ele>83.932968</ele>
        <time>2011-10-02T12:06:01Z</time>
      </trkpt>
      <trkpt lat="43.248" lon="6.51636">
        <ele>81.551422</ele>
        <time>2011-10-02T12:06:13Z</time>
      </trkpt>
      <trkpt lat="43.24863" lon="6.51695">
        <ele>76.57119</ele>
        <time>2011-10-02T12:06:25Z</time>
      </trkpt>
      <trkpt lat="43.24888" lon="6.51732">
        <ele>74.563545</ele>
        <time>2011-10-02T12:06:31Z</time>
      </trkpt>
      <trkpt lat="43.24914" lon="6.51762">
        <ele>72.840454</ele>
        <time>2011-10-02T12:06:36Z</time>
      </trkpt>
      <trkpt lat="43.24936" lon="6.51779">
        <ele>71.643631</ele>
        <time>2011-10-02T12:06:40Z</time>
      </trkpt>
      <trkpt lat="43.24982" lon="6.5178">
        <ele>67.192184</ele>
        <time>2011-10-02T12:06:47Z</time>
      </trkpt>
      <trkpt lat="43.25026" lon="6.51786">
        <ele>61.694443</ele>
        <time>2011-10-02T12:06:52Z</time>
      </trkpt>
      <trkpt lat="43.25071" lon="6.5181">
        <ele>58.375507</ele>
        <time>2011-10-02T12:06:57Z</time>
      </trkpt>
      <trkpt lat="43.25177" lon="6.51899">
        <ele>51.031689</ele>
        <time>2011-10-02T12:07:10Z</time>
      </trkpt>
      <trkpt lat="43.25193" lon="6.5195">
        <ele>48.91375</ele>
        <time>2011-10-02T12:07:17Z</time>
      </trkpt>
      <trkpt lat="43.25146" lon="6.52056">
        <ele>45.302567</ele>
        <time>2011-10-02T12:07:30Z</time>
      </trkpt>
      <trkpt lat="43.25107" lon="6.52132">
        <ele>41.077625</ele>
        <time>2011-10-02T12:07:38Z</time>
      </trkpt>
      <trkpt lat="43.25067" lon="6.52246">
        <ele>37.040825</ele>
        <time>2011-10-02T12:07:49Z</time>
      </trkpt>
      <trkpt lat="43.25024" lon="6.5233">
        <ele>35.785313</ele>
        <time>2011-10-02T12:07:59Z</time>
      </trkpt>
      <trkpt lat="43.25003" lon="6.52373">
        <ele>35.337257</ele>
        <time>2011-10-02T12:08:06Z</time>
      </trkpt>
      <trkpt lat="43.25029" lon="6.5251">
        <ele>29.063625</ele>
        <time>2011-10-02T12:08:21Z</time>
      </trkpt>
      <trkpt lat="43.25047" lon="6.52605">
        <ele>26.10375</ele>
        <time>2011-10-02T12:08:30Z</time>
      </trkpt>
      <trkpt lat="43.25038" lon="6.52654">
        <ele>25.136984</ele>
        <time>2011-10-02T12:08:35Z</time>
      </trkpt>
      <trkpt lat="43.25016" lon="6.52698">
        <ele>25.875109</ele>
        <time>2011-10-02T12:08:41Z</time>
      </trkpt>
      <trkpt lat="43.25025" lon="6.52729">
        <ele>24.99</ele>
        <time>2011-10-02T12:08:46Z</time>
      </trkpt>
      <trkpt lat="43.25051" lon="6.52751">
        <ele>24.428749</ele>
        <time>2011-10-02T12:08:51Z</time>
      </trkpt>
      <trkpt lat="43.25085" lon="6.52784">
        <ele>24.235001</ele>
        <time>2011-10-02T12:08:58Z</time>
      </trkpt>
      <trkpt lat="43.2511" lon="6.52813">
        <ele>24.365</ele>
        <time>2011-10-02T12:09:04Z</time>
      </trkpt>
      <trkpt lat="43.25115" lon="6.52822">
        <ele>24.36125</ele>
        <time>2011-10-02T12:09:06Z</time>
      </trkpt>
      <trkpt lat="43.25124" lon="6.52862">
        <ele>24.469999</ele>
        <time>2011-10-02T12:09:16Z</time>
      </trkpt>
      <trkpt lat="43.25125" lon="6.52867">
        <ele>24.504999</ele>
        <time>2011-10-02T12:09:18Z</time>
      </trkpt>
      <trkpt lat="43.25126" lon="6.52869">
        <ele>24.555</ele>
        <time>2011-10-02T12:09:36Z</time>
      </trkpt>
      <trkpt lat="43.25129" lon="6.52891">
        <ele>24.719999</ele>
        <time>2011-10-02T12:10:06Z</time>
      </trkpt>
      <trkpt lat="43.25131" lon="6.52904">
        <ele>24.865</ele>
        <time>2011-10-02T12:10:15Z</time>
      </trkpt>
    </trkseg>
  </trk>
</gpx>